[[{"header":{"parameterUnit":"m.s-1","parameterCategory":1,"la1":31.0,"la2":29.5877,"lo1":-88.7671,"lo2":-86.6584,"dx":0.0162,"dy":0.0185,"nx":115,"ny":88,"refTime":"2023-01-05T18:00:00:Z","depth":0,"parameterNumber":2,"parameterNumberName":"U-component_of_WINDS"},"data":[0.0,0.0,0.0,0.0,0.0,0.0,0.0,0.0,0.0,0.0,0.0,0.0,0.0,0.0,0.0,0.0,0.0,0.0,0.0,0.0,0.0,0.0,0.0,0.0,0.0,0.0,0.0,0.0,0.0,0.0,0.0,0.0,0.0,0.0,0.0,0.0,0.0,0.0,0.0,0.0,0.0,0.0,0.0,0.0,0.0,0.0,0.0,0.0,0.0,0.0,0.0,0.0,0.0,0.0,0.0,0.0,0.0,0.0,0.0,0.0,0.0,0.0,0.0,0.0,0.0,0.0,0.0,0.0,0.0,0.0,0.0,0.0,0.0,0.0,0.0,0.0,0.0,0.0,0.0,0.0,0.0,0.0,0.0,0.0,0.0,0.0,0.0,0.0,0.0,0.0,0.0,0.0,0.0,0.0,0.0,0.0,0.0,0.0,0.0,0.0,0.0,0.0,0.0,0.0,0.0,0.0,0.0,0.0,0.0,0.0,0.0,0.0,0.0,0.0,0.0,0.0,0.0,0.0,0.0,0.0,0.0,0.0,0.0,0.0,0.0,0.0,0.0,0.0,0.0,0.0,0.0,0.0,0.0,0.0,0.0,0.0,0.0,0.0,0.0,0.0,0.0,0.0,0.0,0.0,0.0,0.0,0.0,0.0,0.0,0.0,0.0,0.0,0.0,0.0,0.0,0.0,0.0,0.0,0.0,0.0,0.0,0.0,0.0,0.0,0.0,0.0,0.0,0.0,0.0,0.0,0.0,0.0,0.0,0.0,0.0,0.0,0.0,0.0,0.0,0.0,0.0,0.0,0.0,0.0,0.0,0.0,0.0,0.0,0.0,0.0,0.0,0.0,0.0,0.0,0.0,0.0,0.0,0.0,0.0,0.0,0.0,0.0,0.0,0.0,0.0,0.0,0.0,0.0,0.0,0.0,0.0,0.0,0.0,0.0,0.0,0.0,0.0,0.0,0.0,0.0,0.0,0.0,0.0,0.0,0.0,0.0,0.0,0.0,0.0,0.0,0.0,0.0,0.0,0.0,0.0,0.0,0.0,0.0,0.0,0.0,0.0,0.0,0.0,0.0,0.0,0.0,0.0,0.0,0.0,0.0,0.0,0.0,0.0,0.0,0.0,0.0,0.0,0.0,0.0,0.0,0.0,0.0,0.0,0.0,0.0,0.0,0.0,0.0,0.0,0.0,0.0,0.0,0.0,0.0,0.0,0.0,0.0,0.0,0.0,0.0,0.0,0.0,0.0,0.0,0.0,0.0,0.0,0.0,0.0,0.0,0.0,0.0,0.0,0.0,0.0,0.0,0.0,0.0,0.0,0.0,0.0,0.0,0.0,0.0,0.0,0.0,0.0,0.0,0.0,0.0,0.0,0.0,0.0,0.0,0.0,0.0,0.0,0.0,0.0,0.0,0.0,0.0,0.0,0.0,0.0,0.0,0.0,0.0,0.0,0.0,0.0,0.0,0.0,0.0,0.0,0.0,0.0,0.0,0.0,0.0,0.0,0.0,0.0,0.0,0.0,0.0,0.0,0.0,0.0,0.0,0.0,0.0,0.0,0.0,0.0,0.0,0.0,0.0,0.0,0.0,0.0,0.0,0.0,0.0,0.0,0.0,0.0,0.0,0.0,0.0,0.0,0.0,0.0,0.0,0.0,0.0,0.0,0.0,0.0,0.0,0.0,0.0,0.0,0.0,0.0,0.0,0.0,0.0,0.0,0.0,0.0,0.0,0.0,0.0,0.0,0.0,0.0,0.0,0.0,0.0,0.0,0.0,0.0,0.0,0.0,0.0,0.0,0.0,0.0,0.0,0.0,0.0,0.0,0.0,0.0,0.0,0.0,0.0,0.0,0.0,0.0,0.0,0.0,0.0,0.0,0.0,0.0,0.0,0.0,0.0,0.0,0.0,0.0,0.0,0.0,0.0,0.0,0.0,0.0,0.0,0.0,0.0,0.0,0.0,0.0,0.0,0.0,0.0,0.0,0.0,0.0,0.0,0.0,0.0,0.0,0.0,0.0,0.0,0.0,0.0,0.0,0.0,0.0,0.0,0.0,0.0,0.0,0.0,0.0,0.0,0.0,0.0,0.0,0.0,0.0,0.0,0.0,0.0,0.0,0.0,0.0,0.0,0.0,0.0,0.0,0.0,0.0,0.0,0.0,0.0,0.0,0.0,0.0,0.0,0.0,0.0,0.0,0.0,0.0,0.0,0.0,0.0,0.0,0.0,0.0,0.0,0.0,0.0,0.0,0.0,0.0,0.0,0.0,0.0,0.0,0.0,0.0,0.0,0.0,0.0,0.0,0.0,0.0,0.0,0.0,0.0,0.0,0.0,0.0,0.0,0.0,0.0,0.0,0.0,0.0,0.0,0.0,0.0,0.0,0.0,0.0,0.0,0.0,0.0,0.0,0.0,0.0,0.0,0.0,0.0,0.0,0.0,0.0,0.0,0.0,0.0,0.0,0.0,0.0,0.0,0.0,0.0,0.0,0.0,0.0,0.0,0.0,0.0,0.0,0.0,0.0,0.0,0.0,0.0,0.0,0.0,0.0,0.0,0.0,0.0,0.0,0.0,0.0,0.0,0.0,0.0,0.0,0.0,0.0,0.0,0.0,0.0,0.0,0.0,0.0,0.0,0.0,0.0,0.0,0.0,0.0,0.0,0.0,0.0,0.0,0.0,0.0,0.0,0.0,0.0,0.0,0.0,0.0,0.0,0.0,0.0,0.0,0.0,0.0,0.0,0.0,0.0,0.0,0.0,0.0,0.0,0.0,0.0,0.0,0.0,0.0,0.0,0.0,0.0,0.0,0.0,0.0,0.0,0.0,0.0,0.0,0.0,0.0,0.0,0.0,0.0,0.0,0.0,0.0,0.0,0.0,0.0,0.0,0.0,0.0,0.0,0.0,0.0,0.0,0.0,0.0,0.0,0.0,0.0,0.0,0.0,0.0,0.0,0.0,0.0,0.0,0.0,0.0,0.0,0.0,0.0,0.0,0.0,0.0,0.0,0.0,0.0,0.0,0.0,0.0,0.0,0.0,0.0,0.0,0.0,0.0,0.0,0.0,0.0,0.0,0.0,0.0,0.0,0.0,0.0,0.0,0.0,0.0,0.0,0.0,0.0,0.0,0.0,0.0,0.0,0.0,0.0,0.0,0.0,0.0,0.0,0.0,0.0,0.0,0.0,0.0,0.0,0.0,0.0,0.0,0.0,0.0,0.0,0.0,0.0,0.0,0.0,0.0,0.0,0.0,0.0,0.0,0.0,0.0,0.0,0.0,0.0,0.0,0.0,0.0,0.0,0.0,0.0,0.0,0.0,0.0,0.0,0.0,0.0,0.0,0.0,0.0,0.0,0.0,0.0,0.0,0.0,0.0,0.0,0.0,0.0,0.0,0.0,0.0,0.0,0.0,0.0,0.0,0.0,0.0,0.0,0.0,0.0,0.0,0.0,0.0,0.0,0.0,0.0,0.0,0.0,0.0,0.0,0.0,0.0,0.0,0.0,0.0,0.0,0.0,0.0,0.0,0.0,0.0,0.0,0.0,0.0,0.0,0.0,0.0,0.0,0.0,0.0,0.0,0.0,0.0,0.0,0.0,0.0,0.0,0.0,0.0,0.0,0.0,0.0,0.0,0.0,0.0,0.0,0.0,0.0,0.0,0.0,0.0,0.0,0.0,0.0,0.0,0.0,0.0,0.0,0.0,0.0,0.0,0.0,0.0,0.0,0.0,0.0,0.0,0.0,0.0,0.0,0.0,0.0,0.0,0.0,0.0,0.0,0.0,0.0,0.0,0.0,0.0,0.0,0.0,0.0,0.0,0.0,0.0,0.0,0.0,0.0,0.0,0.0,0.0,0.0,0.0,0.0,0.0,0.0,0.0,0.0,0.0,0.0,0.0,0.0,0.0,0.0,0.0,0.0,0.0,0.0,0.0,0.0,0.0,0.0,0.0,0.0,0.0,0.0,0.0,0.0,0.0,0.0,0.0,0.0,0.0,0.0,0.0,0.0,0.0,0.0,0.0,0.0,0.0,0.0,0.0,0.0,0.0,0.0,0.0,0.0,0.0,0.0,0.0,0.0,0.0,0.0,0.0,0.0,0.0,0.0,0.0,0.0,0.0,0.0,0.0,0.0,0.0,0.0,0.0,0.0,0.0,0.0,0.0,0.0,0.0,0.0,0.0,0.0,0.0,0.0,0.0,0.0,0.0,0.0,0.0,0.0,0.0,0.0,0.0,0.0,0.0,0.0,0.0,0.0,0.2605,0.0,0.0,0.0,0.0711,0.0,0.0,0.0,0.0,0.0,0.0,0.0,0.0,0.0,0.0,0.0,0.0,0.0,0.0,0.0,0.0,0.0,0.0,0.0,0.0,0.0,0.0,0.0,0.0,0.0,0.0,0.0,0.0,0.0,0.0,0.0,0.0,0.0,0.0,0.0,0.0,0.0,0.0,0.0,0.0,0.0,0.0,0.0,0.0,0.0,0.0,0.0,0.0,0.0,0.0,0.0,0.0,0.0,0.0,0.0,0.0,0.0,0.0,0.0,0.0,0.0,0.0,0.0,0.0,0.0,0.0,0.0,0.0,0.0,0.0,0.0,0.0,0.0,0.0,0.0,0.0,0.0,0.0,0.0,0.0,0.0,0.0,0.0,0.0,0.0,0.0,0.0,0.0,0.0,0.0,0.0,0.0,0.0,0.0,0.0,0.0,0.0,0.0,0.0,0.0,0.0,0.0,0.0,0.0,0.0,0.0,0.0,0.0,0.0,0.0,0.2319,0.2069,0.1234,0.0712,0.0545,0.0,0.0,0.0,0.0,0.0,0.0,0.0,0.0,0.0,0.0,0.0,0.0,0.0,0.0,0.0,0.0,0.0,0.0,0.0,0.0,0.0,0.0,0.0,0.0,0.0,0.0,0.0,0.0,0.0,0.0,0.0,0.0,0.0,0.0,0.0,0.0,0.0,0.0,0.0,0.0,0.0,0.0,0.0,0.0,0.0,0.0,0.0,0.0,0.0,0.0,0.0,0.0,0.0,0.0,0.0,0.0,0.0,0.0,0.0,0.0,0.0,0.0,0.0,0.0,0.0,0.0,0.0,0.0,0.0,0.0,0.0,0.0,0.0,0.0,0.0,0.0,0.0,0.0,0.0,0.0,0.0,0.0,0.0,0.0,0.0,0.0,0.0,0.0,0.0,0.0,0.0,0.0,0.0,0.0,0.0,0.0,0.0,0.0,0.0,0.0,0.0,0.0,0.0,0.0,0.0,0.0,0.0,0.0,0.0,0.0,0.0,0.0,0.0992,0.0529,0.0309,0.0,0.0,0.0,0.0,0.0,0.0,0.0,0.0,0.0,0.0,0.0,0.0,0.0,0.0,0.0,0.0,0.0,0.0,0.0,0.0,0.0,0.0,0.0,0.0,0.0,0.0,0.0,0.0,0.0,0.0,0.0,0.0,0.0,0.0,0.0,0.0,0.0,0.0,0.0,0.0,0.0,0.0,0.0,0.0,0.0,0.0,0.0,0.0,0.0,0.0,0.0,0.0,0.0,0.0,0.0,0.0,0.0,0.0,0.0,0.0,0.0,0.0,0.0,0.0,0.0,0.0,0.0,0.0,0.0,0.0,0.0,0.0,0.0,0.0,0.0,0.0,0.0,0.0,0.0,0.0,0.0,0.0,0.0,0.0,0.0,0.0,0.0,0.0,0.0,0.0,0.0,0.0,0.0,0.0,0.0,0.0,0.0,0.0,0.0,0.0,0.0,0.0,0.0,0.0,0.0,0.0,0.0,0.0,0.0,0.0,0.1494,0.1338,0.0741,0.0,0.0058,0.0,0.0,0.0,0.0,0.0,0.0,0.0,0.0,0.0,0.0,0.0,0.0,0.0,0.0,0.0,0.0,0.0,0.0,0.0,0.0,0.0,0.0,0.0,0.0,0.0,0.0,0.0,0.0,0.0,0.0,0.0,0.0,0.0,0.0,0.0,0.0,0.0,0.0,0.0,0.0,0.0,0.0,0.0,0.0,0.0,0.0,0.0,0.0,0.0,0.0,0.0,0.0,0.0,0.0,0.0,0.0,0.0,0.0,0.0,0.0,0.0,0.0,0.0,0.0,0.0,0.0,0.0,0.0,0.0,0.0,0.0,0.0,0.0,0.0,0.0,0.0,0.0,0.0,0.0,0.0,0.0,0.0,0.0,0.0,0.0,0.0,0.0,0.0,0.0,0.0,0.0,0.0,0.0,0.0,0.0,0.0,0.0,0.0,0.0,0.0,0.0,0.0,0.0,0.0,0.0,0.0,0.0,0.0,0.0,0.0,0.0774,0.0647,0.0252,-0.009,0.0,0.0,0.0,0.0,0.0,0.0,0.0,0.0,0.0,0.0,0.0,0.0,0.0,0.0,0.0,0.0,0.0,0.0,0.0,0.0,0.0,0.0,0.0,0.0,0.0,0.0,0.0,0.0,0.0,0.0,0.0,0.0,0.0,0.0,0.0,0.0,0.0,0.0,0.0,0.0,0.0,0.0,0.0,0.0,0.0,0.0,0.0,0.0,0.0,0.0,0.0,0.0,0.0,0.0,0.0,0.0,0.0,0.0,0.0,0.0,0.0,0.0,0.0,0.0,0.0,0.0,0.0,0.0,0.0,0.0,0.0,0.0,0.0,0.0,0.0,0.0,0.0,0.0,0.0,0.0,0.0,0.0,0.0,0.0,0.0,0.0,0.0,0.0,0.0,0.0,0.0,0.0,0.0,0.0,0.0,0.0,0.0,0.0,0.0,0.0,0.0,0.0,0.0,0.0,0.0,0.0,0.0,0.0,0.0,0.0,0.04,0.024,0.0141,-0.0081,-0.0294,-0.0505,0.0,0.0,0.0,0.0,0.0,0.0,0.0,0.0,0.0,0.0,0.0,0.0,0.0,0.0,0.0,0.0,0.0,0.0,0.0,0.0,0.0,0.0,0.0,0.0,0.0,0.0,0.0,0.0,0.0,0.0,0.0,0.0,0.0,0.0,0.0,0.0,0.0,0.0,0.0,0.0,0.0,0.0,0.0,0.0,0.0,0.0,0.0,0.0,0.0,0.0,0.0,0.0,0.0,0.0,0.0,0.0,0.0,0.0,0.0,0.0,0.0,0.0,0.0,0.0,0.0,0.0,0.0,0.0,0.0,0.0,0.0,0.0,0.0,0.0,0.0,0.0,0.0,0.0,0.0,0.0,0.0,0.0,0.0,0.0,0.0,0.0,0.0,0.0,0.0,0.0,0.0,0.0,0.0,0.0,0.0,0.0,0.0,0.0,0.0,0.0,0.0,0.0,0.0,0.0,0.0,0.0,0.0,0.0,-0.0151,-0.0044,0.0019,-0.0022,-0.0122,-0.0151,0.0,0.0,0.0,0.0,0.0,0.0,0.0,0.0,0.0,0.0,0.0,0.0,0.0,0.0,0.0,0.0,0.0,0.0,0.0,0.0,0.0,0.0,0.0,0.0,0.0,0.0,0.0,0.0,0.0,0.0,0.0,0.0,0.0,0.0,0.0,0.0,0.0,0.0,0.0,0.0,0.0,0.0,0.0,0.0,0.0,0.0,0.0,0.0,0.0,0.0,0.0,0.0,0.0,0.0,0.0,0.0,0.0,0.0,0.0,0.0,0.0,0.0,0.0,0.0,0.0,0.0,0.0,0.0,0.0,0.0,0.0,0.0,0.0,0.0,0.0,0.0,0.0,0.0,0.0,0.0,0.0,0.0,0.0,0.0,0.0,0.0,0.0,0.0,0.0,0.0,0.0,0.0,0.0,0.0,0.0,0.0,0.0,0.0,0.0,0.0,0.0,0.0,0.0,0.0,0.0,0.0,0.0,0.0,0.0,-0.0634,-0.0396,-0.0362,-0.0552,-0.0347,-0.0217,0.0,0.0,0.0,0.0,0.0,0.0,0.0,0.0,0.0,0.0,0.0,0.0,0.0,0.0,0.0,0.0,0.0,0.0,0.0,0.0,0.0,0.0,0.0,0.0,0.0,0.0,0.0,0.0,0.0,0.0,0.0,0.0,0.0,0.0,0.0,0.0,0.0,0.0,0.0,0.0,0.0,0.0,0.0,0.0,0.0,0.0,0.0,0.0,0.0,0.0,0.0,0.0,0.0,0.0,0.0,0.0,0.0,0.0,0.0,0.0,0.0,0.0,0.0,0.0,0.0,0.0,0.0,0.0,0.0,0.0,0.0,0.0,0.0,0.0,0.0,0.0,0.0,0.0,0.0,0.0,0.0,0.0,0.0,0.0,0.0,0.0,0.0,0.0,0.0,0.0,0.0,0.0,0.0,0.0,0.0,0.0,0.0,0.0,0.0,0.0,0.0,0.0,0.0,0.0,0.0,0.0,0.0,0.0,0.0,-0.0543,-0.0527,-0.0438,-0.0313,-0.0198,-0.0183,0.0,0.0,0.0,0.0,0.0,0.0,0.0,0.0,0.0,0.0,0.0,0.0,0.0,0.0,0.0,0.0,0.0,0.0,0.0,0.0,0.0,0.0,0.0,0.0,0.0,0.0,0.0,0.0,0.0,0.0,0.0,0.0,0.0,0.0,0.0,0.0,0.0,0.0,0.0,0.0,0.0,0.0,0.0,0.0,0.0,0.0,0.0,0.0,0.0,0.0,0.0,0.0,0.0,0.0,0.0,0.0,0.0,0.0,0.0,0.0,0.0,0.0,0.0,0.0,0.0,0.0,0.0,0.0,0.0,0.0,0.0,0.0,0.0,0.0,0.0,0.0,0.0,0.0,0.0,0.0,0.0,0.0,0.0,0.0,0.0,0.0,0.0,0.0,0.0,0.0,0.0,0.0,0.0,0.0,0.0,0.0,0.0,0.0,0.0,0.0,0.0,0.0,0.0,0.0,0.0,0.0,0.0,0.0,-0.051,0.0119,-0.037,-0.0147,0.0828,0.0336,0.0009,0.0,0.0,0.0,0.0,0.0,0.0,0.0,0.0,0.0,0.0,0.0,0.0,0.0,0.0,0.0,0.0,0.0,0.0,0.0,0.0,0.0,0.0,0.0,0.0,0.0,0.0,0.0,0.0,0.0,0.0,0.0,0.0,0.0,0.0,0.0,0.0,0.0,0.0,0.0,0.0,0.0,0.0,0.0,0.0,0.0,0.0,0.0,0.0,0.0,0.0,0.0,0.0,0.0,0.0,0.0,0.0,0.0,0.0,0.0,0.0,0.0,0.0,0.0,0.0,0.0,0.0,0.0,0.0,0.0,0.0,0.0,0.0,0.0,0.0,0.0,0.0,0.0,0.0,0.0,0.0,0.0,0.0,0.0,0.0,0.0,0.0,0.0,0.0,0.0,0.0,0.0,0.0,0.0,0.0,0.0,0.0,0.0,0.0,0.0,0.0,0.0,0.0,0.0,0.0,0.0,0.0,0.0,0.0,0.0,0.0217,0.0429,0.0697,0.1008,0.0761,0.0584,0.0,0.0,0.0,0.0,0.0,0.0,0.0,0.0,0.0,0.0,0.0,0.0,0.0,0.0,0.0,0.0,0.0,0.0,0.0,0.0,0.0,0.0,0.0,0.0,0.0,0.0,0.0,0.0,0.0,0.0,0.0,0.0,0.0,0.0,0.0,0.0,0.0,0.0,0.0,0.0,0.0,0.0,0.0,0.0,0.0,0.0,0.0,0.0,0.0,0.0,0.0,0.0,0.0,0.0,0.0,0.0,0.0,0.0,0.0,0.0,0.0,0.0,0.0,0.0,0.0,0.0,0.0,0.0,0.0,0.0,0.0,0.0,0.0,0.0,0.0,0.0,0.0,0.0,0.0,0.0,0.0,0.0,0.0,0.0,0.0,0.0,0.0,0.0,0.0,0.0,0.0,0.0,0.0,0.0,0.0,0.0,0.0,0.0,0.0,0.0,0.0,0.0,0.0,0.0,0.0,0.0,0.0,0.0,0.0,0.0825,0.1037,0.1339,0.1693,0.1183,0.0904,0.0889,0.0,0.0,0.0,0.0,0.0,0.0,0.0,0.0,0.0,0.0,0.0,0.0,0.0,0.0,0.0,0.0,0.0,0.0,0.0,0.0,0.0,0.0,0.0,0.0,0.0,0.0,0.0,0.0,0.0,0.0,0.0,0.0,0.0,0.0,0.0,0.0,0.0,0.0,0.0,0.0,0.0,0.0,0.0,0.0,0.0,0.0,0.0,0.0,0.0,0.0,0.0,0.0,0.0,0.0,0.0,0.0,0.0,0.0,0.0,0.0,0.0,0.0,0.0,0.0,0.0,0.0,0.0,0.0,0.0,0.0,0.0,0.0,0.0,0.0,0.0,0.0,0.0,0.0,0.0,0.0,0.0,0.0,0.0,0.0,0.0,0.0,0.0,0.0,0.0,0.0,0.0,0.0,0.0,0.0,0.0,0.0,0.0,0.0,0.0,0.0,0.0,0.0,0.0,0.0,0.0,0.0,0.0,0.0,0.1818,0.1531,0.1781,0.2616,0.1563,0.104,0.0,0.0,0.0,0.0,0.0,0.0,0.0,0.0,0.0,0.0,0.0,0.0,0.0,0.0,0.0,0.0,0.0,0.0,0.0,0.0,0.0,0.0,0.0,0.0,0.0,0.0,0.0,0.0,0.0,0.0,0.0,0.0,0.0,0.0,0.0,0.0,0.0,0.0,0.0,0.0,0.0,0.0,0.0,0.0,0.0,0.0,0.0,0.0,0.0,0.0,0.0,0.0,0.0,0.0,0.0,0.0,0.0,0.0,0.0,0.0,0.0,0.0,0.0,0.0,0.0,0.0,0.0,0.0,0.0,0.0,0.0,0.0,0.0,0.0,0.0,0.0,0.0,0.0,0.0,0.0,0.0,0.0,0.0,0.0,0.0,0.0,0.0,0.0,0.0,0.0,0.0,0.0,0.0,0.0,0.0,0.0,0.0,0.0,0.0,0.0,0.0,0.0,0.0,0.0,0.0,0.0,0.0,0.0,0.0,0.207,0.2255,0.2397,0.2537,0.2013,0.1684,0.0,0.0,0.0,0.0,0.0,0.0,0.0,0.0,0.0,0.0,0.0,0.0,0.0,0.0,0.0,0.0,0.0,0.0,0.0,0.0,0.0,0.0,0.0,0.0,0.0,0.0,0.0,0.0,0.0,0.0,0.0,0.0,0.0,0.0,0.0,0.0,0.0,0.0,0.0,0.0,0.0,0.0,0.0,0.0,0.0,0.0,0.0,0.0,0.0,0.0,0.0,0.0,0.0,0.0,0.0,0.0,0.0,0.0,0.0,0.0,0.0,0.0,0.0,0.0,0.0,0.0,0.0,0.0,0.0,0.0,0.0,0.0,0.0,0.0,0.0,0.0,0.0,0.0,0.0,0.0,0.0,0.0,0.0,0.0,0.0,0.0,0.0,0.0,0.0,0.0,0.0,0.0,0.0,0.0,0.0,0.0,0.0,0.0,0.0,0.0,0.0,0.0,0.0,0.0,0.0,0.0,0.0,0.0,0.132,0.21,0.2318,0.2487,0.2662,0.2591,0.2482,0.0,0.0,0.0,0.0,0.0,0.0,0.0,0.0,0.0,0.0,0.0,0.0,0.0,0.0,0.0,0.0,0.0,0.0,0.0,0.0,0.0,0.0,0.0,0.0,0.0,0.0,0.0,0.0,0.0,0.0,0.0,0.0,0.0,0.0,0.0,0.0,0.0,0.0,0.0,0.0,0.0,0.0,0.0,0.0,0.0,0.0,0.0,0.0,0.0,0.0,0.0,0.0,0.0,0.0,0.0,0.0,0.0,0.0,0.0,0.0,0.0,0.0,0.0,0.0,0.0,0.0,0.0,0.0,0.0,0.0,0.0,0.0,0.0,0.0,0.0,0.0,0.0,0.0,0.0,0.0,0.0,0.0,0.0,0.0,0.0,0.0,0.0,0.0,0.0,0.0,0.0,0.0,0.0,0.0,0.0,0.0,0.0,0.0,0.0,0.0,0.0,0.0,0.0,0.0,0.0,0.0,0.0,0.0,0.088,0.1971,0.2007,0.2344,0.3003,0.3211,0.3227,0.0,0.0,0.0,0.0,0.0,0.0,0.0,0.0,0.0,0.0,0.0,0.0,0.0,0.0,0.0,0.0,0.0,0.0,0.0,0.0,0.0,0.0,0.0,0.0,0.0,0.0,0.0,0.0,0.0,0.0,0.0,0.0,0.0,0.0,0.0,0.0,0.0,0.0,0.0,0.0,0.0,0.0,0.0,0.0,0.0,0.0,0.0,0.0,0.0,0.0,0.0,0.0,0.0,0.0,0.0,0.0,0.0,0.0,0.0,0.0,0.0,0.0,0.0,0.0,0.0,0.0,0.0,0.0,0.0,0.0,0.0,0.0,0.0,0.0,0.0,0.0,0.0,0.0,0.0,0.0,0.0,0.0,0.0,0.0,0.0,0.0,0.0,0.0,0.0,0.0,0.0,0.0,0.0,0.0,0.0,0.0,0.0,0.0,0.0,0.0,0.0,0.0,0.0,0.0,0.0,0.0,0.0,0.0,0.0705,0.1973,0.2096,0.2664,0.3746,0.3563,0.3171,0.0,0.0,0.0,0.0,0.0,0.0,0.0,0.0,0.0,0.0,0.0,0.0,0.0,0.0,0.0,0.0,0.0,0.0,0.0,0.0,0.0,0.0,0.0,0.0,0.0,0.0,0.0,0.0,0.0,0.0,0.0,0.0,0.0,0.0,0.0,0.0,0.0,0.0,0.0,0.0,0.0,0.0,0.0,0.0,0.0,0.0,0.0,0.0,0.6706,0.0,0.0,0.0,0.0,0.0,0.0,0.0,0.0,0.0,0.0,0.0,0.0,0.0,0.0,0.0,0.0,0.0,0.0,0.0,0.0,0.0,0.0,0.0,0.0,0.0,0.0,0.0,0.0,0.0,0.0,0.0,0.0,0.0,0.0,0.0,0.0,0.0,0.0,0.0,0.0,0.0,0.0,0.0,0.0,0.0,0.0,0.0,0.0,0.0,0.0,0.0,0.0,0.0,0.0,0.0,0.0,0.0,0.0,0.0,0.0474,0.1619,0.1853,0.2449,0.3521,0.375,0.3545,0.0,0.0,0.0,0.0,0.0,0.0,0.0,0.0,0.0,0.0,0.0,0.0,0.0,0.0,0.0,0.0,0.0,0.0,0.0,0.0,0.0,0.0,0.0,0.0,0.0,0.0,0.0,0.0,0.0,0.0,0.0,0.0,0.0,0.0,0.0,0.0,0.0,0.0,0.0,0.0,0.0,0.0,0.0,0.0,0.0,0.0,0.0,0.0,0.0,0.0,0.0,0.0,0.0,0.0,0.0,0.0,0.0,0.0,0.0,0.0,0.0,0.0,0.0,0.0,0.0,0.0,0.0,0.0,0.0,0.0,0.0,0.0,0.0,0.0,0.0,0.0,0.0,0.0,0.0,0.0,0.0,0.0,0.0,0.0,0.0,0.0,0.0,0.0,0.0,0.0,0.0,0.0,0.0,0.0,0.0,0.0,0.0,0.0,0.0,0.0,0.0,0.0,0.0,0.0,0.0,0.0,0.0,-0.058,0.0342,0.1351,0.162,0.2174,0.3078,0.3838,0.3957,0.3375,0.0,0.0,0.0,0.0,0.0,0.0,0.0,0.0,0.0,0.0,0.0,0.0,0.0,0.0,0.0,0.0,0.0,0.0,0.0,0.0,0.0,0.0,0.0,0.0,0.0,0.0,0.0,0.0,0.0,0.0,0.0,0.0,0.0,0.0,0.0,0.0,0.0,0.0,0.5625,0.7392,0.0,0.0,0.0,0.0,0.0,0.0,0.0,0.0,0.7432,0.0,0.0,0.0,0.0,0.0,0.0,0.0,0.0,0.0,0.0,0.0,0.0,0.0,0.0,0.0,0.0,0.0,0.0,0.0,0.0,0.0,0.0,0.0,0.0,0.0,0.0,0.0,0.0,0.0,0.0,0.0,0.0,0.0,0.0,0.0,0.0,0.0,0.0,0.0,0.0,0.0,0.0,0.0,0.0,0.0,0.0,0.0,0.0,0.0,0.0,0.0,0.0,0.0,0.0,0.0,0.0,-0.1607,-0.0586,0.0607,0.1859,0.2194,0.2578,0.3108,0.392,0.3804,0.2695,0.0,0.0,0.0,0.0,0.0,0.0,0.0,0.0,0.0,0.0,0.0,0.0,0.0,0.0,0.0,0.0,0.0,0.0,0.0,0.0,0.0,0.0,0.0,0.0,0.0,0.0,0.0,0.0,0.0,0.0,0.0,0.0,0.0,0.0,0.0,0.0,0.0,0.0,0.0,0.9494,1.0707,0.0,0.0,0.0,0.0,0.0,0.0,0.0,0.0,0.7627,0.0,0.0,0.0,0.0,0.0,0.0,0.0,0.0,0.0,0.0,0.0,0.0,0.0,0.0,0.0,0.0,0.0,0.0,0.0,0.0,0.0,0.0,0.0,0.0,0.0,0.0,0.0,0.0,0.0,0.0,0.0,0.0,0.0,0.0,0.0,0.0,0.0,0.0,0.0,0.0,0.0,0.0,0.0,0.0,0.0,0.0,0.0,0.0,0.0,0.0,0.0,0.0,0.0,0.0,0.0,0.0534,0.0615,0.123,0.2325,0.2449,0.2695,0.3088,0.3686,0.3532,0.0,0.0,0.0,0.0,0.0,0.0,0.0,0.0,0.0,0.0,0.0,0.0,0.0,0.0,0.0,0.0,0.0,0.0,0.0,0.0,0.0,0.0,0.0,0.0,0.0,0.0,0.0,0.0,0.0,0.0,0.0,0.0,0.0,0.0,0.0,0.0,0.0,0.0,0.0,0.0,1.0016,1.1091,1.4075,0.0,0.0,0.0,0.0,0.0,0.0,0.8036,0.792,0.0,0.0,0.0,0.0,0.0,0.0,0.0,0.0,0.0,0.0,0.0,0.0,0.0,0.0,0.0,0.0,0.0,0.0,0.0,0.0,0.0,0.0,0.0,0.0,0.0,0.0,0.0,0.0,0.0,0.0,0.0,0.0,0.0,0.0,0.0,0.0,0.0,0.0,0.0,0.0,0.0,0.0,0.0,0.0,0.0,0.0,0.0,0.0,0.0,0.0,0.0,0.0,0.0,0.0,0.0,0.2819,0.2033,0.202,0.2904,0.2836,0.2908,0.3243,0.3486,0.3307,0.0,0.0,0.0,0.0,0.0,0.0,0.0,0.0,0.0,0.0,0.0,0.0,0.0,0.0,0.0,0.0,0.0,0.0,0.0,0.0,0.0,0.0,0.0,0.0,0.0,0.0,0.0,0.0,0.0,0.0,0.0,0.0,0.0,0.0,0.0,0.0,0.0,0.0,0.0,0.0,0.0,1.193,1.4282,1.2655,0.0,0.0,0.0,0.0,0.8647,0.9139,0.0,0.0,0.0,0.0,0.0,0.0,0.0,0.0,0.0,0.0,0.0,0.0,0.0,0.0,0.0,0.0,0.0,0.0,0.0,0.0,0.0,0.0,0.0,0.0,0.0,0.0,0.0,0.0,0.0,0.0,0.0,0.0,0.0,0.0,0.0,0.0,0.0,0.0,0.0,0.0,0.0,0.0,0.0,0.0,0.0,0.0,0.0,0.0,0.0,0.0,0.0,0.0,0.0,0.0,0.0,0.0,0.3735,0.2969,0.2949,0.3788,0.3721,0.3663,0.371,0.3655,0.3232,0.0,0.0,0.0,0.0,0.0,0.0,0.0,0.0,0.0,0.0,0.0,0.0,0.0,0.0,0.0,0.0,0.0,0.0,0.0,0.0,0.0,0.0,0.0,0.0,0.0,0.0,0.0,0.0,0.0,0.0,0.0,0.0,0.0,0.0,0.0,0.0,0.0,0.0,0.0,0.0,0.0,1.4793,1.5079,1.2284,1.0407,0.0,0.0,1.0499,1.2672,1.3221,0.0,0.0,0.0,0.0,0.0,0.0,0.0,0.0,0.0,0.0,0.0,0.0,0.0,0.0,0.0,0.0,0.0,0.0,0.0,0.0,0.0,0.0,0.0,0.0,0.0,0.0,0.0,0.0,0.0,0.0,0.0,0.0,0.0,0.0,0.0,0.0,0.0,0.0,0.0,0.0,0.0,0.0,0.0,0.0,0.0,0.0,0.0,0.0,0.0,0.0,0.0,0.0,0.0,0.0,0.0,0.2008,0.3368,0.3171,0.3434,0.4187,0.4246,0.4341,0.4517,0.4557,0.4194,0.0,0.0,0.0,0.0,0.0,0.0,0.0,0.0,0.0,0.0,0.0,0.0,0.0,0.0,0.0,0.0,0.0,0.0,0.0,0.0,0.0,0.0,0.0,0.0,0.0,0.0,0.0,0.0,0.0,0.0,0.0,0.0,0.0,0.0,0.0,0.0,0.0,0.0,0.0,0.0,0.0,0.0,1.492,1.38,0.0,0.0,0.0,1.4605,1.3023,0.0,0.0,0.0,0.0,0.0,0.0,0.0,0.0,0.0,0.0,0.0,0.0,0.0,0.0,0.0,0.0,0.0,0.0,0.0,0.0,0.0,0.0,0.0,0.0,0.0,0.0,0.0,0.0,0.0,0.0,0.0,0.0,0.0,0.0,0.0,0.0,0.0,0.0,0.0,0.0,0.0,0.0,0.0,0.0,0.0,0.0,0.0,0.0,0.0,0.0,0.0,0.0,0.0,0.0,0.0,0.0,0.0,0.3187,0.3465,0.3968,0.4702,0.4769,0.492,0.5246,0.5376,0.0,0.0,0.0,0.0,0.0,0.0,0.0,0.0,0.0,0.0,0.0,0.0,0.0,0.0,0.0,0.0,0.0,0.0,0.0,0.0,0.0,0.0,0.0,0.0,0.0,0.0,0.0,0.4649,0.0,0.0,0.0,0.0,0.0,0.0,0.0,0.0,0.0,0.0,0.0,0.0,0.0,0.0,1.1324,1.361,1.4833,1.486,0.0,0.0,1.8016,1.4373,1.5157,1.5149,0.0,0.0,0.0,0.0,0.0,0.0,0.0,0.0,0.0,0.0,0.0,0.0,0.0,0.0,0.0,0.0,0.0,0.0,0.0,0.0,0.0,0.0,0.0,0.0,0.0,0.0,0.0,0.0,0.0,0.0,0.0,0.0,0.0,0.0,0.0,0.0,0.0,0.0,0.0,0.0,0.0,0.0,0.0,0.0,0.0,0.0,0.0,0.0,0.0,0.0,0.0,0.0,0.0,0.0,0.323,0.3743,0.4237,0.4862,0.5568,0.5383,0.5379,0.5645,0.5802,0.5299,0.0,0.0,0.0,0.0,0.0,0.0,0.0,0.0,0.0,0.0,0.0,0.0,0.0,0.0,0.0,0.0,0.0,0.0,0.0,0.0,0.0,0.0,0.0,0.0,0.0,0.0,0.0,0.0,0.0,0.0,0.0,0.0,0.0,0.0,0.0,0.0,0.0,0.0,0.0,0.0,0.0,1.1101,1.0513,1.427,1.6582,0.0,1.7349,1.915,1.8768,1.8699,1.7157,1.2466,0.0,0.0,0.0,0.0,0.0,0.0,0.0,0.0,0.0,0.0,0.0,0.0,0.0,0.0,0.0,0.0,0.0,0.0,0.0,0.0,0.0,0.0,0.0,0.0,0.0,0.0,0.0,0.0,0.0,0.0,0.0,0.0,0.0,0.0,0.0,0.0,0.0,0.0,0.0,0.0,0.0,0.0,0.0,0.0,0.0,0.0,0.0,0.0,0.0,0.0,0.0,0.0,0.0,0.356,0.3376,0.4532,0.5372,0.5801,0.6015,0.6224,0.6497,0.6542,0.635,0.0,0.0,0.0,0.0,0.0,0.0,0.0,0.0,0.0,0.0,0.0,0.0,0.0,0.0,0.0,0.0,0.0,0.0,0.0,0.0,0.0,0.0,0.0,0.0,0.0,0.0,0.0,0.0,0.7701,0.828,0.7054,0.0,0.0,0.0,0.0,0.0,0.0,0.0,0.0,0.0,0.0,1.3018,1.3226,1.5576,0.0,0.0,1.8765,1.9526,1.9298,1.7845,1.608,1.4213,1.2757,0.0,0.0,0.0,0.0,0.0,0.0,0.0,0.0,0.0,0.0,0.0,0.0,0.0,0.0,0.0,0.0,0.0,0.0,0.0,0.0,0.0,0.0,0.0,0.0,0.0,0.0,0.0,0.0,0.0,0.0,0.0,0.0,0.0,0.0,0.0,0.0,0.0,0.0,0.0,0.0,0.0,0.0,0.0,0.0,0.0,0.0,0.0,0.0,0.0,0.0,0.0,0.0,0.3845,0.329,0.4887,0.5826,0.6098,0.6428,0.6747,0.6986,0.6993,0.6993,0.0,0.0,0.0,0.0,0.0,0.0,0.0,0.0,0.0,0.0,0.0,0.0,0.0,0.0,0.0,0.0,0.0,0.0,0.0,0.0,0.0,0.0,0.0,0.0,0.0,0.0,0.0,0.0,0.7623,0.7674,0.6747,0.0,0.0,0.0,0.0,0.0,0.0,0.0,0.0,0.0,0.0,1.4692,1.5788,1.7158,1.8022,1.7888,1.8068,1.8067,1.7631,1.6566,1.5445,1.4504,0.0,0.0,0.0,0.0,0.0,0.0,0.0,0.0,0.0,0.0,0.0,0.0,0.0,0.0,0.0,0.0,0.0,0.0,0.0,0.0,0.0,0.0,0.0,0.0,0.0,0.0,0.0,-0.3709,0.0,0.0,-0.2749,0.0,0.0,0.0,0.0,0.0,0.0,0.0,0.0,0.0,0.0,0.0,0.0,0.0,0.0,0.0,0.0,0.0,0.0,0.0,0.0,0.0,0.0,0.4159,0.3711,0.5343,0.6306,0.6567,0.6593,0.674,0.6986,0.6993,0.6993,0.6994,0.0,0.0,0.0,0.0,0.0,0.0,0.0,0.0,0.0,0.0,0.0,0.0,0.0,0.0,0.0,0.0,0.0,0.0,0.0,0.0,0.0,0.0,0.0,0.0,0.0,0.0,0.5185,0.4752,0.5791,0.0,0.0,0.0,0.0,0.0,0.0,0.0,0.0,0.0,1.3204,1.4596,1.5788,1.7369,1.884,1.8531,1.5232,1.4725,1.448,1.4036,1.5506,1.5802,0.0,0.0,0.0,0.0,0.0,0.0,0.0,0.0,0.0,0.0,0.0,0.0,0.0,0.0,0.0,0.0,0.0,0.0,0.0,0.0,0.0,0.0,0.0,0.0,0.0,0.0,0.0,-0.6316,-0.5343,0.0,0.0,0.0,0.0,0.0,0.0,0.0,0.0,0.0,0.0,0.0,-0.398,-0.3034,0.0,0.0,0.0,0.0,0.0,0.0,0.0,0.0,0.0,0.0,0.0,0.0,0.4316,0.4251,0.585,0.678,0.6874,0.6874,0.6921,0.6993,0.6993,0.7224,0.7702,0.0,0.0,0.0,0.0,0.0,0.0,0.0,0.0,0.0,0.0,0.0,0.0,0.0,0.0,0.0,0.0,0.0,0.0,0.0,0.0,0.0,0.0,0.0,0.0,0.0,0.743,0.0,0.0,0.0,0.0,0.0,0.0,0.0,0.0,0.0,0.0,1.0335,1.2506,1.4494,1.6484,1.7718,1.7718,1.8897,1.89,0.0,0.0,0.0,0.0,0.0,0.0,0.0,0.0,0.0,0.0,0.0,0.0,0.0,2.0021,2.0175,1.6649,1.4915,1.3368,1.1321,0.0,0.0,0.0,0.0,0.0,0.0,0.0,0.0,0.0,0.0,0.0,0.0,0.0,0.0,-0.7722,-0.6569,-0.6064,0.0,0.0,0.0,0.0,0.0,0.0,0.0,0.0,-0.487,-0.4865,-0.4888,-0.398,-0.2929,-0.1806,-0.1319,-0.069,0.0,0.0,0.0,0.0,0.0,0.0,0.0,0.0,0.4742,0.4917,0.6267,0.6993,0.6993,0.6993,0.6993,0.6993,0.7217,0.7627,0.8292,0.8872,0.9029,0.0,0.0,0.0,0.0,0.0,0.0,0.0,0.0,0.0,0.0,0.0,0.0,0.0,0.0,0.0,0.0,0.0,0.0,0.0,0.0,0.0,0.0,0.0,0.7757,0.0,0.0,0.0,0.0,0.0,0.0,0.0,0.0,0.0,0.9748,1.2391,1.4886,1.633,1.7872,1.8796,1.8619,0.0,0.0,0.0,0.0,0.0,0.0,0.0,1.5992,1.7814,1.579,1.4303,1.5545,1.2952,1.2182,1.6628,0.0,0.0,2.083,1.9882,1.8731,1.6797,1.6905,1.8169,2.0918,2.0177,1.9254,0.0,0.0,0.0,0.0,-0.993,0.0,0.0,0.0,-1.0081,-0.9004,0.0,-0.7379,0.0,0.0,0.0,0.0,-0.4133,-0.517,0.0,0.0,-0.7098,-0.6902,-0.5531,-0.4752,-0.3667,-0.2209,-0.1465,-0.0678,0.0228,0.1049,0.1416,0.0,0.0,0.0,0.0,0.0,0.5481,0.5688,0.6547,0.6993,0.6993,0.6993,0.7,0.707,0.7593,0.8131,0.8683,0.9002,0.9482,1.0089,0.5507,0.0,0.0,0.0,0.0,0.0,0.0,0.0,0.0,0.0,0.0,0.0,0.0,0.0,0.0,0.0,0.0,0.0,0.0,0.0,0.0,0.7575,0.0,0.0,0.0,0.0,0.0,0.0,0.0,0.0,0.0,1.3333,1.1738,1.3753,1.6212,1.8588,0.0,0.0,0.0,0.0,2.0641,2.1598,2.3134,2.2244,1.6965,1.7865,1.9014,1.8463,0.0,0.0,1.8702,2.0233,2.0454,1.711,2.0776,2.3759,2.2314,2.0224,1.8744,1.8842,1.893,1.8973,1.9353,2.134,2.2914,-1.2558,0.0,0.0,0.0,0.0,-1.0849,-1.1181,-1.2174,-1.1427,-1.0626,-0.9819,-0.8957,0.0,0.0,0.0,0.0,0.0,0.0,-0.6415,-0.7042,-0.6865,-0.6573,-0.6249,-0.5541,-0.4131,-0.2222,-0.2007,-0.0998,0.0649,0.0948,0.136,0.186,0.0,0.0,0.0,0.0,0.6259,0.5781,0.6553,0.6993,0.6993,0.6993,0.721,0.7621,0.7808,0.816,0.8675,0.8797,0.866,0.8312,0.8188,0.0,0.0,0.0,0.0,0.0,0.0,0.0,0.0,0.0,0.0,0.0,0.0,0.0,0.0,0.0,0.0,0.0,0.0,0.0,0.5843,0.8557,0.9831,0.0,0.0,0.0,0.0,0.0,0.0,0.0,0.0,0.0,1.509,1.6696,1.7953,0.0,0.0,1.9927,2.025,2.0288,2.0641,2.1654,2.3171,0.0,2.2042,2.038,2.0031,2.2116,2.3052,2.3281,2.2575,2.3052,2.3153,2.1987,2.3125,2.4053,2.3594,2.2109,2.116,2.1774,2.1974,2.225,2.3007,2.3869,2.4424,-1.5299,-1.3815,-1.2705,-1.268,-1.3288,-1.2483,-1.2724,-1.3629,-1.2839,-1.2007,-1.122,-1.0476,-0.9371,-0.7988,-0.6926,0.0,0.0,0.0,-0.7574,-0.8364,-0.7688,-0.724,-0.7004,-0.6281,-0.4933,-0.3076,-0.2486,-0.1406,0.0136,0.0703,0.1308,0.1923,0.0,0.375,0.4582,0.6086,0.6707,0.6453,0.7026,0.7416,0.7502,0.763,0.7835,0.8201,0.8411,0.8704,0.9019,0.9219,0.9115,0.8645,0.9206,0.8809,0.0,0.0,0.0,0.0,0.0,0.0,0.0,0.0,0.0,0.0,0.0,1.1839,1.1011,0.0,0.0,0.0,0.9756,0.8994,0.8651,1.1247,0.0,0.0,0.0,0.0,0.0,0.0,0.0,1.8504,1.8003,1.7638,1.7984,1.8888,1.9311,1.8792,1.8481,1.8769,2.0115,0.0,2.0695,2.1794,2.3233,2.4199,2.4181,2.2538,2.1932,2.3841,2.4199,2.4199,2.4199,2.4199,2.4199,2.4199,2.4199,2.4199,2.4199,2.3382,2.2939,2.3624,2.3758,2.4041,2.474,2.4937,2.5022,-1.7903,-1.7247,-1.467,-1.4174,-1.4938,-1.4337,-1.4298,-1.4652,-1.4003,-1.302,-1.1888,-1.1814,-1.0983,-0.9559,-0.8758,0.0,-0.9575,-0.8904,-0.9017,-0.9762,-0.9106,-0.8401,-0.767,-0.6934,-0.5837,-0.4361,-0.2898,-0.1828,-0.1026,0.033,0.1254,0.1748,0.2904,0.4376,0.607,0.6442,0.6898,0.7414,0.7659,0.7969,0.8335,0.8688,0.8831,0.8827,0.9283,0.9534,0.9507,0.9961,1.0244,1.0186,0.917,0.9097,1.0242,0.0,0.0,0.0,0.0,0.0,0.0,0.0,0.0,0.0,0.0,0.0,0.0,0.0,0.0,1.4882,1.5582,0.0,1.3998,1.4723,0.0,0.0,0.0,0.9301,0.6423,1.4511,2.0277,2.0288,0.0,0.0,2.0212,2.0285,2.03,2.0288,1.7596,1.6635,1.95,2.0018,2.0723,2.2241,2.3436,2.4181,2.4199,2.4025,2.3951,2.4163,2.4199,2.4199,2.4199,2.4199,2.4199,2.4199,2.4199,2.4218,2.4228,2.4173,2.4284,2.4439,2.4483,2.4588,2.491,2.4986,2.504,-1.8129,-1.7953,-1.73,-1.6685,-1.6036,-1.4981,-1.4609,-1.4606,-1.3563,-1.2934,-1.2608,-1.2055,-1.1309,-1.049,-1.0256,-1.0281,-1.0458,-0.9778,-0.9615,-0.9762,-0.9113,-0.8401,-0.767,-0.6966,-0.5806,-0.4365,-0.2902,-0.1826,-0.1087,-0.0191,0.1151,0.2849,0.3185,0.4111,0.563,0.6397,0.6806,0.6954,0.702,0.762,0.8745,0.9787,1.015,0.9763,0.9879,0.9806,0.9516,0.9637,0.9705,0.9696,0.9801,1.0149,1.0769,0.9144,0.0,0.0,0.0,0.0,0.0,0.0,0.0,0.0,0.0,1.3515,1.9819,0.0,1.2815,0.0,1.809,1.6797,1.3352,1.4832,0.0,0.0,1.4174,1.3842,1.4634,1.7906,2.0126,2.0277,2.0115,2.0077,2.0288,2.0161,2.0143,2.0257,1.9596,1.8462,1.6878,1.8267,2.0659,2.3448,2.4156,2.4199,2.4199,2.4199,2.4199,2.4199,2.4199,2.4199,2.4199,2.4199,2.4199,2.4199,2.4199,2.4266,2.4471,2.4479,2.4512,2.4662,2.4599,2.4567,2.4806,2.4936,2.5003,-1.8781,-1.852,-1.8203,-1.7579,-1.6704,-1.5763,-1.5069,-1.4504,-1.3569,-1.3057,-1.2881,-1.2486,-1.2089,-1.1751,-1.1742,-1.1559,-1.1216,-1.0568,-1.009,-0.9762,-0.9113,-0.856,-0.8156,-0.7101,-0.6167,-0.5307,-0.3222,-0.198,-0.1563,-0.0531,0.0949,0.2775,0.3157,0.4053,0.5475,0.6318,0.672,0.6719,0.7771,0.8688,0.9463,1.0583,1.075,0.9927,1.0246,1.0077,0.931,0.9666,0.9591,0.9039,0.9291,0.9672,1.0102,0.9307,0.9012,0.0,0.0,0.0,0.0,0.0,0.0,0.0,0.0,0.0,0.0,0.0,1.5967,1.68,1.8436,1.8009,1.4493,1.639,1.7662,1.7212,1.7082,1.7385,1.8321,1.9346,2.0084,2.0292,2.0288,2.0273,2.0169,2.0069,2.0031,2.0065,2.013,1.9526,1.7991,1.8606,2.0546,2.388,2.4358,2.4199,2.4199,2.4199,2.4199,2.4199,2.4199,2.4228,2.4321,2.4247,2.4238,2.4409,2.4428,2.4445,2.465,2.4673,2.4682,2.4816,2.4809,2.4762,2.4871,2.4943,2.5016,-1.9331,-1.8783,-1.8126,-1.7535,-1.7012,-1.6458,-1.5564,-1.4445,-1.3845,-1.3389,-1.3037,-1.3057,-1.2993,-1.2914,-1.2954,-1.2537,-1.1712,-1.1082,-1.044,-0.9762,-0.9113,-0.8778,-0.8752,-0.7396,-0.6696,-0.6475,-0.3715,-0.2286,-0.2148,-0.0727,0.0755,0.2174,0.283,0.3871,0.5249,0.5977,0.6426,0.6613,0.8783,0.9922,1.0049,1.1006,1.0929,0.9806,1.0585,1.0508,0.9336,0.9961,0.9853,0.8718,0.8704,0.8943,0.9413,0.9679,0.9874,0.0,1.1125,0.0,0.0,0.0,0.0,0.0,0.0,0.0,0.0,1.8928,1.7459,1.4995,1.7882,1.8952,1.6712,1.8491,1.9732,1.9649,1.9799,1.9762,1.9408,1.9719,2.003,2.0212,2.0229,2.0171,1.9998,1.9973,1.9906,1.9855,1.9912,1.9945,2.009,1.9693,2.0502,2.3575,2.4116,2.4218,2.4284,2.4266,2.4275,2.4284,2.4312,2.433,2.4501,2.4384,2.4366,2.4662,2.4678,2.4678,2.4778,2.4832,2.4883,2.4998,2.5028,2.5022,2.5034,2.5059,2.5094,-1.8496,-1.7863,-1.7705,-1.7252,-1.6599,-1.6509,-1.5896,-1.4919,-1.4278,-1.3938,-1.386,-1.3876,-1.3532,-1.2949,-1.3253,-1.2672,-1.1374,-1.0979,-1.044,-0.9762,-0.9106,-0.8778,-0.8752,-0.791,-0.7182,-0.6475,-0.4204,-0.2805,-0.2176,-0.0727,0.0755,0.2176,0.2341,0.2975,0.4082,0.0,0.0,0.0,0.7691,0.8535,0.9145,1.038,1.0752,1.0215,1.1326,0.0,1.0595,1.0703,1.0527,0.999,1.0321,0.0,0.0,0.0,0.0,0.0,0.0,0.0,0.0,0.0,0.0,0.0,1.5944,1.5755,1.9225,1.9555,1.8453,1.6086,1.8234,1.9617,1.9149,1.9407,1.9669,1.9744,1.9572,1.9485,1.967,1.9676,1.9737,1.9877,1.9893,1.9888,1.9836,1.975,1.9701,1.9767,1.9813,1.9899,2.0011,1.9838,2.052,2.2507,2.3713,2.4293,2.4639,2.4534,2.4503,2.4631,2.4693,2.4693,2.4723,2.4607,2.452,2.4647,2.4745,2.4852,2.4885,2.4905,2.5004,2.5208,2.5248,2.5253,2.5248,2.5253,2.5259,-1.8286,-1.7578,-1.7191,-1.6838,0.0,-1.6122,-1.5697,-1.5227,-1.4678,-1.4109,-1.353,-1.3934,-1.344,-1.2346,-1.2932,-1.2404,-1.0993,-1.0676,-1.0185,-0.9475,-0.9024,-0.8778,-0.8778,-0.8049,-0.7316,-0.6529,-0.4368,-0.2938,-0.2147,-0.0335,0.1118,0.2176,0.2565,0.339,0.4625,0.5598,0.6261,0.6588,0.8029,0.9147,0.984,1.083,1.111,1.0664,1.1628,0.0,0.0,0.0,0.0,0.0,0.0,0.0,0.0,1.0812,1.1291,1.2894,1.3763,1.4097,1.3903,1.5208,1.6794,1.8415,1.7329,1.7287,1.9075,1.9198,1.8735,1.7642,1.8682,1.9462,1.9533,1.9476,1.9462,1.9526,1.9398,1.9387,1.9525,1.9504,1.9479,1.9553,1.9676,1.9786,1.972,1.9637,1.957,1.9553,1.9644,1.9688,1.9657,1.975,2.0671,2.3204,2.3984,2.4425,2.4723,2.4731,2.467,2.4782,2.4804,2.4828,2.4903,2.4785,2.4738,2.4896,2.5043,2.5088,2.5094,2.5135,2.5173,2.5269,2.5308,2.5308,2.5308,2.5308,2.5308,-1.8102,-1.7375,-1.6686,-1.6407,-1.6378,-1.5701,-1.542,-1.5391,-1.5039,0.0,0.0,-1.3839,-1.323,-1.1801,-1.2492,-1.1982,-1.0602,-1.0435,-0.9992,-0.9277,-0.8991,-0.8858,-0.8851,-0.8068,-0.7316,-0.6502,-0.4337,-0.2938,-0.2119,0.0028,0.1481,0.2202,0.2952,0.4055,0.5494,0.6951,0.7399,0.6902,0.8552,0.9728,1.0285,1.1047,1.1232,1.0741,1.1778,1.2019,1.1401,1.2069,1.1995,1.1092,1.11,1.1171,1.1219,1.1527,1.2585,1.4485,1.5492,1.6235,1.6776,1.7602,1.827,1.8576,1.8508,1.8529,1.8699,1.8643,1.8697,1.8896,1.8931,1.9,1.9146,1.9162,1.917,1.918,1.9251,1.9279,1.9305,1.9279,1.9312,1.9327,1.9533,1.9651,1.9569,1.9541,1.9499,1.9383,1.9499,1.9562,1.9504,1.9949,2.1349,2.4011,2.4593,2.4631,2.484,2.4849,2.4842,2.4896,2.4915,2.4929,2.5005,2.4975,2.5019,2.5217,2.5308,2.5284,2.5284,2.5279,2.5308,2.5308,2.5308,2.5308,2.5308,2.5308,2.5308,-1.7501,-1.6794,-1.6336,-1.6147,-1.6128,-1.5596,-1.542,-1.5381,-1.5342,-1.4839,-1.401,-1.4136,-1.3308,-1.1798,-1.2266,-1.1639,-1.0244,-1.0516,-1.0286,-0.9599,-0.9284,-0.9151,-0.9083,-0.8153,-0.7321,-0.6475,-0.4365,-0.2941,-0.2034,0.0056,0.148,0.2202,0.2926,0.4058,0.5506,0.6956,0.7638,0.7545,0.7964,0.8233,0.8317,0.9523,1.0129,1.0119,1.1853,1.2563,1.2105,1.2184,1.2258,1.2263,1.2636,1.3068,1.3567,1.3628,1.4146,1.5072,1.5195,1.5649,1.6725,1.7417,1.8003,1.8508,1.8194,1.804,1.8346,1.851,1.8614,1.8669,1.8651,1.8678,1.868,1.8707,1.8717,1.8744,1.9056,1.9289,1.9274,1.9248,1.9256,1.9297,1.9342,1.9369,1.9365,1.935,1.935,1.9335,1.9478,1.9629,1.9863,2.0887,2.2471,2.4252,2.4782,2.4902,2.5091,2.5065,2.5047,2.5198,2.5198,2.5206,2.5219,2.5222,2.5222,2.5298,2.5308,2.5308,2.5308,2.5308,2.5308,2.5308,2.5308,2.5308,2.5308,2.5308,2.5308,-1.7378,-1.6709,-1.6514,-1.6426,-1.6387,-1.5957,-1.5388,-1.4776,-1.477,-1.4309,-1.358,-1.3528,-1.2641,-1.1257,-1.1806,-1.1441,-1.0372,-1.037,-1.0203,-0.9893,-0.9619,-0.9364,-0.9128,-0.8352,-0.7504,-0.6507,-0.4365,-0.2938,-0.2006,0.0418,0.187,0.2286,0.3696,0.5019,0.6086,0.7154,0.7694,0.7711,0.817,0.8557,0.8914,0.9517,1.0164,1.0896,1.187,1.2575,1.3043,1.3067,1.3118,1.3238,1.3452,1.372,1.4034,1.4251,1.4802,1.5764,1.583,1.5951,1.6234,1.7191,1.7871,1.8125,1.7938,1.785,1.8001,1.8114,1.8229,1.8361,1.8381,1.845,1.8576,1.8595,1.8595,1.8595,1.8699,1.8807,1.8886,1.8816,1.8893,1.9201,1.9206,1.9182,1.9282,1.9279,1.9279,1.9312,1.9478,1.9656,1.9804,2.0947,2.25,2.4339,2.4835,2.493,2.5118,2.5182,2.5203,2.5298,2.5308,2.5308,2.5308,2.5308,2.5308,2.5308,2.5308,2.5308,2.5308,2.5308,2.5308,2.5308,2.5308,2.5308,2.5308,2.5308,2.5308,-1.7525,-1.6989,-1.6892,-1.6794,-1.6636,-1.6096,-1.5277,-1.433,-1.3889,-1.3327,-1.2781,-1.2743,-1.1933,-1.0726,-1.1257,-1.1195,-1.0622,-1.0321,-1.0214,-1.0187,-0.9913,-0.9659,-0.9319,-0.8464,-0.75,-0.6494,-0.4247,-0.2747,-0.1922,0.078,0.2397,0.2896,0.4741,0.595,0.634,0.7262,0.7696,0.7723,0.8262,0.887,0.9543,0.9718,1.0312,1.1266,1.1657,1.2282,1.3283,1.3508,1.3681,1.3883,1.3872,1.3958,1.4157,1.4478,1.5088,1.599,1.6326,1.6437,1.6425,1.7216,1.7799,1.7789,1.7658,1.7577,1.7577,1.7577,1.7698,1.7954,1.7963,1.8076,1.8242,1.8353,1.842,1.841,1.8283,1.8255,1.8381,1.8283,1.8348,1.885,1.8983,1.9069,1.9198,1.9274,1.9279,1.932,1.965,1.992,1.9967,2.0897,2.2521,2.4007,2.4783,2.4955,2.5053,2.5198,2.5298,2.5308,2.5308,2.5308,2.5308,2.5308,2.5308,2.5308,2.5308,2.5308,2.5308,2.5308,2.5308,2.5308,2.5308,2.5308,2.5308,2.5308,2.5308,-1.7939,-1.7832,-1.7471,-1.709,-1.6583,-1.5508,-1.4963,-1.4546,-1.2891,-1.1997,-1.1926,-1.1898,-1.1432,-1.0694,-1.0681,-1.0681,-1.0586,-1.0559,-1.0539,-1.0506,-1.0214,-1.006,-0.9774,-0.8103,-0.7164,-0.6633,-0.3837,-0.2324,-0.1984,0.0807,0.2926,0.4291,0.5769,0.6172,0.5869,0.7015,0.7696,0.7696,0.7777,0.8156,0.8877,0.9484,0.9865,0.9994,1.1166,1.1839,1.2086,1.2623,1.3252,1.3739,1.3788,1.4057,1.4553,1.4716,1.4994,1.55,1.6029,1.6766,1.7792,1.7876,1.7808,1.7752,1.7261,1.6978,1.6965,1.6904,1.7043,1.7308,1.7392,1.7446,1.7434,1.7704,1.7916,1.7938,1.7894,1.7867,1.7894,1.785,1.7855,1.7927,1.8566,1.9027,1.9052,1.918,1.9308,1.9426,2.018,2.0615,2.0318,2.1174,2.2595,2.3905,2.4582,2.4949,2.5152,2.5269,2.5308,2.5308,2.5308,2.5308,2.5308,2.5308,2.5308,2.5308,2.5308,2.5308,2.5308,2.5308,2.5308,2.5308,2.5308,2.5308,2.5308,2.5308,2.5308,-1.8008,-1.7988,-1.7822,-1.7149,-1.6206,-1.5687,-1.4785,-1.3518,-1.2701,-1.1949,-1.1364,-1.1326,-1.1067,-1.0593,-1.0586,-1.0586,-1.0586,-1.0586,-1.0586,-1.0586,-1.0434,-1.0027,-0.9248,-0.8056,-0.7146,-0.626,-0.3674,-0.2135,-0.123,0.1403,0.3616,0.4944,0.5304,0.5605,0.6118,0.6745,0.7262,0.7696,0.8129,0.8487,0.8778,0.9061,0.9413,0.984,1.0712,1.1416,1.1823,1.251,1.3017,1.3262,1.3286,1.3539,1.4143,1.4189,1.4763,1.5911,1.706,1.7544,1.7331,1.7671,1.7884,1.7802,1.7559,1.7393,1.7367,1.6858,1.6567,1.6722,1.7076,1.7292,1.732,1.7612,1.7789,1.7789,1.7789,1.7789,1.7789,1.7789,1.7789,1.7833,1.8218,1.8678,1.8949,1.9156,1.9494,1.99,2.0603,2.0946,2.1193,2.1821,2.2682,2.3869,2.4364,2.4628,2.4949,2.5182,2.5264,2.5308,2.5308,2.5308,2.5308,2.5308,2.5308,2.5308,2.5308,2.5308,2.5308,2.5308,2.5308,2.5308,2.5308,2.5308,2.5308,2.5308,2.5308,-1.7837,-1.7613,-1.7364,-1.6654,-1.5718,-1.5333,-1.43,-1.2927,-1.2498,-1.1855,-1.1156,-1.1109,-1.0943,-1.0734,-1.0633,-1.0586,-1.0586,-1.0586,-1.0586,-1.0555,-1.0364,-0.9769,-0.8912,-0.7825,-0.6926,-0.5853,-0.3656,-0.1727,-0.0177,0.214,0.4072,0.5079,0.4992,0.5246,0.5996,0.6344,0.6853,0.7396,0.8129,0.8586,0.8758,0.8778,0.9035,0.9543,1.0244,1.0847,1.1266,1.2314,1.2774,1.2618,1.2798,1.3079,1.3505,1.3708,1.4573,1.6271,1.7558,1.793,1.7124,1.7518,1.7931,1.8237,1.7912,1.7633,1.762,1.7085,1.6703,1.6762,1.7225,1.7478,1.708,1.732,1.7554,1.7647,1.7743,1.7789,1.7789,1.7789,1.7789,1.7822,1.8068,1.84,1.8914,1.9317,1.9807,2.0335,2.1019,2.1425,2.214,2.2555,2.3334,2.4082,2.4247,2.4468,2.4792,2.5043,2.5208,2.5308,2.5308,2.5308,2.5308,2.5308,2.5308,2.5308,2.5308,2.5308,2.5308,2.5308,2.5308,2.5308,2.5308,2.5308,2.5308,2.5308,2.5308,-1.7467,-1.6602,-1.5728,-1.5359,-1.5141,-1.3991,-1.3406,-1.3083,-1.2033,-1.145,-1.141,-1.1382,-1.1256,-1.0955,-1.0734,-1.06,-1.0586,-1.0586,-1.0555,-1.0466,-0.9754,-0.9332,-0.9137,-0.7392,-0.6419,-0.5951,-0.3688,-0.0923,0.2052,0.3238,0.4099,0.4742,0.5322,0.5333,0.5096,0.6055,0.6642,0.6939,0.7584,0.8129,0.8699,0.8778,0.8831,0.8956,0.9736,1.0167,1.0192,1.1825,1.2559,1.1898,1.251,1.2895,1.3002,1.3515,1.4619,1.6164,1.6995,1.7572,1.7781,1.7484,1.7767,1.8948,1.7846,1.7211,1.7823,1.7597,1.7461,1.7612,1.7838,1.7616,1.6737,1.6992,1.725,1.7497,1.7696,1.7844,1.7789,1.7969,1.7805,1.7935,1.8224,1.858,1.9004,1.9704,2.0235,2.0816,2.184,2.2618,2.2393,2.3501,2.4236,2.4246,2.4393,2.467,2.4936,2.5041,2.513,2.5208,2.5259,2.5308,2.5308,2.5308,2.5308,2.5308,2.5308,2.5308,2.5308,2.5308,2.5308,2.5308,2.5308,2.5308,2.5308,2.5365,2.5375,-1.7467,-1.6523,-1.5587,-1.4843,-1.4191,-1.3726,-1.3215,-1.2632,-1.2182,-1.1877,-1.1724,-1.171,-1.1543,-1.1256,-1.0969,-1.0767,-1.06,-1.0586,-1.0301,-0.9786,-0.9434,-0.871,-0.759,-0.6873,-0.591,-0.4727,-0.3327,-0.0867,0.2241,0.329,0.4063,0.4707,0.4994,0.5363,0.5968,0.638,0.7047,0.7916,0.8289,0.856,0.8778,0.8778,0.8778,0.8831,0.9536,0.9884,0.9795,1.0948,1.1625,1.1789,1.208,1.2427,1.2944,1.3836,1.4629,1.5309,1.6235,1.6879,1.705,1.7175,1.7304,1.7531,1.7308,1.7587,1.8475,1.7954,1.7322,1.7648,1.7796,1.759,1.7486,1.7719,1.8226,1.8562,1.8715,1.8497,1.8181,1.8594,1.9208,1.9239,1.9435,1.9517,1.9446,2.0172,2.1104,2.1733,2.2492,2.2976,2.3382,2.4052,2.4366,2.4275,2.4294,2.4428,2.4643,2.4885,2.5034,2.513,2.5192,2.5269,2.5308,2.5308,2.5308,2.5308,2.5308,2.5308,2.5308,2.5308,2.5308,2.5308,2.5308,2.5308,2.5308,2.537,2.5434,-1.6541,-1.557,-1.4657,-1.3875,-1.3273,-1.3244,-1.2872,-1.2305,-1.2305,-1.2191,-1.2031,-1.2004,-1.1702,-1.1146,-1.0878,-1.0405,-0.9883,-1.0027,-0.9716,-0.8914,-0.8581,-0.7827,-0.6817,-0.6429,-0.5507,-0.3944,-0.2473,-0.0264,0.2345,0.335,0.4151,0.4917,0.5118,0.5712,0.6563,0.6943,0.7683,0.8502,0.8725,0.8778,0.8778,0.8778,0.8778,0.8857,0.9263,0.9465,0.9491,0.9917,1.0593,1.1333,1.1665,1.2138,1.291,1.386,1.4491,1.4766,1.5656,1.6303,1.6509,1.6858,1.6888,1.6561,1.6921,1.7768,1.8796,1.7941,1.7577,1.7748,1.8006,1.8074,1.821,1.8677,1.9059,1.9066,1.9022,1.8928,1.8589,1.9278,1.9752,1.99,2.0028,1.9979,1.9923,2.0834,2.1701,2.2432,2.2974,2.3639,2.4061,2.4199,2.4199,2.4199,2.4199,2.4284,2.4418,2.4625,2.4904,2.5018,2.5141,2.5243,2.5303,2.5303,2.5303,2.5303,2.5308,2.5308,2.5308,2.5308,2.5308,2.5308,2.5308,2.5308,2.5327,2.537,2.5436,-1.4665,-1.3781,-1.2732,-1.2452,-1.2445,-1.2452,-1.2335,-1.2305,-1.2305,-1.2204,-1.2054,-1.2168,-1.1436,-1.0551,-1.0307,-0.9576,-0.8628,-0.8931,-0.876,-0.7999,-0.7242,-0.6817,-0.6527,-0.5848,-0.4951,-0.378,-0.1302,0.0835,0.2634,0.3451,0.4232,0.5085,0.5892,0.6244,0.628,0.7462,0.8161,0.838,0.8695,0.8805,0.8778,0.8778,0.8778,0.8778,0.8857,0.8936,0.891,0.891,0.9581,1.0813,1.1441,1.2138,1.2837,1.3529,1.4084,1.4629,1.5287,1.5898,1.6414,1.6531,1.6586,1.6552,1.6988,1.7342,1.7766,1.7883,1.7946,1.8087,1.8427,1.8763,1.8846,1.9232,1.9288,1.8485,1.8609,1.8966,1.9617,1.9651,1.9571,1.9948,2.0119,2.0165,2.0544,2.141,2.226,2.2671,2.3409,2.4061,2.4153,2.4199,2.4199,2.4199,2.4199,2.4237,2.4294,2.4393,2.4663,2.4898,2.5078,2.5217,2.5253,2.5288,2.5259,2.5259,2.5308,2.5308,2.5308,2.5308,2.5308,2.5308,2.5308,2.5308,2.5327,2.537,2.5422,-1.3991,-1.36,-1.2696,-1.2305,-1.2305,-1.2305,-1.2305,-1.2305,-1.2305,-1.1922,-1.1347,-1.1273,-1.0668,-0.9755,-0.9427,-0.8727,-0.7771,-0.7792,-0.7552,-0.7091,-0.6826,-0.6371,-0.5851,-0.5524,-0.4586,-0.298,-0.1006,0.0939,0.2476,0.2978,0.3794,0.5176,0.6038,0.6639,0.7088,0.7992,0.8591,0.8884,0.9014,0.8991,0.8805,0.8778,0.8778,0.8778,0.8778,0.8989,0.9439,0.9028,0.9684,1.1366,1.1241,1.1658,1.2754,1.3457,1.3873,1.4167,1.5039,1.5864,1.638,1.6479,1.6457,1.6522,1.6667,1.7032,1.7491,1.7552,1.7707,1.801,1.8274,1.8458,1.8822,1.9024,1.923,1.9594,1.9647,1.9813,2.0389,2.05,2.0323,2.0088,2.0611,2.0874,2.0864,2.1766,2.2758,2.2936,2.3661,2.4142,2.419,2.4199,2.4199,2.4199,2.4199,2.4199,2.4256,2.433,2.4526,2.4737,2.4904,2.5068,2.5132,2.5222,2.5212,2.5248,2.5279,2.5308,2.5308,2.5308,2.5308,2.5308,2.5308,2.5308,2.5327,2.5364,2.5426,-1.3675,-1.3299,-1.2603,-1.2305,-1.2305,-1.2305,-1.2077,-1.1768,-1.1737,-1.1168,-1.0378,-1.0265,-0.9664,-0.885,-0.8505,-0.7851,-0.6974,-0.6758,-0.6561,-0.6377,-0.6287,-0.5974,-0.5363,-0.467,-0.3647,-0.2177,-0.0672,0.0941,0.2611,0.2744,0.3613,0.5233,0.6447,0.7216,0.7761,0.8672,0.9311,0.9473,0.9324,0.9097,0.8958,0.8838,0.8778,0.8778,0.8778,0.9133,0.971,0.9484,1.0097,1.145,1.16,1.2049,1.2847,1.3262,1.3552,1.3909,1.4526,1.5365,1.6272,1.6054,1.6086,1.6337,1.6303,1.6468,1.6988,1.7045,1.7178,1.7418,1.7679,1.7913,1.8249,1.8708,1.9163,1.9674,1.9889,2.0263,2.0634,2.06,2.0555,2.0464,2.1031,2.1241,2.1402,2.1964,2.2967,2.3093,2.3471,2.4006,2.4084,2.4199,2.4199,2.4199,2.4199,2.4199,2.4209,2.4294,2.441,2.4559,2.4704,2.484,2.4929,2.5037,2.509,2.5238,2.5308,2.5308,2.5308,2.5308,2.5308,2.5308,2.5308,2.5308,2.5327,2.539,2.5438,-1.362,-1.2782,-1.2445,-1.2251,-1.2157,-1.215,-1.1583,-1.0789,-1.0708,-1.0153,-0.9372,-0.9221,-0.8656,-0.7897,-0.7677,-0.7109,-0.6214,-0.6163,-0.6087,-0.5892,-0.5694,-0.5439,-0.5171,-0.3775,-0.2525,-0.1408,-0.0471,0.0941,0.2611,0.2711,0.3613,0.5385,0.7005,0.7952,0.8212,0.9377,1.0046,0.9943,0.9517,0.9257,0.9178,0.8951,0.8778,0.8778,0.8804,0.9106,0.971,1.0115,1.0771,1.174,1.2286,1.2593,1.2856,1.2915,1.32,1.3647,1.3768,1.4629,1.5634,1.5411,1.5299,1.6151,1.5964,1.5864,1.6475,1.6637,1.6629,1.6693,1.7034,1.7312,1.7544,1.819,1.8803,1.9024,1.9518,1.9917,2.0172,1.9971,2.0054,2.0675,2.1247,2.1535,2.1437,2.2173,2.2622,2.2792,2.3081,2.3533,2.3886,2.4054,2.417,2.4199,2.4199,2.4199,2.4199,2.4228,2.433,2.4393,2.4518,2.4615,2.4797,2.4942,2.5037,2.5171,2.5308,2.5308,2.5308,2.5308,2.5308,2.5308,2.5308,2.5308,2.5327,2.537,2.5442,-1.3217,-1.2777,-1.2703,-1.2117,-1.1254,-1.1199,-1.0602,-0.9744,-0.9707,-0.9145,-0.8351,-0.8199,-0.7668,-0.6756,-0.6718,-0.6503,-0.6273,-0.6193,-0.6228,-0.6005,-0.5155,-0.4731,-0.4426,-0.3393,-0.2254,-0.1246,-0.037,0.0941,0.2577,0.2678,0.3647,0.5425,0.7055,0.7962,0.8232,0.9598,1.0259,1.0107,0.9773,0.9417,0.9204,0.8944,0.8785,0.8778,0.8778,0.9133,0.984,1.0838,1.1466,1.174,1.1972,1.2353,1.2832,1.2915,1.3002,1.32,1.3552,1.3708,1.3954,1.4456,1.4983,1.5534,1.5577,1.5864,1.6436,1.65,1.65,1.6522,1.668,1.6888,1.7291,1.7894,1.8574,1.9369,1.9584,1.9764,1.9841,1.9785,1.9812,2.0076,2.073,2.1102,2.1383,2.2017,2.266,2.2751,2.2935,2.3206,2.3484,2.3803,2.3904,2.4141,2.4199,2.4199,2.4199,2.4199,2.4228,2.4256,2.4348,2.4436,2.4678,2.4955,2.5025,2.5122,2.5253,2.5308,2.5308,2.5308,2.5308,2.5308,2.5308,2.5308,2.5308,2.5346,2.5428,-1.3287,-1.3054,-1.2421,-1.1681,-1.0948,-1.0428,-0.9588,-0.8803,-0.8656,-0.8122,-0.7326,-0.7176,-0.683,-0.6338,-0.63,-0.63,-0.63,-0.63,-0.6022,-0.5422,-0.4421,-0.3608,-0.3008,-0.2356,-0.1697,-0.0821,0.0,0.0974,0.2412,0.2678,0.3713,0.5319,0.6761,0.7605,0.8091,0.9294,1.0198,1.0219,1.0013,0.9719,0.9404,0.9138,0.8925,0.8825,0.8804,0.9106,0.9814,1.0568,1.1191,1.1699,1.208,1.2452,1.2822,1.2915,1.2915,1.2929,1.3238,1.3238,1.3176,1.3884,1.4491,1.4789,1.505,1.5508,1.5944,1.6133,1.6173,1.6479,1.65,1.6659,1.6951,1.7456,1.8125,1.8817,1.9424,1.9672,1.9708,1.9726,1.9723,1.9907,2.043,2.1007,2.1023,2.1919,2.2371,2.255,2.2616,2.2747,2.2875,2.3254,2.3685,2.3945,2.417,2.4199,2.4199,2.4199,2.4199,2.4209,2.4284,2.4358,2.4586,2.4914,2.4999,2.5075,2.5215,2.5303,2.5308,2.5308,2.5308,2.5308,2.5308,2.5308,2.5308,2.5327,2.539,-1.3626,-1.3472,-1.1945,-1.1175,-1.0845,-0.9727,-0.8621,-0.7778,-0.7675,-0.72,-0.6532,-0.6338,-0.6374,-0.63,-0.63,-0.63,-0.63,-0.63,-0.5473,-0.4569,-0.3416,-0.2401,-0.1439,-0.1582,-0.1028,0.0,0.0,0.0,0.226,0.269,0.368,0.5216,0.633,0.7177,0.8027,0.8941,0.9748,1.0349,1.0214,0.9967,0.9713,0.9439,0.9178,0.8904,0.8818,0.9035,0.9517,0.9909,1.044,1.1641,1.2403,1.2691,1.2832,1.2915,1.2915,1.2915,1.2954,1.2954,1.2992,1.3539,1.4027,1.4202,1.4537,1.4937,1.5521,1.5801,1.6073,1.6479,1.6513,1.6586,1.6774,1.7097,1.7605,1.823,1.9024,1.9427,1.9594,1.9642,1.9723,1.9744,2.0447,2.0829,2.1197,2.1645,2.2237,2.2398,2.2453,2.2494,2.2521,2.2708,2.3259,2.3816,2.4016,2.4199,2.4199,2.4199,2.4199,2.4209,2.4312,2.4401,2.4547,2.4791,2.491,2.5025,2.5157,2.5253,2.5308,2.5308,2.5308,2.5308,2.5308,2.5308,2.5308,2.5308,2.5346,-1.3813,-1.3511,-1.2249,-1.1133,-1.0084,-0.8949,-0.7805,-0.6821,-0.6817,-0.6641,-0.6359,-0.6303,-0.63,-0.63,-0.63,-0.63,-0.6257,-0.6103,-0.5315,-0.3437,-0.2425,-0.1366,-0.0691,-0.1051,-0.0919,0.0,0.0,0.0,0.2273,0.2845,0.3616,0.5289,0.617,0.7144,0.7994,0.878,0.9722,1.0382,1.0274,1.0107,0.998,0.9733,0.9439,0.9118,0.8945,0.889,0.9087,0.951,1.0185,1.0965,1.1699,1.2427,1.2798,1.2915,1.2915,1.2915,1.2915,1.2915,1.2954,1.3138,1.3478,1.405,1.4468,1.4971,1.5562,1.6003,1.6281,1.6513,1.6534,1.6659,1.6951,1.7188,1.7463,1.7907,1.823,1.857,1.8848,1.9352,1.9675,1.9818,2.0141,2.0583,2.0943,2.1385,2.184,2.2166,2.2313,2.2313,2.2313,2.2313,2.2841,2.3551,2.3996,2.418,2.4199,2.4199,2.4199,2.4199,2.4294,2.4348,2.4505,2.4645,2.4761,2.4934,2.5134,2.5212,2.5284,2.5308,2.5308,2.5308,2.5308,2.5308,2.5308,2.5308,2.5308,-1.2826,-1.2086,-1.091,-0.9962,-0.9188,-0.804,-0.7137,-0.6668,-0.658,-0.6498,-0.6422,-0.6399,-0.6364,-0.6303,-0.63,-0.63,-0.5983,-0.516,-0.4217,-0.289,-0.1682,-0.0549,-0.0235,-0.0504,0.0,0.0,0.0,0.0,0.223,0.2854,0.363,0.5263,0.591,0.6789,0.7827,0.8484,0.9364,1.0351,1.0445,1.0267,1.01,0.9973,0.9646,0.9327,0.9226,0.9283,0.9368,1.0261,1.0686,1.1049,1.1733,1.2452,1.2798,1.2915,1.2915,1.2915,1.2915,1.2915,1.2915,1.2954,1.3262,1.4003,1.4456,1.4983,1.5454,1.5908,1.6216,1.6436,1.6522,1.665,1.6888,1.6909,1.7118,1.725,1.7374,1.7618,1.8309,1.9145,1.9723,1.9797,2.0072,2.0365,2.0715,2.1086,2.1476,2.184,2.2282,2.2313,2.2313,2.2366,2.2664,2.3248,2.3855,2.4161,2.419,2.4199,2.4199,2.4209,2.4256,2.4275,2.4339,2.4461,2.4583,2.4835,2.5078,2.5228,2.5308,2.5308,2.5308,2.5308,2.5308,2.5308,2.5308,2.5308,2.5308,-1.1466,-1.0509,-0.9222,-0.8734,-0.8496,-0.7372,-0.6805,-0.6736,-0.6732,-0.6651,-0.6529,-0.6508,-0.6477,-0.6361,-0.6344,-0.6291,-0.5553,-0.4217,-0.3163,-0.2501,-0.0979,0.0,0.0,0.0,0.0,0.0,0.0,0.0,0.2279,0.2833,0.3682,0.5142,0.5399,0.6276,0.7442,0.8027,0.8807,1.0066,1.0465,1.0466,1.0261,1.018,0.989,0.9563,0.9424,0.9674,0.9926,1.0624,1.1208,1.104,1.2098,1.2666,1.2881,1.2915,1.2915,1.2915,1.2915,1.2915,1.2915,1.2929,1.32,1.392,1.4445,1.488,1.5298,1.5732,1.6129,1.6337,1.6534,1.6534,1.6522,1.6586,1.6565,1.6586,1.6543,1.7013,1.7973,1.9043,1.9617,1.9744,1.9927,2.0156,2.0398,2.0715,2.1118,2.1521,2.1974,2.2313,2.2313,2.2352,2.2615,2.3037,2.3646,2.4103,2.419,2.4199,2.4199,2.4209,2.4228,2.4237,2.4219,2.4303,2.4476,2.4809,2.5036,2.5187,2.5279,2.5308,2.5308,2.5308,2.5308,2.5308,2.5308,2.5308,2.5308,-1.0783,-1.0481,-0.9369,-0.8887,-0.8661,-0.7552,-0.6943,-0.6902,-0.6849,-0.6803,-0.6675,-0.6661,-0.662,-0.6508,-0.6474,-0.5932,-0.4979,-0.3707,-0.2695,-0.1917,0.0,0.0,0.0,0.0,0.0,0.0,0.0,0.0,0.2425,0.2861,0.3885,0.5183,0.5467,0.6065,0.699,0.7632,0.8549,0.9779,1.0301,1.0533,1.0492,1.0388,1.0267,0.9853,0.9659,0.9767,1.0036,1.0184,1.0568,1.1516,1.1839,1.2295,1.2715,1.2856,1.2915,1.2915,1.2915,1.2915,1.2915,1.2905,1.2978,1.332,1.4095,1.4686,1.5107,1.5744,1.6272,1.638,1.6479,1.6479,1.6513,1.6513,1.6513,1.6513,1.6586,1.6951,1.7973,1.8968,1.9672,1.9726,1.9836,1.9927,2.0156,2.0414,2.0781,2.1244,2.172,2.2123,2.2313,2.2313,2.2394,2.2879,2.3468,2.3894,2.4199,2.4199,2.4199,2.4199,2.4209,2.4209,2.4209,2.4199,2.4383,2.4632,2.493,2.5135,2.5214,2.5259,2.5264,2.5243,2.5264,2.5308,2.5308,2.5308,2.5308,-0.9357,-0.8746,-0.8189,-0.7973,-0.7885,-0.736,-0.7058,-0.7001,-0.6994,-0.6913,-0.6854,-0.6814,-0.6732,-0.66,-0.6535,-0.5829,-0.4672,-0.3591,-0.2579,-0.1567,0.0,0.0,0.0,0.0,0.0,0.0,0.0,0.1489,0.2827,0.3465,0.4298,0.5205,0.5542,0.6104,0.7171,0.7832,0.8742,0.9716,1.0364,1.0586,1.0566,1.0441,1.0247,1.0107,1.0025,1.0127,1.0211,1.0581,1.0745,1.1234,1.1616,1.1956,1.2344,1.2715,1.2915,1.2915,1.2915,1.2915,1.2915,1.2939,1.3089,1.3576,1.4271,1.4812,1.5265,1.5932,1.6414,1.6423,1.6139,1.6173,1.6457,1.6513,1.6513,1.6513,1.6534,1.7034,1.8007,1.9043,1.9512,1.9723,1.9762,1.9818,1.9874,2.0141,2.0499,2.0943,2.1461,2.1871,2.224,2.2313,2.2327,2.2743,2.3312,2.3792,2.4113,2.4199,2.4199,2.4199,2.4199,2.4199,2.4199,2.4199,2.4228,2.4356,2.4663,2.4962,2.5077,2.5082,2.5111,2.5187,2.5248,2.5279,2.5284,2.5308,2.5308,-0.7973,-0.7095,-0.7095,-0.7095,-0.7095,-0.7095,-0.7095,-0.7095,-0.7092,-0.7031,-0.694,-0.692,-0.6846,-0.6656,-0.6219,-0.5514,-0.4371,-0.3267,-0.2165,-0.1215,0.0,0.0,0.0,0.0,0.0,0.0,0.1446,0.2247,0.3014,0.3872,0.4848,0.559,0.579,0.6377,0.7451,0.8095,0.9183,0.9881,1.0561,1.0586,1.0526,1.0341,1.0207,1.0204,1.0461,1.0465,1.0578,1.0697,1.1042,1.1294,1.1586,1.1898,1.208,1.2584,1.2881,1.2915,1.2915,1.2915,1.2915,1.2915,1.3138,1.3552,1.4174,1.472,1.513,1.5488,1.6086,1.6173,1.5986,1.5908,1.638,1.6513,1.6586,1.6659,1.668,1.6955,1.8088,1.8993,1.9581,1.9723,1.9723,1.9744,1.98,2.0072,2.0465,2.0846,2.1369,2.1796,2.2137,2.2282,2.2377,2.2686,2.3153,2.3689,2.4016,2.419,2.4199,2.4199,2.4199,2.4199,2.4199,2.4199,2.4237,2.4247,2.4348,2.462,2.4762,2.4973,2.5116,2.5219,2.5259,2.5274,2.5303,2.5308,2.5308,-0.7228,-0.7095,-0.7095,-0.7095,-0.7095,-0.7095,-0.7095,-0.7095,-0.7095,-0.7088,-0.7055,-0.7055,-0.698,-0.6665,-0.5602,-0.4572,-0.3443,-0.2412,-0.1395,-0.0472,0.0,0.0,0.0,0.0,0.0,0.1176,0.2308,0.2888,0.344,0.4185,0.5001,0.5838,0.6319,0.692,0.7371,0.828,0.9242,0.96,1.0238,1.0586,1.0579,1.0539,1.0512,1.047,1.038,1.0418,1.069,1.0694,1.0841,1.1826,1.1786,1.2141,1.2642,1.2798,1.2905,1.2915,1.2915,1.2915,1.2915,1.2915,1.2939,1.3278,1.3659,1.3891,1.4407,1.4812,1.5287,1.5688,1.561,1.5886,1.6358,1.65,1.6731,1.6845,1.6879,1.737,1.8303,1.9101,1.9636,1.9723,1.9723,1.9723,1.9744,2.0087,2.0433,2.0846,2.1244,2.1675,2.2049,2.2225,2.2521,2.2875,2.308,2.3573,2.4006,2.417,2.419,2.419,2.419,2.4199,2.4199,2.4199,2.4199,2.4237,2.4303,2.4436,2.4674,2.493,2.5152,2.5187,2.5126,2.5182,2.5303,2.5303,2.5264,-0.7095,-0.7095,-0.7095,-0.7095,-0.7095,-0.7095,-0.7095,-0.7095,-0.7095,-0.7095,-0.7095,-0.7095,-0.7018,-0.6632,-0.5562,-0.4432,-0.3302,-0.2073,-0.1003,0.0,0.0,0.0,0.0,0.0,0.0,0.1683,0.262,0.3474,0.408,0.495,0.5781,0.5939,0.6328,0.689,0.7477,0.8315,0.9175,0.9873,1.0434,1.0586,1.0586,1.0586,1.0586,1.0586,1.0452,1.0496,1.0465,1.0387,1.0536,1.1312,1.1404,1.1842,1.2434,1.2731,1.2915,1.2915,1.2915,1.2915,1.2915,1.2915,1.2915,1.3042,1.3448,1.3954,1.4255,1.4491,1.4903,1.5555,1.561,1.5886,1.6358,1.65,1.6629,1.6786,1.7034,1.77,1.8414,1.9153,1.9723,1.9723,1.9723,1.9723,1.9723,1.9871,2.0311,2.0878,2.1245,2.1615,2.1974,2.2254,2.2638,2.3087,2.3253,2.3466,2.3896,2.4199,2.417,2.417,2.4208,2.4208,2.4199,2.4199,2.4199,2.4199,2.4237,2.4409,2.4648,2.4766,2.4871,2.4916,2.4936,2.5031,2.5138,2.5146,2.5127,-0.7095,-0.7095,-0.7095,-0.7095,-0.7095,-0.7095,-0.7095,-0.7095,-0.7095,-0.7095,-0.7095,-0.7092,-0.6903,-0.63,-0.5178,-0.3978,-0.2892,-0.1734,-0.0852,0.0,0.0,0.0,0.0,0.0,0.1019,0.1996,0.3166,0.4139,0.5079,0.577,0.611,0.6084,0.6422,0.7126,0.805,0.8738,0.9432,1.0522,1.0608,1.0593,1.0586,1.0586,1.0586,1.0586,1.0566,1.0479,1.0261,1.0144,1.0326,1.0862,1.1184,1.1668,1.2278,1.2688,1.2886,1.2915,1.2915,1.2915,1.2915,1.2915,1.2915,1.3042,1.3227,1.3659,1.3997,1.4271,1.4629,1.5208,1.5298,1.571,1.6293,1.6513,1.668,1.69,1.7201,1.7888,1.8572,1.9254,1.969,1.9723,1.9723,1.9723,1.9723,1.9723,2.012,2.0845,2.126,2.16,2.193,2.2268,2.2511,2.2895,2.3045,2.3218,2.361,2.3937,2.3996,2.4133,2.417,2.4208,2.419,2.4199,2.4199,2.4199,2.4199,2.4275,2.4442,2.4501,2.4575,2.4753,2.4881,2.4889,2.4923,2.4955,2.5057,-0.7095,-0.7095,-0.7098,-0.7098,-0.7095,-0.7095,-0.7095,-0.7095,-0.7095,-0.7051,-0.6918,-0.6915,-0.6239,-0.538,-0.4206,-0.3069,-0.1894,-0.0692,0.0,0.0,0.0,0.0,0.0,0.0826,0.1801,0.289,0.3671,0.4727,0.5864,0.6064,0.6289,0.6307,0.6599,0.7679,0.8515,0.9085,0.988,1.0679,1.072,1.0593,1.0586,1.0586,1.0586,1.0586,1.0586,1.0566,1.0539,1.0294,1.036,1.096,1.1304,1.1647,1.2281,1.2745,1.2978,1.3023,1.2925,1.2925,1.2915,1.2915,1.2915,1.2915,1.2998,1.3139,1.333,1.321,1.3658,1.4755,1.5107,1.5577,1.6151,1.6543,1.668,1.6837,1.7092,1.7491,1.8271,1.9229,1.9624,1.969,1.9723,1.9723,1.9782,1.9818,2.0189,2.0878,2.1646,2.2005,2.2049,2.2313,2.2313,2.2508,2.2673,2.291,2.3247,2.3533,2.3837,2.4036,2.4123,2.417,2.4199,2.4199,2.4199,2.4199,2.4199,2.4218,2.4256,2.4384,2.4537,2.4727,2.479,2.4719,2.4792,2.4871,2.503,-0.737,-0.7285,-0.7282,-0.7183,-0.7095,-0.7095,-0.7095,-0.7095,-0.7095,-0.665,-0.6027,-0.5304,-0.4725,-0.4061,-0.3123,-0.2298,-0.1651,-0.0565,0.0,0.0,0.0,0.0,0.0,0.0633,0.1409,0.2851,0.3671,0.4727,0.6138,0.6257,0.63,0.6419,0.6634,0.7112,0.7952,0.9155,1.0095,1.0679,1.0735,1.06,1.0586,1.0586,1.0586,1.0586,1.0586,1.0586,1.0566,1.0492,1.0588,1.0934,1.1544,1.2011,1.2384,1.2928,1.3235,1.3223,1.3076,1.2944,1.2915,1.2915,1.2915,1.2915,1.2915,1.2915,1.2978,1.3501,1.4061,1.4766,1.5332,1.5942,1.6293,1.65,1.6573,1.6689,1.6899,1.7194,1.7822,1.8787,1.9591,1.9639,1.969,1.9723,1.9818,1.9945,2.0413,2.0942,2.1706,2.2313,2.2313,2.2313,2.2313,2.2338,2.25,2.2815,2.3171,2.3466,2.3735,2.3888,2.4046,2.4142,2.4199,2.4199,2.4199,2.4199,2.4199,2.4209,2.4256,2.4348,2.4445,2.4512,2.4512,2.4469,2.4591,2.4756,2.4942,-0.7539,-0.7491,-0.7441,-0.7322,-0.7109,-0.7095,-0.7095,-0.7095,-0.7095,-0.647,-0.5359,-0.4467,-0.3619,-0.2995,-0.228,-0.1514,-0.1101,0.0,0.0,0.0,0.0,0.0,0.0,0.0601,0.1581,0.2821,0.3632,0.4688,0.6219,0.6257,0.63,0.63,0.6328,0.6798,0.7718,0.8976,1.0097,1.0484,1.0757,1.066,1.0626,1.0586,1.0586,1.0586,1.0586,1.0586,1.0586,1.0553,1.0559,1.0988,1.1556,1.2246,1.2677,1.3077,1.3587,1.3555,1.334,1.3047,1.2944,1.2915,1.2915,1.2915,1.2915,1.2915,1.3186,1.386,1.426,1.4732,1.5589,1.6315,1.6414,1.65,1.65,1.6616,1.6616,1.6886,1.7383,1.8168,1.9029,1.9603,1.9654,1.9741,1.9942,2.0122,2.0682,2.1182,2.1797,2.2268,2.2313,2.2313,2.2313,2.2335,2.2426,2.2773,2.3141,2.3329,2.3482,2.366,2.3837,2.4123,2.4199,2.4199,2.4199,2.4199,2.4199,2.4199,2.4256,2.434,2.4293,2.4237,2.4293,2.4423,2.4393,2.4569,2.4734,-0.7607,-0.7594,-0.7594,-0.7428,-0.7139,-0.7098,-0.7102,-0.7095,-0.6959,-0.629,-0.5228,-0.4942,-0.3685,-0.2194,-0.1567,-0.1073,0.0,0.0,0.0,0.0,0.0,0.0,0.0,0.0852,0.1637,0.3022,0.3828,0.4763,0.63,0.63,0.63,0.63,0.6335,0.6795,0.7846,0.9479,1.0149,1.0071,1.0648,1.0763,1.0693,1.0626,1.0586,1.0586,1.0586,1.0586,1.0586,1.0586,1.0586,1.0791,1.1692,1.2293,1.2585,1.3432,1.3926,1.4038,1.3695,1.334,1.2993,1.2944,1.2964,1.2925,1.2915,1.2954,1.3065,1.3552,1.4283,1.488,1.5511,1.6008,1.6259,1.6513,1.6513,1.65,1.6522,1.6616,1.7113,1.7766,1.8669,1.953,1.9672,1.9762,2.0015,2.0345,2.0927,2.1461,2.1974,2.2225,2.2282,2.2313,2.2313,2.2324,2.2374,2.2554,2.287,2.3063,2.3224,2.3403,2.366,2.3976,2.417,2.4199,2.4199,2.4199,2.4273,2.4328,2.4318,2.4328,2.463,2.4942,2.4493,2.4431,2.4377,2.4607,2.5081,-0.7831,-0.7743,-0.774,-0.7628,-0.7441,-0.7333,-0.7238,-0.6969,-0.6281,-0.5343,-0.4198,-0.3459,-0.2203,-0.0987,0.0,0.0,0.0,0.0,0.0,0.0,0.0,0.0,0.0,0.0,0.0,0.2754,0.3673,0.4693,0.63,0.6296,0.63,0.63,0.6335,0.6876,0.7761,0.8913,0.948,1.0184,1.0693,1.0929,1.0835,1.0707,1.06,1.06,1.0586,1.0586,1.0586,1.0586,1.0586,1.0681,1.16,1.2192,1.2625,1.3495,1.3979,1.4263,1.4143,1.3714,1.3457,1.335,1.3242,1.3076,1.2915,1.3065,1.3467,1.405,1.4641,1.5208,1.5766,1.6216,1.6457,1.65,1.6513,1.6513,1.65,1.65,1.6888,1.7686,1.8511,1.9295,1.9723,1.9705,1.9854,2.0191,2.0748,2.1275,2.1751,2.2152,2.2282,2.2296,2.2313,2.2313,2.2335,2.244,2.259,2.2827,2.3105,2.3357,2.3588,2.3858,2.4026,2.4123,2.4199,2.4199,2.4328,2.4456,2.4924,2.5383,2.5695,2.5786,2.5401,2.5081,2.5065,2.5511,2.6162,-0.7931,-0.7896,-0.7892,-0.7804,-0.7662,-0.7512,-0.7363,-0.709,-0.6302,-0.5122,-0.3707,-0.2738,-0.1529,0.0,0.0,0.0,0.0,0.0,0.0,0.0,0.0,0.0,0.0,0.0,0.0,0.2275,0.3154,0.4064,0.5592,0.6103,0.6257,0.63,0.63,0.6606,0.7351,0.8025,0.8885,0.9655,1.0241,1.0832,1.085,1.0854,1.07,1.0626,1.0586,1.0586,1.0586,1.0586,1.0586,1.0839,1.1351,1.202,1.2577,1.3148,1.3767,1.4222,1.4644,1.4206,1.3899,1.3936,1.3779,1.3457,1.313,1.3234,1.3755,1.4283,1.4892,1.5499,1.6163,1.638,1.65,1.6513,1.655,1.6563,1.6513,1.6513,1.6671,1.7415,1.8125,1.8945,1.9475,1.9512,1.9726,2.007,2.0483,2.0991,2.1493,2.1869,2.2251,2.2296,2.2313,2.2313,2.2313,2.2377,2.249,2.2652,2.2965,2.33,2.3634,2.3981,2.3886,2.3996,2.4094,2.4346,2.4795,2.5346,2.608,2.651,2.6521,2.6539,2.6465,2.6153,2.5897,2.6317,2.6952,-0.7988,-0.7988,-0.7988,-0.7901,-0.7811,-0.7665,-0.7516,-0.7402,-0.7159,-0.5753,-0.3616,-0.3504,-0.2158,0.0,0.0,0.0,0.0,0.0,0.0,0.0,0.0,0.0,0.0,0.0,0.0,0.1649,0.2505,0.3427,0.4745,0.5825,0.6296,0.63,0.63,0.6451,0.6777,0.7279,0.8127,0.8866,0.9962,1.0543,1.0763,1.0936,1.0828,1.0734,1.0633,1.06,1.0586,1.0586,1.0586,1.0832,1.1288,1.1648,1.2074,1.2573,1.3364,1.4216,1.5003,1.4722,1.4328,1.4404,1.4268,1.3877,1.3389,1.3439,1.3815,1.4471,1.504,1.565,1.6249,1.6374,1.6513,1.6575,1.6672,1.6622,1.6538,1.6525,1.6513,1.7047,1.7706,1.8361,1.8874,1.9188,1.9639,2.0,2.0366,2.0583,2.1102,2.1675,2.2032,2.2296,2.2313,2.2313,2.2313,2.2313,2.2449,2.2695,2.3046,2.347,2.3939,2.4264,2.4086,2.4317,2.499,2.5474,2.5695,2.6172,2.6796,2.7034,2.6998,2.709,2.7402,2.7108,2.6814,2.6943,2.7403,-0.7988,-0.7988,-0.7988,-0.7965,-0.7904,-0.7814,-0.7611,-0.7412,-0.73,-0.5935,-0.3614,-0.3582,-0.2242,0.0,0.0,0.0,0.0,0.0,0.0,0.0,0.0,0.0,0.0,0.0,0.0,0.1311,0.2109,0.2955,0.4515,0.5695,0.6219,0.63,0.63,0.63,0.6416,0.6609,0.7317,0.8191,0.9448,1.0176,1.0612,1.0818,1.083,1.0855,1.0713,1.066,1.06,1.0593,1.0586,1.0713,1.08,1.1101,1.1857,1.2604,1.3494,1.4874,1.5264,1.5156,1.4736,1.4705,1.46,1.4299,1.389,1.3946,1.4299,1.4773,1.5277,1.59,1.6593,1.6935,1.6964,1.6986,1.7074,1.7099,1.7011,1.6889,1.6876,1.7061,1.7716,1.8154,1.8643,1.9467,1.9901,2.0053,2.0363,2.0385,2.0697,2.1325,2.1811,2.2063,2.2649,2.2682,2.2665,2.2767,2.2716,2.2895,2.3261,2.3661,2.4161,2.4712,2.5023,2.5422,2.6164,2.6722,2.7126,2.7273,2.7438,2.7603,2.7776,2.8161,2.8436,2.8069,2.7805,2.7849,2.8026,-0.7988,-0.7988,-0.7988,-0.7988,-0.7971,-0.794,-0.776,-0.7572,-0.7444,-0.6,-0.3836,-0.3635,0.0,0.0,0.0,0.0,0.0,0.0,0.0,0.0,0.0,0.0,0.0,0.0,0.0,0.0905,0.1481,0.2234,0.377,0.5033,0.5709,0.63,0.63,0.63,0.6338,0.6412,0.6602,0.7469,0.8491,0.9605,1.0206,1.0612,1.0814,1.0949,1.0796,1.0767,1.0613,1.06,1.0586,1.0586,1.0586,1.0776,1.1531,1.2336,1.313,1.4362,1.5099,1.5187,1.5078,1.5039,1.4883,1.4689,1.4572,1.4567,1.48,1.52,1.576,1.635,1.7089,1.7639,1.7539,1.7476,1.7601,1.7714,1.7551,1.7388,1.7365,1.7365,1.7724,1.8142,1.8893,1.9821,2.0266,2.0359,2.0572,2.0953,2.1019,2.1059,2.152,2.1796,2.2759,2.3475,2.3359,2.3325,2.3274,2.3274,2.3624,2.4013,2.4417,2.4996,2.5661,2.6271,2.6757,2.771,2.8693,2.8546,2.8172,2.8491,2.8748,2.8987,2.8987,2.8656,2.8418,2.8528,2.8739,-0.7988,-0.7988,-0.7988,-0.7988,-0.7988,-0.7978,-0.795,-0.7739,-0.7361,-0.595,-0.4042,-0.3666,-0.2294,0.0,0.0,0.0,0.0,0.0,0.0,0.0,0.0,0.0,0.0,0.0,0.0,0.0,0.0904,0.164,0.236,0.3861,0.5475,0.6225,0.63,0.63,0.63,0.63,0.6412,0.6707,0.7477,0.8393,0.9662,1.0247,1.0554,1.086,1.0956,1.0975,1.0734,1.062,1.0586,1.0586,1.0593,1.0624,1.1327,1.2151,1.2879,1.3696,1.4776,1.5206,1.5332,1.5303,1.5332,1.5312,1.5391,1.5145,1.5222,1.5474,1.5978,1.6249,1.682,1.7399,1.7445,1.7675,1.7894,1.8111,1.8166,1.8193,1.8343,1.8552,1.9067,1.9393,1.9642,2.0506,2.1,2.1096,2.1055,2.1532,2.1451,2.1152,2.1268,2.1553,2.2903,2.4148,2.4541,2.4408,2.3883,2.3917,2.4086,2.4437,2.4895,2.5472,2.6272,2.6818,2.7277,2.8077,2.8827,2.8952,2.8858,2.8987,2.8987,2.8987,2.8987,2.8987,2.8987,2.8968,2.9003,-0.7988,-0.7988,-0.7988,-0.7988,-0.7988,-0.7988,-0.7971,-0.7816,-0.6687,-0.532,-0.3995,-0.3559,-0.2378,0.0,0.0,0.0,0.0,0.0,0.0,0.0,0.0,0.0,0.0,0.0,0.0,0.0,0.0481,0.1276,0.2669,0.4029,0.5204,0.6197,0.6303,0.63,0.63,0.63,0.63,0.6338,0.6672,0.7345,0.8369,0.9725,1.0474,1.0678,1.0792,1.1069,1.0901,1.0687,1.0633,1.0586,1.0586,1.0919,1.1524,1.2451,1.3243,1.3944,1.4717,1.5177,1.542,1.542,1.542,1.542,1.54,1.5352,1.5432,1.5691,1.5892,1.6088,1.6503,1.7108,1.7578,1.7919,1.8239,1.8536,1.877,1.9033,1.9271,1.9809,2.0375,2.0567,2.067,2.1075,2.1584,2.1784,2.1695,2.1554,2.1274,2.108,2.1193,2.1587,2.3406,2.4713,2.5847,2.5778,2.4983,2.4661,2.4898,2.5296,2.5786,2.6348,2.6849,2.7144,2.7461,2.8062,2.862,2.8803,2.8938,2.8987,2.8987,2.8987,2.8987,2.8987,2.8987,2.8987,2.8987,-0.7988,-0.7988,-0.7988,-0.7988,-0.7988,-0.7988,-0.7686,-0.7021,-0.6257,-0.4769,-0.3149,-0.2822,-0.1799,0.0,0.0,0.0,0.0,0.0,0.0,0.0,0.0,0.0,0.0,0.0,0.0,0.0,0.0,0.1026,0.2913,0.3656,0.4524,0.6028,0.6312,0.6303,0.63,0.63,0.63,0.63,0.63,0.6641,0.7284,0.8459,0.9792,1.0103,1.1022,1.1273,1.0975,1.076,1.0633,1.0586,1.0586,1.0713,1.1257,1.1934,1.2787,1.3545,1.4293,1.5021,1.5264,1.542,1.542,1.542,1.542,1.5371,1.5371,1.5624,1.5911,1.6195,1.7402,1.8092,1.83,1.8598,1.8954,1.9271,1.9321,1.9472,1.9598,1.985,2.0532,2.1172,2.1389,2.1779,2.2299,2.2787,2.2727,2.2697,2.2254,2.2089,2.1994,2.1853,2.3671,2.5189,2.6236,2.6353,2.5439,2.5406,2.5778,2.6213,2.6513,2.6648,2.6829,2.7215,2.7651,2.8129,2.8504,2.8735,2.8865,2.8968,2.8987,2.8987,2.8987,2.8987,2.8987,2.8987,2.8987,-0.7988,-0.7988,-0.7988,-0.7988,-0.7988,-0.7988,-0.7285,-0.6129,-0.5774,-0.4318,-0.2244,-0.1763,-0.0886,0.0,0.0,0.0,0.0,0.0,0.0,0.0,0.0,0.0,0.0,0.0,0.0,0.0,0.0,0.0,0.279,0.335,0.4306,0.5907,0.6333,0.632,0.6306,0.63,0.63,0.63,0.63,0.63,0.6718,0.7249,0.8571,1.0024,1.1338,1.1702,1.1168,1.0843,1.0683,1.0626,1.0633,1.0649,1.0958,1.1531,1.2112,1.2931,1.3876,1.4628,1.5167,1.542,1.542,1.542,1.542,1.541,1.541,1.5565,1.5823,1.6419,1.7643,1.8213,1.8431,1.8828,1.9179,1.9619,1.9645,1.9748,1.9799,1.9875,2.0593,2.1424,2.1932,2.2324,2.2803,2.3325,2.355,2.358,2.3595,2.3595,2.3501,2.3325,2.4041,2.5337,2.6421,2.6251,2.5812,2.5947,2.6302,2.6352,2.6536,2.664,2.6758,2.702,2.7424,2.8012,2.8361,2.8705,2.8865,2.8987,2.8987,2.8987,2.8987,2.8987,2.8987,2.8987,2.8987,-0.7988,-0.7988,-0.7988,-0.7988,-0.7988,-0.7988,-0.7235,-0.5927,-0.482,-0.3416,-0.205,-0.0837,0.0,0.0,0.0,0.0,0.0,0.0,0.0,0.0,0.0,0.0,0.0,0.0,0.0,0.0,0.0,0.0,0.2311,0.3048,0.3857,0.5127,0.6268,0.6373,0.631,0.6303,0.63,0.63,0.63,0.63,0.6567,0.7099,0.774,0.9223,1.0871,1.1004,1.0964,1.1067,1.1055,1.0961,1.074,1.0646,1.08,1.1226,1.1772,1.232,1.3265,1.4382,1.4952,1.5206,1.5235,1.542,1.542,1.542,1.541,1.541,1.5594,1.5594,1.6422,1.6733,1.7047,1.7763,1.8263,1.8994,1.9321,1.9619,1.9824,1.9901,2.0257,2.111,2.1889,2.2285,2.2711,2.3172,2.358,2.3595,2.3595,2.3595,2.3595,2.397,2.4369,2.5322,2.6367,2.6691,2.6488,2.6353,2.6539,2.6539,2.6539,2.664,2.6708,2.6708,2.7145,2.7858,2.841,2.8819,2.8938,2.8987,2.8987,2.8987,2.8987,2.8987,2.8987,2.8987,2.8987]},{"header":{"parameterUnit":"m.s-1","parameterCategory":1,"la1":31.0,"la2":29.5877,"lo1":-88.7671,"lo2":-86.6584,"dx":0.0162,"dy":0.0185,"nx":115,"ny":88,"refTime":"2023-01-05T18:00:00:Z","depth":0,"parameterNumber":3,"parameterNumberName":"V-component_of_WINDS"},"data":[0.0,0.0,0.0,0.0,0.0,0.0,0.0,0.0,0.0,0.0,0.0,0.0,0.0,0.0,0.0,0.0,0.0,0.0,0.0,0.0,0.0,0.0,0.0,0.0,0.0,0.0,0.0,0.0,0.0,0.0,0.0,0.0,0.0,0.0,0.0,0.0,0.0,0.0,0.0,0.0,0.0,0.0,0.0,0.0,0.0,0.0,0.0,0.0,0.0,0.0,0.0,0.0,0.0,0.0,0.0,0.0,0.0,0.0,0.0,0.0,0.0,0.0,0.0,0.0,0.0,0.0,0.0,0.0,0.0,0.0,0.0,0.0,0.0,0.0,0.0,0.0,0.0,0.0,0.0,0.0,0.0,0.0,0.0,0.0,0.0,0.0,0.0,0.0,0.0,0.0,0.0,0.0,0.0,0.0,0.0,0.0,0.0,0.0,0.0,0.0,0.0,0.0,0.0,0.0,0.0,0.0,0.0,0.0,0.0,0.0,0.0,0.0,0.0,0.0,0.0,0.0,0.0,0.0,0.0,0.0,0.0,0.0,0.0,0.0,0.0,0.0,0.0,0.0,0.0,0.0,0.0,0.0,0.0,0.0,0.0,0.0,0.0,0.0,0.0,0.0,0.0,0.0,0.0,0.0,0.0,0.0,0.0,0.0,0.0,0.0,0.0,0.0,0.0,0.0,0.0,0.0,0.0,0.0,0.0,0.0,0.0,0.0,0.0,0.0,0.0,0.0,0.0,0.0,0.0,0.0,0.0,0.0,0.0,0.0,0.0,0.0,0.0,0.0,0.0,0.0,0.0,0.0,0.0,0.0,0.0,0.0,0.0,0.0,0.0,0.0,0.0,0.0,0.0,0.0,0.0,0.0,0.0,0.0,0.0,0.0,0.0,0.0,0.0,0.0,0.0,0.0,0.0,0.0,0.0,0.0,0.0,0.0,0.0,0.0,0.0,0.0,0.0,0.0,0.0,0.0,0.0,0.0,0.0,0.0,0.0,0.0,0.0,0.0,0.0,0.0,0.0,0.0,0.0,0.0,0.0,0.0,0.0,0.0,0.0,0.0,0.0,0.0,0.0,0.0,0.0,0.0,0.0,0.0,0.0,0.0,0.0,0.0,0.0,0.0,0.0,0.0,0.0,0.0,0.0,0.0,0.0,0.0,0.0,0.0,0.0,0.0,0.0,0.0,0.0,0.0,0.0,0.0,0.0,0.0,0.0,0.0,0.0,0.0,0.0,0.0,0.0,0.0,0.0,0.0,0.0,0.0,0.0,0.0,0.0,0.0,0.0,0.0,0.0,0.0,0.0,0.0,0.0,0.0,0.0,0.0,0.0,0.0,0.0,0.0,0.0,0.0,0.0,0.0,0.0,0.0,0.0,0.0,0.0,0.0,0.0,0.0,0.0,0.0,0.0,0.0,0.0,0.0,0.0,0.0,0.0,0.0,0.0,0.0,0.0,0.0,0.0,0.0,0.0,0.0,0.0,0.0,0.0,0.0,0.0,0.0,0.0,0.0,0.0,0.0,0.0,0.0,0.0,0.0,0.0,0.0,0.0,0.0,0.0,0.0,0.0,0.0,0.0,0.0,0.0,0.0,0.0,0.0,0.0,0.0,0.0,0.0,0.0,0.0,0.0,0.0,0.0,0.0,0.0,0.0,0.0,0.0,0.0,0.0,0.0,0.0,0.0,0.0,0.0,0.0,0.0,0.0,0.0,0.0,0.0,0.0,0.0,0.0,0.0,0.0,0.0,0.0,0.0,0.0,0.0,0.0,0.0,0.0,0.0,0.0,0.0,0.0,0.0,0.0,0.0,0.0,0.0,0.0,0.0,0.0,0.0,0.0,0.0,0.0,0.0,0.0,0.0,0.0,0.0,0.0,0.0,0.0,0.0,0.0,0.0,0.0,0.0,0.0,0.0,0.0,0.0,0.0,0.0,0.0,0.0,0.0,0.0,0.0,0.0,0.0,0.0,0.0,0.0,0.0,0.0,0.0,0.0,0.0,0.0,0.0,0.0,0.0,0.0,0.0,0.0,0.0,0.0,0.0,0.0,0.0,0.0,0.0,0.0,0.0,0.0,0.0,0.0,0.0,0.0,0.0,0.0,0.0,0.0,0.0,0.0,0.0,0.0,0.0,0.0,0.0,0.0,0.0,0.0,0.0,0.0,0.0,0.0,0.0,0.0,0.0,0.0,0.0,0.0,0.0,0.0,0.0,0.0,0.0,0.0,0.0,0.0,0.0,0.0,0.0,0.0,0.0,0.0,0.0,0.0,0.0,0.0,0.0,0.0,0.0,0.0,0.0,0.0,0.0,0.0,0.0,0.0,0.0,0.0,0.0,0.0,0.0,0.0,0.0,0.0,0.0,0.0,0.0,0.0,0.0,0.0,0.0,0.0,0.0,0.0,0.0,0.0,0.0,0.0,0.0,0.0,0.0,0.0,0.0,0.0,0.0,0.0,0.0,0.0,0.0,0.0,0.0,0.0,0.0,0.0,0.0,0.0,0.0,0.0,0.0,0.0,0.0,0.0,0.0,0.0,0.0,0.0,0.0,0.0,0.0,0.0,0.0,0.0,0.0,0.0,0.0,0.0,0.0,0.0,0.0,0.0,0.0,0.0,0.0,0.0,0.0,0.0,0.0,0.0,0.0,0.0,0.0,0.0,0.0,0.0,0.0,0.0,0.0,0.0,0.0,0.0,0.0,0.0,0.0,0.0,0.0,0.0,0.0,0.0,0.0,0.0,0.0,0.0,0.0,0.0,0.0,0.0,0.0,0.0,0.0,0.0,0.0,0.0,0.0,0.0,0.0,0.0,0.0,0.0,0.0,0.0,0.0,0.0,0.0,0.0,0.0,0.0,0.0,0.0,0.0,0.0,0.0,0.0,0.0,0.0,0.0,0.0,0.0,0.0,0.0,0.0,0.0,0.0,0.0,0.0,0.0,0.0,0.0,0.0,0.0,0.0,0.0,0.0,0.0,0.0,0.0,0.0,0.0,0.0,0.0,0.0,0.0,0.0,0.0,0.0,0.0,0.0,0.0,0.0,0.0,0.0,0.0,0.0,0.0,0.0,0.0,0.0,0.0,0.0,0.0,0.0,0.0,0.0,0.0,0.0,0.0,0.0,0.0,0.0,0.0,0.0,0.0,0.0,0.0,0.0,0.0,0.0,0.0,0.0,0.0,0.0,0.0,0.0,0.0,0.0,0.0,0.0,0.0,0.0,0.0,0.0,0.0,0.0,0.0,0.0,0.0,0.0,0.0,0.0,0.0,0.0,0.0,0.0,0.0,0.0,0.0,0.0,0.0,0.0,0.0,0.0,0.0,0.0,0.0,0.0,0.0,0.0,0.0,0.0,0.0,0.0,0.0,0.0,0.0,0.0,0.0,0.0,0.0,0.0,0.0,0.0,0.0,0.0,0.0,0.0,0.0,0.0,0.0,0.0,0.0,0.0,0.0,0.0,0.0,0.0,0.0,0.0,0.0,0.0,0.0,0.0,0.0,0.0,0.0,0.0,0.0,0.0,0.0,0.0,0.0,0.0,0.0,0.0,0.0,0.0,0.0,0.0,0.0,0.0,0.0,0.0,0.0,0.0,0.0,0.0,0.0,0.0,0.0,0.0,0.0,0.0,0.0,0.0,0.0,0.0,0.0,0.0,0.0,0.0,0.0,0.0,0.0,0.0,0.0,0.0,0.0,0.0,0.0,0.0,0.0,0.0,0.0,0.0,0.0,0.0,0.0,0.0,0.0,0.0,0.0,0.0,0.0,0.0,0.0,0.0,0.0,0.0,0.0,0.0,0.0,0.0,0.0,0.0,0.0,0.0,0.0,0.0,0.0,0.0,0.0,0.0,0.0,0.0,0.0,0.0,0.0,0.0,0.0,0.0,0.0,0.0,0.0,0.0,0.0,0.0,0.0,0.0,0.0,0.0,0.0,0.0,0.0,0.0,0.0,0.0,0.0,0.0,0.0,0.0,0.0,0.0,0.0,0.0,0.0,0.0,0.0,0.0,0.0,0.0,0.0,0.0,0.0,0.0,0.0,0.0,0.0,0.0,0.0,0.0,0.0,0.0,0.0,0.0,0.0,0.0,0.0,0.0,0.0,0.0,0.0,0.0,0.0,0.0,0.0,0.0,0.0,0.0,0.0,0.0,0.0,0.0,0.0,0.0,0.0,0.0,0.0,0.0,0.0,0.0,0.0,0.0,0.0,0.0,0.0,0.0,0.0,0.0,0.0,0.0,0.0,0.0,0.0,0.0,0.0,0.9554,0.0,0.0,0.0,0.9289,0.0,0.0,0.0,0.0,0.0,0.0,0.0,0.0,0.0,0.0,0.0,0.0,0.0,0.0,0.0,0.0,0.0,0.0,0.0,0.0,0.0,0.0,0.0,0.0,0.0,0.0,0.0,0.0,0.0,0.0,0.0,0.0,0.0,0.0,0.0,0.0,0.0,0.0,0.0,0.0,0.0,0.0,0.0,0.0,0.0,0.0,0.0,0.0,0.0,0.0,0.0,0.0,0.0,0.0,0.0,0.0,0.0,0.0,0.0,0.0,0.0,0.0,0.0,0.0,0.0,0.0,0.0,0.0,0.0,0.0,0.0,0.0,0.0,0.0,0.0,0.0,0.0,0.0,0.0,0.0,0.0,0.0,0.0,0.0,0.0,0.0,0.0,0.0,0.0,0.0,0.0,0.0,0.0,0.0,0.0,0.0,0.0,0.0,0.0,0.0,0.0,0.0,0.0,0.0,0.0,0.0,0.0,0.0,0.0,0.0,0.9567,0.8743,0.9293,0.9172,0.8322,0.0,0.0,0.0,0.0,0.0,0.0,0.0,0.0,0.0,0.0,0.0,0.0,0.0,0.0,0.0,0.0,0.0,0.0,0.0,0.0,0.0,0.0,0.0,0.0,0.0,0.0,0.0,0.0,0.0,0.0,0.0,0.0,0.0,0.0,0.0,0.0,0.0,0.0,0.0,0.0,0.0,0.0,0.0,0.0,0.0,0.0,0.0,0.0,0.0,0.0,0.0,0.0,0.0,0.0,0.0,0.0,0.0,0.0,0.0,0.0,0.0,0.0,0.0,0.0,0.0,0.0,0.0,0.0,0.0,0.0,0.0,0.0,0.0,0.0,0.0,0.0,0.0,0.0,0.0,0.0,0.0,0.0,0.0,0.0,0.0,0.0,0.0,0.0,0.0,0.0,0.0,0.0,0.0,0.0,0.0,0.0,0.0,0.0,0.0,0.0,0.0,0.0,0.0,0.0,0.0,0.0,0.0,0.0,0.0,0.0,0.0,0.0,0.944,0.9321,0.808,0.0,0.0,0.0,0.0,0.0,0.0,0.0,0.0,0.0,0.0,0.0,0.0,0.0,0.0,0.0,0.0,0.0,0.0,0.0,0.0,0.0,0.0,0.0,0.0,0.0,0.0,0.0,0.0,0.0,0.0,0.0,0.0,0.0,0.0,0.0,0.0,0.0,0.0,0.0,0.0,0.0,0.0,0.0,0.0,0.0,0.0,0.0,0.0,0.0,0.0,0.0,0.0,0.0,0.0,0.0,0.0,0.0,0.0,0.0,0.0,0.0,0.0,0.0,0.0,0.0,0.0,0.0,0.0,0.0,0.0,0.0,0.0,0.0,0.0,0.0,0.0,0.0,0.0,0.0,0.0,0.0,0.0,0.0,0.0,0.0,0.0,0.0,0.0,0.0,0.0,0.0,0.0,0.0,0.0,0.0,0.0,0.0,0.0,0.0,0.0,0.0,0.0,0.0,0.0,0.0,0.0,0.0,0.0,0.0,0.0,0.7688,0.7638,0.8581,0.0,0.8887,0.0,0.0,0.0,0.0,0.0,0.0,0.0,0.0,0.0,0.0,0.0,0.0,0.0,0.0,0.0,0.0,0.0,0.0,0.0,0.0,0.0,0.0,0.0,0.0,0.0,0.0,0.0,0.0,0.0,0.0,0.0,0.0,0.0,0.0,0.0,0.0,0.0,0.0,0.0,0.0,0.0,0.0,0.0,0.0,0.0,0.0,0.0,0.0,0.0,0.0,0.0,0.0,0.0,0.0,0.0,0.0,0.0,0.0,0.0,0.0,0.0,0.0,0.0,0.0,0.0,0.0,0.0,0.0,0.0,0.0,0.0,0.0,0.0,0.0,0.0,0.0,0.0,0.0,0.0,0.0,0.0,0.0,0.0,0.0,0.0,0.0,0.0,0.0,0.0,0.0,0.0,0.0,0.0,0.0,0.0,0.0,0.0,0.0,0.0,0.0,0.0,0.0,0.0,0.0,0.0,0.0,0.0,0.0,0.0,0.0,0.8323,0.8334,0.8258,0.8242,0.0,0.0,0.0,0.0,0.0,0.0,0.0,0.0,0.0,0.0,0.0,0.0,0.0,0.0,0.0,0.0,0.0,0.0,0.0,0.0,0.0,0.0,0.0,0.0,0.0,0.0,0.0,0.0,0.0,0.0,0.0,0.0,0.0,0.0,0.0,0.0,0.0,0.0,0.0,0.0,0.0,0.0,0.0,0.0,0.0,0.0,0.0,0.0,0.0,0.0,0.0,0.0,0.0,0.0,0.0,0.0,0.0,0.0,0.0,0.0,0.0,0.0,0.0,0.0,0.0,0.0,0.0,0.0,0.0,0.0,0.0,0.0,0.0,0.0,0.0,0.0,0.0,0.0,0.0,0.0,0.0,0.0,0.0,0.0,0.0,0.0,0.0,0.0,0.0,0.0,0.0,0.0,0.0,0.0,0.0,0.0,0.0,0.0,0.0,0.0,0.0,0.0,0.0,0.0,0.0,0.0,0.0,0.0,0.0,0.0,0.833,0.8786,0.9218,0.8242,0.769,0.7698,0.0,0.0,0.0,0.0,0.0,0.0,0.0,0.0,0.0,0.0,0.0,0.0,0.0,0.0,0.0,0.0,0.0,0.0,0.0,0.0,0.0,0.0,0.0,0.0,0.0,0.0,0.0,0.0,0.0,0.0,0.0,0.0,0.0,0.0,0.0,0.0,0.0,0.0,0.0,0.0,0.0,0.0,0.0,0.0,0.0,0.0,0.0,0.0,0.0,0.0,0.0,0.0,0.0,0.0,0.0,0.0,0.0,0.0,0.0,0.0,0.0,0.0,0.0,0.0,0.0,0.0,0.0,0.0,0.0,0.0,0.0,0.0,0.0,0.0,0.0,0.0,0.0,0.0,0.0,0.0,0.0,0.0,0.0,0.0,0.0,0.0,0.0,0.0,0.0,0.0,0.0,0.0,0.0,0.0,0.0,0.0,0.0,0.0,0.0,0.0,0.0,0.0,0.0,0.0,0.0,0.0,0.0,0.0,0.8631,0.8105,0.8555,1.0117,0.8573,0.7694,0.0,0.0,0.0,0.0,0.0,0.0,0.0,0.0,0.0,0.0,0.0,0.0,0.0,0.0,0.0,0.0,0.0,0.0,0.0,0.0,0.0,0.0,0.0,0.0,0.0,0.0,0.0,0.0,0.0,0.0,0.0,0.0,0.0,0.0,0.0,0.0,0.0,0.0,0.0,0.0,0.0,0.0,0.0,0.0,0.0,0.0,0.0,0.0,0.0,0.0,0.0,0.0,0.0,0.0,0.0,0.0,0.0,0.0,0.0,0.0,0.0,0.0,0.0,0.0,0.0,0.0,0.0,0.0,0.0,0.0,0.0,0.0,0.0,0.0,0.0,0.0,0.0,0.0,0.0,0.0,0.0,0.0,0.0,0.0,0.0,0.0,0.0,0.0,0.0,0.0,0.0,0.0,0.0,0.0,0.0,0.0,0.0,0.0,0.0,0.0,0.0,0.0,0.0,0.0,0.0,0.0,0.0,0.0,0.0,0.6434,0.7255,0.8508,1.0102,0.8587,0.7966,0.0,0.0,0.0,0.0,0.0,0.0,0.0,0.0,0.0,0.0,0.0,0.0,0.0,0.0,0.0,0.0,0.0,0.0,0.0,0.0,0.0,0.0,0.0,0.0,0.0,0.0,0.0,0.0,0.0,0.0,0.0,0.0,0.0,0.0,0.0,0.0,0.0,0.0,0.0,0.0,0.0,0.0,0.0,0.0,0.0,0.0,0.0,0.0,0.0,0.0,0.0,0.0,0.0,0.0,0.0,0.0,0.0,0.0,0.0,0.0,0.0,0.0,0.0,0.0,0.0,0.0,0.0,0.0,0.0,0.0,0.0,0.0,0.0,0.0,0.0,0.0,0.0,0.0,0.0,0.0,0.0,0.0,0.0,0.0,0.0,0.0,0.0,0.0,0.0,0.0,0.0,0.0,0.0,0.0,0.0,0.0,0.0,0.0,0.0,0.0,0.0,0.0,0.0,0.0,0.0,0.0,0.0,0.0,0.0,0.6716,0.846,0.9795,1.062,0.906,0.8006,0.0,0.0,0.0,0.0,0.0,0.0,0.0,0.0,0.0,0.0,0.0,0.0,0.0,0.0,0.0,0.0,0.0,0.0,0.0,0.0,0.0,0.0,0.0,0.0,0.0,0.0,0.0,0.0,0.0,0.0,0.0,0.0,0.0,0.0,0.0,0.0,0.0,0.0,0.0,0.0,0.0,0.0,0.0,0.0,0.0,0.0,0.0,0.0,0.0,0.0,0.0,0.0,0.0,0.0,0.0,0.0,0.0,0.0,0.0,0.0,0.0,0.0,0.0,0.0,0.0,0.0,0.0,0.0,0.0,0.0,0.0,0.0,0.0,0.0,0.0,0.0,0.0,0.0,0.0,0.0,0.0,0.0,0.0,0.0,0.0,0.0,0.0,0.0,0.0,0.0,0.0,0.0,0.0,0.0,0.0,0.0,0.0,0.0,0.0,0.0,0.0,0.0,0.0,0.0,0.0,0.0,0.0,0.0,0.5621,0.9902,1.1693,1.2245,1.1846,0.9936,0.7793,0.0,0.0,0.0,0.0,0.0,0.0,0.0,0.0,0.0,0.0,0.0,0.0,0.0,0.0,0.0,0.0,0.0,0.0,0.0,0.0,0.0,0.0,0.0,0.0,0.0,0.0,0.0,0.0,0.0,0.0,0.0,0.0,0.0,0.0,0.0,0.0,0.0,0.0,0.0,0.0,0.0,0.0,0.0,0.0,0.0,0.0,0.0,0.0,0.0,0.0,0.0,0.0,0.0,0.0,0.0,0.0,0.0,0.0,0.0,0.0,0.0,0.0,0.0,0.0,0.0,0.0,0.0,0.0,0.0,0.0,0.0,0.0,0.0,0.0,0.0,0.0,0.0,0.0,0.0,0.0,0.0,0.0,0.0,0.0,0.0,0.0,0.0,0.0,0.0,0.0,0.0,0.0,0.0,0.0,0.0,0.0,0.0,0.0,0.0,0.0,0.0,0.0,0.0,0.0,0.0,0.0,0.0,0.0,0.0,0.7634,0.9834,1.1189,1.1518,0.9285,0.8221,0.0,0.0,0.0,0.0,0.0,0.0,0.0,0.0,0.0,0.0,0.0,0.0,0.0,0.0,0.0,0.0,0.0,0.0,0.0,0.0,0.0,0.0,0.0,0.0,0.0,0.0,0.0,0.0,0.0,0.0,0.0,0.0,0.0,0.0,0.0,0.0,0.0,0.0,0.0,0.0,0.0,0.0,0.0,0.0,0.0,0.0,0.0,0.0,0.0,0.0,0.0,0.0,0.0,0.0,0.0,0.0,0.0,0.0,0.0,0.0,0.0,0.0,0.0,0.0,0.0,0.0,0.0,0.0,0.0,0.0,0.0,0.0,0.0,0.0,0.0,0.0,0.0,0.0,0.0,0.0,0.0,0.0,0.0,0.0,0.0,0.0,0.0,0.0,0.0,0.0,0.0,0.0,0.0,0.0,0.0,0.0,0.0,0.0,0.0,0.0,0.0,0.0,0.0,0.0,0.0,0.0,0.0,0.0,0.0,0.8476,1.077,1.2349,1.2858,1.0087,0.888,0.945,0.0,0.0,0.0,0.0,0.0,0.0,0.0,0.0,0.0,0.0,0.0,0.0,0.0,0.0,0.0,0.0,0.0,0.0,0.0,0.0,0.0,0.0,0.0,0.0,0.0,0.0,0.0,0.0,0.0,0.0,0.0,0.0,0.0,0.0,0.0,0.0,0.0,0.0,0.0,0.0,0.0,0.0,0.0,0.0,0.0,0.0,0.0,0.0,0.0,0.0,0.0,0.0,0.0,0.0,0.0,0.0,0.0,0.0,0.0,0.0,0.0,0.0,0.0,0.0,0.0,0.0,0.0,0.0,0.0,0.0,0.0,0.0,0.0,0.0,0.0,0.0,0.0,0.0,0.0,0.0,0.0,0.0,0.0,0.0,0.0,0.0,0.0,0.0,0.0,0.0,0.0,0.0,0.0,0.0,0.0,0.0,0.0,0.0,0.0,0.0,0.0,0.0,0.0,0.0,0.0,0.0,0.0,0.0,1.1478,1.3979,1.5189,1.5028,1.187,0.969,0.0,0.0,0.0,0.0,0.0,0.0,0.0,0.0,0.0,0.0,0.0,0.0,0.0,0.0,0.0,0.0,0.0,0.0,0.0,0.0,0.0,0.0,0.0,0.0,0.0,0.0,0.0,0.0,0.0,0.0,0.0,0.0,0.0,0.0,0.0,0.0,0.0,0.0,0.0,0.0,0.0,0.0,0.0,0.0,0.0,0.0,0.0,0.0,0.0,0.0,0.0,0.0,0.0,0.0,0.0,0.0,0.0,0.0,0.0,0.0,0.0,0.0,0.0,0.0,0.0,0.0,0.0,0.0,0.0,0.0,0.0,0.0,0.0,0.0,0.0,0.0,0.0,0.0,0.0,0.0,0.0,0.0,0.0,0.0,0.0,0.0,0.0,0.0,0.0,0.0,0.0,0.0,0.0,0.0,0.0,0.0,0.0,0.0,0.0,0.0,0.0,0.0,0.0,0.0,0.0,0.0,0.0,0.0,0.0,1.2367,1.4237,1.4926,1.4209,1.1564,0.9996,0.0,0.0,0.0,0.0,0.0,0.0,0.0,0.0,0.0,0.0,0.0,0.0,0.0,0.0,0.0,0.0,0.0,0.0,0.0,0.0,0.0,0.0,0.0,0.0,0.0,0.0,0.0,0.0,0.0,0.0,0.0,0.0,0.0,0.0,0.0,0.0,0.0,0.0,0.0,0.0,0.0,0.0,0.0,0.0,0.0,0.0,0.0,0.0,0.0,0.0,0.0,0.0,0.0,0.0,0.0,0.0,0.0,0.0,0.0,0.0,0.0,0.0,0.0,0.0,0.0,0.0,0.0,0.0,0.0,0.0,0.0,0.0,0.0,0.0,0.0,0.0,0.0,0.0,0.0,0.0,0.0,0.0,0.0,0.0,0.0,0.0,0.0,0.0,0.0,0.0,0.0,0.0,0.0,0.0,0.0,0.0,0.0,0.0,0.0,0.0,0.0,0.0,0.0,0.0,0.0,0.0,0.0,0.0,1.1369,1.3747,1.4741,1.5168,1.5,1.2807,1.1253,0.0,0.0,0.0,0.0,0.0,0.0,0.0,0.0,0.0,0.0,0.0,0.0,0.0,0.0,0.0,0.0,0.0,0.0,0.0,0.0,0.0,0.0,0.0,0.0,0.0,0.0,0.0,0.0,0.0,0.0,0.0,0.0,0.0,0.0,0.0,0.0,0.0,0.0,0.0,0.0,0.0,0.0,0.0,0.0,0.0,0.0,0.0,0.0,0.0,0.0,0.0,0.0,0.0,0.0,0.0,0.0,0.0,0.0,0.0,0.0,0.0,0.0,0.0,0.0,0.0,0.0,0.0,0.0,0.0,0.0,0.0,0.0,0.0,0.0,0.0,0.0,0.0,0.0,0.0,0.0,0.0,0.0,0.0,0.0,0.0,0.0,0.0,0.0,0.0,0.0,0.0,0.0,0.0,0.0,0.0,0.0,0.0,0.0,0.0,0.0,0.0,0.0,0.0,0.0,0.0,0.0,0.0,0.0,1.2019,1.5225,1.5377,1.5804,1.6506,1.4712,1.2883,0.0,0.0,0.0,0.0,0.0,0.0,0.0,0.0,0.0,0.0,0.0,0.0,0.0,0.0,0.0,0.0,0.0,0.0,0.0,0.0,0.0,0.0,0.0,0.0,0.0,0.0,0.0,0.0,0.0,0.0,0.0,0.0,0.0,0.0,0.0,0.0,0.0,0.0,0.0,0.0,0.0,0.0,0.0,0.0,0.0,0.0,0.0,0.0,0.0,0.0,0.0,0.0,0.0,0.0,0.0,0.0,0.0,0.0,0.0,0.0,0.0,0.0,0.0,0.0,0.0,0.0,0.0,0.0,0.0,0.0,0.0,0.0,0.0,0.0,0.0,0.0,0.0,0.0,0.0,0.0,0.0,0.0,0.0,0.0,0.0,0.0,0.0,0.0,0.0,0.0,0.0,0.0,0.0,0.0,0.0,0.0,0.0,0.0,0.0,0.0,0.0,0.0,0.0,0.0,0.0,0.0,0.0,0.0,1.3184,1.5244,1.5917,1.6584,1.7254,1.4912,1.2897,0.0,0.0,0.0,0.0,0.0,0.0,0.0,0.0,0.0,0.0,0.0,0.0,0.0,0.0,0.0,0.0,0.0,0.0,0.0,0.0,0.0,0.0,0.0,0.0,0.0,0.0,0.0,0.0,0.0,0.0,0.0,0.0,0.0,0.0,0.0,0.0,0.0,0.0,0.0,0.0,0.0,0.0,0.0,0.0,0.0,0.0,0.0,0.0,0.2114,0.0,0.0,0.0,0.0,0.0,0.0,0.0,0.0,0.0,0.0,0.0,0.0,0.0,0.0,0.0,0.0,0.0,0.0,0.0,0.0,0.0,0.0,0.0,0.0,0.0,0.0,0.0,0.0,0.0,0.0,0.0,0.0,0.0,0.0,0.0,0.0,0.0,0.0,0.0,0.0,0.0,0.0,0.0,0.0,0.0,0.0,0.0,0.0,0.0,0.0,0.0,0.0,0.0,0.0,0.0,0.0,0.0,0.0,0.0,1.3566,1.5246,1.6105,1.6894,1.7501,1.6573,1.4696,0.0,0.0,0.0,0.0,0.0,0.0,0.0,0.0,0.0,0.0,0.0,0.0,0.0,0.0,0.0,0.0,0.0,0.0,0.0,0.0,0.0,0.0,0.0,0.0,0.0,0.0,0.0,0.0,0.0,0.0,0.0,0.0,0.0,0.0,0.0,0.0,0.0,0.0,0.0,0.0,0.0,0.0,0.0,0.0,0.0,0.0,0.0,0.0,0.0,0.0,0.0,0.0,0.0,0.0,0.0,0.0,0.0,0.0,0.0,0.0,0.0,0.0,0.0,0.0,0.0,0.0,0.0,0.0,0.0,0.0,0.0,0.0,0.0,0.0,0.0,0.0,0.0,0.0,0.0,0.0,0.0,0.0,0.0,0.0,0.0,0.0,0.0,0.0,0.0,0.0,0.0,0.0,0.0,0.0,0.0,0.0,0.0,0.0,0.0,0.0,0.0,0.0,0.0,0.0,0.0,0.0,0.0,1.362,1.3609,1.5253,1.6267,1.7089,1.7683,1.8552,1.6886,1.2542,0.0,0.0,0.0,0.0,0.0,0.0,0.0,0.0,0.0,0.0,0.0,0.0,0.0,0.0,0.0,0.0,0.0,0.0,0.0,0.0,0.0,0.0,0.0,0.0,0.0,0.0,0.0,0.0,0.0,0.0,0.0,0.0,0.0,0.0,0.0,0.0,0.0,0.0,0.1247,0.234,0.0,0.0,0.0,0.0,0.0,0.0,0.0,0.0,0.265,0.0,0.0,0.0,0.0,0.0,0.0,0.0,0.0,0.0,0.0,0.0,0.0,0.0,0.0,0.0,0.0,0.0,0.0,0.0,0.0,0.0,0.0,0.0,0.0,0.0,0.0,0.0,0.0,0.0,0.0,0.0,0.0,0.0,0.0,0.0,0.0,0.0,0.0,0.0,0.0,0.0,0.0,0.0,0.0,0.0,0.0,0.0,0.0,0.0,0.0,0.0,0.0,0.0,0.0,0.0,0.0,1.4678,1.3425,1.3561,1.5278,1.681,1.7645,1.7738,1.9054,1.7521,1.2885,0.0,0.0,0.0,0.0,0.0,0.0,0.0,0.0,0.0,0.0,0.0,0.0,0.0,0.0,0.0,0.0,0.0,0.0,0.0,0.0,0.0,0.0,0.0,0.0,0.0,0.0,0.0,0.0,0.0,0.0,0.0,0.0,0.0,0.0,0.0,0.0,0.0,0.0,0.0,0.26,0.3818,0.0,0.0,0.0,0.0,0.0,0.0,0.0,0.0,0.3072,0.0,0.0,0.0,0.0,0.0,0.0,0.0,0.0,0.0,0.0,0.0,0.0,0.0,0.0,0.0,0.0,0.0,0.0,0.0,0.0,0.0,0.0,0.0,0.0,0.0,0.0,0.0,0.0,0.0,0.0,0.0,0.0,0.0,0.0,0.0,0.0,0.0,0.0,0.0,0.0,0.0,0.0,0.0,0.0,0.0,0.0,0.0,0.0,0.0,0.0,0.0,0.0,0.0,0.0,0.0,1.1941,1.3404,1.442,1.5214,1.6894,1.7765,1.7741,1.93,1.7758,0.0,0.0,0.0,0.0,0.0,0.0,0.0,0.0,0.0,0.0,0.0,0.0,0.0,0.0,0.0,0.0,0.0,0.0,0.0,0.0,0.0,0.0,0.0,0.0,0.0,0.0,0.0,0.0,0.0,0.0,0.0,0.0,0.0,0.0,0.0,0.0,0.0,0.0,0.0,0.0,0.2198,0.3404,0.5071,0.0,0.0,0.0,0.0,0.0,0.0,0.3155,0.313,0.0,0.0,0.0,0.0,0.0,0.0,0.0,0.0,0.0,0.0,0.0,0.0,0.0,0.0,0.0,0.0,0.0,0.0,0.0,0.0,0.0,0.0,0.0,0.0,0.0,0.0,0.0,0.0,0.0,0.0,0.0,0.0,0.0,0.0,0.0,0.0,0.0,0.0,0.0,0.0,0.0,0.0,0.0,0.0,0.0,0.0,0.0,0.0,0.0,0.0,0.0,0.0,0.0,0.0,0.0,1.0851,1.3401,1.4844,1.5114,1.6833,1.7732,1.7713,1.9396,1.7841,0.0,0.0,0.0,0.0,0.0,0.0,0.0,0.0,0.0,0.0,0.0,0.0,0.0,0.0,0.0,0.0,0.0,0.0,0.0,0.0,0.0,0.0,0.0,0.0,0.0,0.0,0.0,0.0,0.0,0.0,0.0,0.0,0.0,0.0,0.0,0.0,0.0,0.0,0.0,0.0,0.0,0.285,0.452,0.3764,0.0,0.0,0.0,0.0,0.3571,0.3658,0.0,0.0,0.0,0.0,0.0,0.0,0.0,0.0,0.0,0.0,0.0,0.0,0.0,0.0,0.0,0.0,0.0,0.0,0.0,0.0,0.0,0.0,0.0,0.0,0.0,0.0,0.0,0.0,0.0,0.0,0.0,0.0,0.0,0.0,0.0,0.0,0.0,0.0,0.0,0.0,0.0,0.0,0.0,0.0,0.0,0.0,0.0,0.0,0.0,0.0,0.0,0.0,0.0,0.0,0.0,0.0,1.4063,1.3325,1.351,1.4917,1.67,1.7611,1.7641,1.9365,1.7874,0.0,0.0,0.0,0.0,0.0,0.0,0.0,0.0,0.0,0.0,0.0,0.0,0.0,0.0,0.0,0.0,0.0,0.0,0.0,0.0,0.0,0.0,0.0,0.0,0.0,0.0,0.0,0.0,0.0,0.0,0.0,0.0,0.0,0.0,0.0,0.0,0.0,0.0,0.0,0.0,0.0,0.2708,0.2982,0.2611,0.274,0.0,0.0,0.4149,0.596,0.6077,0.0,0.0,0.0,0.0,0.0,0.0,0.0,0.0,0.0,0.0,0.0,0.0,0.0,0.0,0.0,0.0,0.0,0.0,0.0,0.0,0.0,0.0,0.0,0.0,0.0,0.0,0.0,0.0,0.0,0.0,0.0,0.0,0.0,0.0,0.0,0.0,0.0,0.0,0.0,0.0,0.0,0.0,0.0,0.0,0.0,0.0,0.0,0.0,0.0,0.0,0.0,0.0,0.0,0.0,0.0,0.9397,1.2908,1.36,1.4441,1.556,1.6796,1.7658,1.8117,1.9353,1.8075,0.0,0.0,0.0,0.0,0.0,0.0,0.0,0.0,0.0,0.0,0.0,0.0,0.0,0.0,0.0,0.0,0.0,0.0,0.0,0.0,0.0,0.0,0.0,0.0,0.0,0.0,0.0,0.0,0.0,0.0,0.0,0.0,0.0,0.0,0.0,0.0,0.0,0.0,0.0,0.0,0.0,0.0,0.2664,0.2996,0.0,0.0,0.0,0.5497,0.5511,0.0,0.0,0.0,0.0,0.0,0.0,0.0,0.0,0.0,0.0,0.0,0.0,0.0,0.0,0.0,0.0,0.0,0.0,0.0,0.0,0.0,0.0,0.0,0.0,0.0,0.0,0.0,0.0,0.0,0.0,0.0,0.0,0.0,0.0,0.0,0.0,0.0,0.0,0.0,0.0,0.0,0.0,0.0,0.0,0.0,0.0,0.0,0.0,0.0,0.0,0.0,0.0,0.0,0.0,0.0,0.0,0.0,1.1541,1.377,1.5274,1.6003,1.6838,1.7667,1.8448,1.9304,0.0,0.0,0.0,0.0,0.0,0.0,0.0,0.0,0.0,0.0,0.0,0.0,0.0,0.0,0.0,0.0,0.0,0.0,0.0,0.0,0.0,0.0,0.0,0.0,0.0,0.0,0.0,0.2531,0.0,0.0,0.0,0.0,0.0,0.0,0.0,0.0,0.0,0.0,0.0,0.0,0.0,0.0,0.224,0.2446,0.3476,0.4226,0.0,0.0,0.6579,0.5392,0.6124,0.6548,0.0,0.0,0.0,0.0,0.0,0.0,0.0,0.0,0.0,0.0,0.0,0.0,0.0,0.0,0.0,0.0,0.0,0.0,0.0,0.0,0.0,0.0,0.0,0.0,0.0,0.0,0.0,0.0,0.0,0.0,0.0,0.0,0.0,0.0,0.0,0.0,0.0,0.0,0.0,0.0,0.0,0.0,0.0,0.0,0.0,0.0,0.0,0.0,0.0,0.0,0.0,0.0,0.0,0.0,1.0245,1.1434,1.3593,1.5075,1.5723,1.6692,1.7594,1.8391,1.9201,1.8108,0.0,0.0,0.0,0.0,0.0,0.0,0.0,0.0,0.0,0.0,0.0,0.0,0.0,0.0,0.0,0.0,0.0,0.0,0.0,0.0,0.0,0.0,0.0,0.0,0.0,0.0,0.0,0.0,0.0,0.0,0.0,0.0,0.0,0.0,0.0,0.0,0.0,0.0,0.0,0.0,0.0,0.2258,0.1901,0.3558,0.4521,0.0,0.5512,0.6946,0.6854,0.7366,0.7217,0.5518,0.0,0.0,0.0,0.0,0.0,0.0,0.0,0.0,0.0,0.0,0.0,0.0,0.0,0.0,0.0,0.0,0.0,0.0,0.0,0.0,0.0,0.0,0.0,0.0,0.0,0.0,0.0,0.0,0.0,0.0,0.0,0.0,0.0,0.0,0.0,0.0,0.0,0.0,0.0,0.0,0.0,0.0,0.0,0.0,0.0,0.0,0.0,0.0,0.0,0.0,0.0,0.0,0.0,1.1247,1.1263,1.4483,1.6532,1.7275,1.7594,1.8142,1.8936,1.9271,1.8841,0.0,0.0,0.0,0.0,0.0,0.0,0.0,0.0,0.0,0.0,0.0,0.0,0.0,0.0,0.0,0.0,0.0,0.0,0.0,0.0,0.0,0.0,0.0,0.0,0.0,0.0,0.0,0.0,0.3449,0.4185,0.5437,0.0,0.0,0.0,0.0,0.0,0.0,0.0,0.0,0.0,0.0,0.2427,0.2377,0.3811,0.0,0.0,0.5827,0.6204,0.6881,0.7029,0.6805,0.6106,0.568,0.0,0.0,0.0,0.0,0.0,0.0,0.0,0.0,0.0,0.0,0.0,0.0,0.0,0.0,0.0,0.0,0.0,0.0,0.0,0.0,0.0,0.0,0.0,0.0,0.0,0.0,0.0,0.0,0.0,0.0,0.0,0.0,0.0,0.0,0.0,0.0,0.0,0.0,0.0,0.0,0.0,0.0,0.0,0.0,0.0,0.0,0.0,0.0,0.0,0.0,0.0,0.0,1.1791,1.1064,1.4985,1.7411,1.8226,1.8153,1.8474,1.926,1.9279,1.9279,0.0,0.0,0.0,0.0,0.0,0.0,0.0,0.0,0.0,0.0,0.0,0.0,0.0,0.0,0.0,0.0,0.0,0.0,0.0,0.0,0.0,0.0,0.0,0.0,0.0,0.0,0.0,0.0,0.3236,0.408,0.6196,0.0,0.0,0.0,0.0,0.0,0.0,0.0,0.0,0.0,0.0,0.2607,0.2802,0.408,0.5381,0.6357,0.5827,0.5502,0.6028,0.6276,0.6299,0.5915,0.0,0.0,0.0,0.0,0.0,0.0,0.0,0.0,0.0,0.0,0.0,0.0,0.0,0.0,0.0,0.0,0.0,0.0,0.0,0.0,0.0,0.0,0.0,0.0,0.0,0.0,0.0,0.52,0.0,0.0,0.4316,0.0,0.0,0.0,0.0,0.0,0.0,0.0,0.0,0.0,0.0,0.0,0.0,0.0,0.0,0.0,0.0,0.0,0.0,0.0,0.0,0.0,0.0,1.1705,1.0971,1.4932,1.7326,1.8104,1.8115,1.8519,1.926,1.9279,1.9279,1.9216,0.0,0.0,0.0,0.0,0.0,0.0,0.0,0.0,0.0,0.0,0.0,0.0,0.0,0.0,0.0,0.0,0.0,0.0,0.0,0.0,0.0,0.0,0.0,0.0,0.0,0.0,0.1798,0.2286,0.3953,0.0,0.0,0.0,0.0,0.0,0.0,0.0,0.0,0.0,0.2388,0.259,0.2802,0.3063,0.435,0.5314,0.5375,0.5341,0.5039,0.4325,0.5301,0.581,0.0,0.0,0.0,0.0,0.0,0.0,0.0,0.0,0.0,0.0,0.0,0.0,0.0,0.0,0.0,0.0,0.0,0.0,0.0,0.0,0.0,0.0,0.0,0.0,0.0,0.0,0.0,0.9475,0.8267,0.0,0.0,0.0,0.0,0.0,0.0,0.0,0.0,0.0,0.0,0.0,1.658,1.7096,0.0,0.0,0.0,0.0,0.0,0.0,0.0,0.0,0.0,0.0,0.0,0.0,1.1981,1.1921,1.6182,1.8629,1.8886,1.8886,1.9014,1.9279,1.9279,1.9193,1.8943,0.0,0.0,0.0,0.0,0.0,0.0,0.0,0.0,0.0,0.0,0.0,0.0,0.0,0.0,0.0,0.0,0.0,0.0,0.0,0.0,0.0,0.0,0.0,0.0,0.0,0.1386,0.0,0.0,0.0,0.0,0.0,0.0,0.0,0.0,0.0,0.0,0.2103,0.2403,0.2605,0.2907,0.3104,0.3104,0.4363,0.5442,0.0,0.0,0.0,0.0,0.0,0.0,0.0,0.0,0.0,0.0,0.0,0.0,0.0,0.6578,0.5952,0.4422,0.3875,0.3302,0.2149,0.0,0.0,0.0,0.0,0.0,0.0,0.0,0.0,0.0,0.0,0.0,0.0,0.0,0.0,1.2448,1.161,1.1198,0.0,0.0,0.0,0.0,0.0,0.0,0.0,0.0,1.7195,1.8895,1.9977,2.0476,2.0199,1.9193,1.7489,1.4358,0.0,0.0,0.0,0.0,0.0,0.0,0.0,0.0,1.3073,1.3508,1.7277,1.9279,1.9279,1.9279,1.9279,1.9279,1.9238,1.9058,1.8735,1.8446,1.7253,0.0,0.0,0.0,0.0,0.0,0.0,0.0,0.0,0.0,0.0,0.0,0.0,0.0,0.0,0.0,0.0,0.0,0.0,0.0,0.0,0.0,0.0,0.0,0.1333,0.0,0.0,0.0,0.0,0.0,0.0,0.0,0.0,0.0,0.195,0.238,0.2742,0.2879,0.3131,0.3293,0.3283,0.0,0.0,0.0,0.0,0.0,0.0,0.0,0.5801,0.6506,0.5728,0.5188,0.5658,0.473,0.4449,0.6052,0.0,0.0,0.6219,0.5631,0.4953,0.3551,0.3787,0.4132,0.3853,0.3558,0.3395,0.0,0.0,0.0,0.0,1.1886,0.0,0.0,0.0,1.5016,1.5097,0.0,1.5046,0.0,0.0,0.0,0.0,1.1278,1.4205,0.0,0.0,2.2685,2.4576,2.4821,2.4166,2.3999,2.4039,2.0945,1.9402,1.9022,1.3514,0.8753,0.0,0.0,0.0,0.0,0.0,1.5007,1.568,1.8048,1.9279,1.9279,1.9279,1.9297,1.9292,1.9092,1.8869,1.8622,1.8405,1.8118,1.7562,0.9563,0.0,0.0,0.0,0.0,0.0,0.0,0.0,0.0,0.0,0.0,0.0,0.0,0.0,0.0,0.0,0.0,0.0,0.0,0.0,0.0,0.1464,0.0,0.0,0.0,0.0,0.0,0.0,0.0,0.0,0.0,0.2441,0.2255,0.2533,0.2877,0.3236,0.0,0.0,0.0,0.0,0.4623,0.7463,0.8392,0.8096,0.6154,0.648,0.6921,0.672,0.0,0.0,0.6807,0.7339,0.7419,0.627,0.7562,0.8443,0.7358,0.6328,0.5419,0.4676,0.4566,0.4293,0.3718,0.3931,0.4118,1.4933,0.0,0.0,0.0,0.0,1.4495,1.5895,1.7797,1.8332,1.8267,1.7759,1.7532,0.0,0.0,0.0,0.0,0.0,0.0,1.7868,2.0235,2.1366,2.2924,2.4831,2.4739,2.4854,2.5078,2.4155,2.3436,2.2862,2.119,1.6369,0.875,0.0,0.0,0.0,0.0,1.7197,1.5937,1.8067,1.9279,1.9279,1.9279,1.9219,1.9102,1.9026,1.8878,1.8604,1.8547,1.7659,1.5798,1.4621,0.0,0.0,0.0,0.0,0.0,0.0,0.0,0.0,0.0,0.0,0.0,0.0,0.0,0.0,0.0,0.0,0.0,0.0,0.0,0.1586,0.1829,0.1833,0.0,0.0,0.0,0.0,0.0,0.0,0.0,0.0,0.0,0.2712,0.2944,0.3125,0.0,0.0,0.3514,0.3593,0.36,0.4623,0.7482,0.8405,0.0,0.8023,0.7393,0.7266,0.8049,0.839,0.8445,0.8216,0.839,0.8398,0.8003,0.8417,0.8666,0.8384,0.7721,0.7054,0.6605,0.6483,0.6301,0.5816,0.5401,0.5052,1.8192,1.6428,1.5141,1.5111,1.5977,1.6565,1.7962,1.983,2.0397,2.0537,2.0399,2.0177,1.8898,1.6747,1.5602,0.0,0.0,0.0,1.9477,2.179,2.2016,2.305,2.4629,2.4843,2.5086,2.5282,2.4425,2.4295,2.4843,2.3857,2.029,1.4364,0.0,1.3025,1.2674,1.672,1.8427,1.7729,1.937,2.0101,1.9673,1.9246,1.8973,1.8861,1.8725,1.8612,1.844,1.8341,1.7604,1.613,1.6312,1.5257,0.0,0.0,0.0,0.0,0.0,0.0,0.0,0.0,0.0,0.0,0.0,0.2248,0.2491,0.0,0.0,0.0,0.0972,0.1394,0.176,0.2123,0.0,0.0,0.0,0.0,0.0,0.0,0.0,0.3263,0.3174,0.311,0.3171,0.3331,0.3405,0.3314,0.3279,0.3331,0.357,0.0,0.447,0.6872,0.8113,0.8778,0.8771,0.8203,0.7983,0.8677,0.8778,0.8778,0.8778,0.8778,0.8778,0.8778,0.8778,0.8778,0.8778,0.851,0.8067,0.7562,0.7462,0.7207,0.6369,0.5814,0.5433,2.1335,2.0509,1.7521,1.6892,1.7882,1.8392,1.95,2.1023,2.146,2.2048,2.2656,2.2695,2.1673,1.9763,1.7567,0.0,1.9907,2.0237,2.157,2.3714,2.4036,2.4312,2.4512,2.4689,2.4911,2.5053,2.2982,2.3229,2.5409,2.3259,2.1663,2.0766,1.9729,1.8493,1.7141,1.7941,1.9147,2.058,2.1405,2.1313,2.0309,1.9286,1.8725,1.8662,1.8418,1.8267,1.8215,1.7971,1.7833,1.7777,1.5883,1.5677,1.7519,0.0,0.0,0.0,0.0,0.0,0.0,0.0,0.0,0.0,0.0,0.0,0.0,0.0,0.0,0.0195,0.1158,0.0,0.1858,0.2431,0.0,0.0,0.0,0.1797,0.114,0.2624,0.3667,0.36,0.0,0.0,0.3587,0.3622,0.3648,0.36,0.3122,0.2952,0.346,0.3778,0.4429,0.6116,0.77,0.8771,0.8778,0.8744,0.8717,0.8765,0.8778,0.8778,0.8778,0.8778,0.8778,0.8778,0.8778,0.8725,0.8699,0.862,0.848,0.7706,0.7631,0.7283,0.6009,0.5597,0.5351,2.1605,2.1395,2.0617,1.9884,1.9281,2.0063,2.0623,2.1055,2.1811,2.2234,2.2398,2.2612,2.2558,2.2305,2.1746,2.1799,2.2363,2.269,2.3141,2.3714,2.4054,2.4312,2.4512,2.47,2.4898,2.5072,2.4752,2.4933,2.5543,2.5038,2.4524,2.407,2.3792,2.1783,1.8273,2.0059,2.1261,2.1644,2.1849,2.1668,2.1048,2.0347,1.9708,1.916,1.9078,1.8786,1.8232,1.8125,1.811,1.8093,1.7411,1.7143,1.7361,1.4669,0.0,0.0,0.0,0.0,0.0,0.0,0.0,0.0,0.0,0.1465,0.345,0.0,0.1858,0.0,0.1642,0.1988,0.2445,0.3119,0.0,0.0,0.3699,0.3806,0.2712,0.3684,0.4232,0.3667,0.357,0.3563,0.36,0.3965,0.4052,0.3663,0.3477,0.3276,0.3033,0.4873,0.6242,0.6585,0.782,0.8778,0.8778,0.8778,0.8778,0.8778,0.8778,0.8778,0.8778,0.8778,0.8778,0.8778,0.8778,0.8533,0.7863,0.7836,0.767,0.7101,0.7316,0.7423,0.6502,0.59,0.5429,2.2383,2.2169,2.2379,2.1854,2.0953,2.1646,2.1874,2.1809,2.2471,2.2615,2.231,2.2467,2.2616,2.2816,2.2798,2.287,2.2996,2.3323,2.3555,2.3714,2.4054,2.4257,2.4375,2.4662,2.4852,2.4969,2.5323,2.5509,2.5558,2.5639,2.5568,2.5337,2.5253,2.3897,2.1461,2.259,2.2963,2.2413,2.2174,2.1915,2.1634,2.0715,1.9543,1.8235,1.8773,1.8464,1.7103,1.7665,1.7573,1.6605,1.6421,1.6177,1.5819,1.4263,1.2931,0.0,0.0,0.0,0.0,0.0,0.0,0.0,0.0,0.0,0.0,0.0,0.3321,0.3342,0.3521,0.3766,0.4088,0.4334,0.4404,0.4272,0.4617,0.4842,0.4824,0.4756,0.4429,0.3692,0.36,0.3689,0.3921,0.422,0.4395,0.4334,0.4118,0.3751,0.3456,0.5335,0.71,0.7529,0.8268,0.8778,0.8778,0.8778,0.8778,0.8778,0.8778,0.8699,0.8374,0.8586,0.8613,0.799,0.7996,0.7943,0.7214,0.7133,0.6961,0.6389,0.6416,0.6519,0.6172,0.5787,0.546,2.345,2.304,2.3462,2.3323,2.2885,2.3287,2.3238,2.2894,2.333,2.319,2.2581,2.2502,2.2561,2.2652,2.2494,2.2617,2.2924,2.3105,2.338,2.3714,2.4054,2.4199,2.4209,2.4575,2.4775,2.4814,2.5236,2.5484,2.5515,2.5634,2.5633,2.5493,2.5331,2.5153,2.4962,2.4898,2.4301,2.3156,2.2297,2.1836,2.1799,2.0537,1.8882,1.7027,1.8381,1.82,1.617,1.7253,1.7022,1.5061,1.4888,1.4701,1.4357,1.3823,1.2955,0.0,1.0465,0.0,0.0,0.0,0.0,0.0,0.0,0.0,0.0,0.505,0.4719,0.5163,0.5574,0.5817,0.5816,0.5587,0.5588,0.6007,0.5421,0.548,0.6565,0.5631,0.4578,0.3906,0.3818,0.4012,0.4456,0.4565,0.4848,0.5135,0.4826,0.4331,0.4019,0.5438,0.7109,0.8493,0.8778,0.8725,0.848,0.8533,0.8566,0.854,0.8401,0.8289,0.7637,0.8129,0.8182,0.7101,0.7047,0.7047,0.661,0.648,0.6204,0.5542,0.5406,0.5433,0.5378,0.5355,0.5191,2.4433,2.4756,2.4821,2.5043,2.5317,2.5422,2.4772,2.3703,2.4118,2.4203,2.4068,2.3675,2.3918,2.4482,2.3604,2.3522,2.4047,2.3478,2.338,2.3714,2.4036,2.4199,2.4209,2.4435,2.4639,2.4814,2.5119,2.5353,2.5513,2.5634,2.5633,2.5513,2.5479,2.5373,2.5238,0.0,0.0,0.0,2.1871,2.048,2.0301,1.9521,1.8623,1.7693,1.9667,0.0,1.8398,1.8538,1.8234,1.7259,1.6925,0.0,0.0,0.0,0.0,0.0,0.0,0.0,0.0,0.0,0.0,0.0,0.7119,0.6206,0.5924,0.5423,0.5009,0.4765,0.5143,0.5417,0.5423,0.5795,0.5873,0.5545,0.6124,0.6331,0.5733,0.5642,0.5497,0.5048,0.4983,0.5005,0.513,0.5524,0.5696,0.5389,0.5216,0.4961,0.4574,0.52,0.6298,0.7942,0.8514,0.8335,0.7182,0.753,0.7696,0.7208,0.6993,0.6993,0.6885,0.7289,0.7643,0.7155,0.6659,0.6167,0.6032,0.5864,0.5515,0.4814,0.4708,0.468,0.4708,0.468,0.4653,2.4712,2.5221,2.5486,2.5744,0.0,2.6244,2.5932,2.528,2.5106,2.4938,2.479,2.4566,2.4817,2.5314,2.4579,2.4609,2.5207,2.4408,2.4215,2.4522,2.4296,2.4199,2.4199,2.441,2.4599,2.4799,2.5091,2.5299,2.5496,2.5603,2.5601,2.5513,2.5477,2.5321,2.5105,2.4866,2.4768,2.4804,2.2911,2.1812,2.153,2.1027,1.9991,1.8471,2.0192,0.0,0.0,0.0,0.0,0.0,0.0,0.0,0.0,1.3562,1.2932,1.3179,1.1703,1.0336,0.9356,0.9161,0.8977,0.871,0.8173,0.7607,0.7037,0.6987,0.6773,0.6291,0.6455,0.6465,0.6182,0.6422,0.6465,0.6204,0.6656,0.6747,0.6273,0.6337,0.6352,0.6118,0.5642,0.5394,0.5701,0.598,0.6194,0.6118,0.5889,0.5739,0.5776,0.5524,0.5854,0.7205,0.7909,0.7877,0.6885,0.6858,0.7074,0.6669,0.6588,0.6421,0.6122,0.6583,0.6831,0.615,0.5523,0.5218,0.5191,0.5085,0.4893,0.4598,0.4491,0.4491,0.4491,0.4491,0.4491,2.5377,2.5881,2.6191,2.6321,2.6338,2.6589,2.6708,2.6657,2.6048,0.0,0.0,2.5756,2.5964,2.6045,2.5612,2.5768,2.6324,2.5507,2.5285,2.5576,2.4787,2.442,2.4401,2.4466,2.4599,2.4806,2.5077,2.5299,2.5498,2.5566,2.5582,2.5491,2.5415,2.5243,2.4909,2.4441,2.4391,2.4678,2.3658,2.2987,2.27,2.234,2.1125,1.9034,2.0556,2.0303,1.8025,1.9082,1.8339,1.5479,1.5208,1.4791,1.3885,1.3348,1.3555,1.4517,1.3408,1.2401,1.1829,1.0446,0.9359,0.8736,0.8878,0.8788,0.8325,0.8545,0.8521,0.807,0.8036,0.7821,0.7349,0.7308,0.7287,0.7314,0.7126,0.6993,0.6979,0.6993,0.6958,0.6915,0.6182,0.5798,0.6264,0.6349,0.6477,0.6816,0.6477,0.6285,0.6526,0.6028,0.5896,0.6602,0.7197,0.7208,0.6453,0.634,0.6367,0.615,0.6154,0.6014,0.5601,0.5823,0.5719,0.4873,0.4491,0.4515,0.4515,0.4543,0.4491,0.4491,0.4491,0.4491,0.4491,0.4491,0.4491,2.794,2.8439,2.7802,2.755,2.7516,2.6945,2.6708,2.6708,2.6573,2.6701,2.7057,2.8045,2.8296,2.7965,2.6992,2.6928,2.7489,2.6443,2.6113,2.6374,2.5595,2.5227,2.5211,2.4726,2.4618,2.4814,2.5072,2.5318,2.5485,2.5566,2.5563,2.5491,2.5438,2.5262,2.4966,2.446,2.4317,2.4489,2.2105,2.0835,2.078,2.0191,1.9719,1.9438,2.1165,2.1705,2.0705,2.084,2.0251,1.8794,1.8428,1.8027,1.7482,1.6533,1.5884,1.5338,1.4263,1.3073,1.1902,1.0752,0.9699,0.8878,0.9547,0.9795,0.9122,0.8829,0.8655,0.8582,0.8574,0.8561,0.8464,0.8403,0.8382,0.837,0.7579,0.7021,0.7063,0.7077,0.7056,0.7,0.6873,0.674,0.681,0.6852,0.6852,0.6894,0.6541,0.6072,0.5837,0.6162,0.6523,0.6612,0.6669,0.6209,0.5391,0.5328,0.541,0.4869,0.4869,0.4928,0.4759,0.4846,0.4846,0.4546,0.4491,0.4491,0.4491,0.4491,0.4491,0.4491,0.4491,0.4491,0.4491,0.4491,0.4491,2.8498,2.8941,2.8602,2.845,2.8383,2.7638,2.7199,2.7003,2.6783,2.7054,2.7689,2.8603,2.8899,2.867,2.7982,2.7965,2.84,2.7463,2.7108,2.7181,2.6429,2.5815,2.5423,2.5236,2.5032,2.4825,2.5072,2.5299,2.5488,2.5524,2.5537,2.5484,2.5298,2.5089,2.4872,2.4545,2.4402,2.4458,2.3151,2.2364,2.2203,2.1888,2.1551,2.1213,2.2091,2.217,2.1442,2.1428,2.0891,1.9765,1.9573,1.9146,1.8331,1.7638,1.6841,1.5972,1.4698,1.3563,1.2627,1.1111,1.006,0.9637,1.002,1.0176,0.9825,0.9657,0.9439,0.9179,0.9139,0.8999,0.8736,0.8695,0.8695,0.8695,0.8374,0.8129,0.7992,0.8108,0.7874,0.7203,0.7301,0.7363,0.7042,0.6993,0.6993,0.6958,0.6541,0.5986,0.5399,0.5588,0.6055,0.6436,0.6394,0.5928,0.5167,0.4952,0.4842,0.4546,0.4491,0.4491,0.4491,0.4491,0.4491,0.4491,0.4491,0.4491,0.4491,0.4491,0.4491,0.4491,0.4491,0.4491,0.4491,0.4491,0.4491,2.9094,2.9501,2.9331,2.9162,2.896,2.8234,2.7775,2.7528,2.7185,2.74,2.8045,2.8705,2.8987,2.8977,2.867,2.8694,2.889,2.8356,2.8062,2.7989,2.7236,2.6539,2.5956,2.5857,2.5522,2.5111,2.5211,2.534,2.5494,2.5515,2.5473,2.5421,2.5123,2.4904,2.4849,2.4615,2.4503,2.4495,2.4339,2.4124,2.3845,2.3753,2.3437,2.2972,2.2754,2.2445,2.189,2.1776,2.132,2.0438,2.0374,1.9935,1.9045,1.8406,1.7705,1.6813,1.5425,1.4226,1.339,1.1916,1.0801,1.0322,1.0505,1.064,1.064,1.064,1.0399,0.9952,0.9855,0.9687,0.937,0.9151,0.9059,0.9079,0.929,0.9301,0.9139,0.929,0.9073,0.7977,0.7863,0.7704,0.7321,0.7063,0.6993,0.6937,0.6456,0.5853,0.5397,0.5235,0.5746,0.6545,0.6438,0.5733,0.5382,0.4869,0.4546,0.4491,0.4491,0.4491,0.4491,0.4491,0.4491,0.4491,0.4491,0.4491,0.4491,0.4491,0.4491,0.4491,0.4491,0.4491,0.4491,0.4491,0.4491,3.0915,3.0886,3.026,2.96,2.9013,2.8561,2.8365,2.8319,2.8124,2.8177,2.844,2.8812,2.9021,2.8989,2.8952,2.8952,2.8987,2.8913,2.8858,2.8767,2.8062,2.764,2.7411,2.6504,2.5943,2.5882,2.5672,2.5598,2.5568,2.5515,2.5438,2.5303,2.4987,2.4871,2.4924,2.4666,2.4503,2.4503,2.4478,2.4375,2.4142,2.3847,2.3671,2.3617,2.3021,2.2682,2.2552,2.2368,2.2001,2.1515,2.1437,2.1238,2.0687,1.9797,1.9019,1.8431,1.6965,1.5498,1.4152,1.347,1.2296,1.0614,1.1182,1.1641,1.166,1.1645,1.1442,1.1,1.0867,1.0743,1.0762,1.0351,1.0059,1.002,1.0098,1.0186,1.0098,1.0176,1.0128,1.004,0.8756,0.7857,0.7746,0.7314,0.7027,0.7046,0.6339,0.5693,0.5444,0.5723,0.6586,0.7709,0.7165,0.576,0.5003,0.4598,0.4491,0.4491,0.4491,0.4491,0.4491,0.4491,0.4491,0.4491,0.4491,0.4491,0.4491,0.4491,0.4491,0.4491,0.4491,0.4491,0.4491,0.4491,0.4491,3.119,3.1157,3.0869,3.0466,3.0004,2.9816,2.9817,2.9834,2.9384,2.9298,2.9508,2.9795,2.96,2.9005,2.8987,2.8987,2.8987,2.8987,2.8987,2.8987,2.8668,2.8316,2.7943,2.7639,2.7263,2.6979,2.6997,2.6751,2.6202,2.5704,2.5329,2.5143,2.509,2.5024,2.4884,2.4741,2.4615,2.4503,2.4384,2.4303,2.4199,2.4074,2.3896,2.3682,2.3236,2.2898,2.2712,2.2453,2.2209,2.2017,2.2003,2.1825,2.1368,2.0938,2.0272,1.9258,1.7899,1.6468,1.5132,1.4795,1.391,1.2235,1.2209,1.2378,1.2647,1.2417,1.212,1.1872,1.1356,1.0989,1.0981,1.0582,1.0322,1.0322,1.0322,1.0322,1.0322,1.0322,1.0322,1.0244,0.9459,0.8561,0.7995,0.7377,0.7143,0.7169,0.662,0.6031,0.5728,0.5949,0.6908,0.8248,0.8064,0.7149,0.5932,0.4952,0.4625,0.4491,0.4491,0.4491,0.4491,0.4491,0.4491,0.4491,0.4491,0.4491,0.4491,0.4491,0.4491,0.4491,0.4491,0.4491,0.4491,0.4491,0.4491,3.1288,3.137,3.1487,3.1404,3.1184,3.1093,3.1109,3.1113,3.055,3.0386,3.0546,3.0729,3.027,2.939,2.9115,2.8987,2.8987,2.8987,2.8987,2.8998,2.9067,2.8881,2.8482,2.8455,2.8305,2.7988,2.8005,2.7739,2.707,2.6456,2.5893,2.5535,2.5532,2.5361,2.4974,2.4867,2.4712,2.4575,2.4384,2.4247,2.4227,2.4199,2.4084,2.3845,2.3488,2.3195,2.2972,2.2561,2.2349,2.2415,2.2335,2.2149,2.1823,2.1673,2.1007,1.9695,1.8584,1.7505,1.6429,1.6123,1.5484,1.4377,1.3745,1.3531,1.3612,1.3378,1.3168,1.3125,1.2343,1.1845,1.1386,1.0981,1.0678,1.0525,1.04,1.0322,1.0322,1.0322,1.0322,1.0264,0.9784,0.9099,0.8126,0.7609,0.7479,0.7402,0.6982,0.6678,0.6401,0.6441,0.6912,0.8469,0.8586,0.7744,0.6556,0.5523,0.4814,0.4491,0.4491,0.4491,0.4491,0.4491,0.4491,0.4491,0.4491,0.4491,0.4491,0.4491,0.4491,0.4491,0.4491,0.4491,0.4491,0.4491,0.4491,3.143,3.1807,3.2248,3.2382,3.2377,3.2082,3.1971,3.1978,3.1553,3.1353,3.1347,3.1378,3.0925,3.0099,2.939,2.9023,2.8987,2.8987,2.8998,2.9051,2.9257,2.9373,2.9312,2.8974,2.8805,2.8766,2.8493,2.8188,2.803,2.7879,2.743,2.6553,2.6303,2.5922,2.5332,2.498,2.479,2.4708,2.4518,2.4384,2.4228,2.4199,2.418,2.4113,2.3724,2.3522,2.3511,2.2777,2.2426,2.2673,2.2453,2.2279,2.224,2.184,2.0975,1.9783,1.9126,1.8598,1.8015,1.7484,1.6971,1.6399,1.5789,1.5328,1.4856,1.4701,1.4619,1.4713,1.4094,1.3426,1.2612,1.2065,1.1553,1.1067,1.0633,1.0459,1.0322,1.04,1.0332,1.0303,0.9946,0.9264,0.8165,0.8111,0.7996,0.7679,0.7175,0.705,0.7493,0.7101,0.7439,0.8171,0.8103,0.7074,0.59,0.5437,0.5113,0.4814,0.4653,0.4491,0.4491,0.4491,0.4491,0.4491,0.4491,0.4491,0.4491,0.4491,0.4491,0.4491,0.4491,0.4491,0.4491,0.4501,0.4332,3.143,3.1826,3.2316,3.2665,3.2932,3.2832,3.2915,3.3122,3.302,3.2632,3.221,3.2173,3.1715,3.0925,3.0136,2.9482,2.9023,2.8987,2.9089,2.9246,2.9361,2.9523,2.975,2.9623,2.9711,2.9843,2.9776,2.9421,2.8878,2.8325,2.781,2.7391,2.6784,2.6215,2.5723,2.512,2.4678,2.4454,2.433,2.4257,2.4199,2.4199,2.4199,2.418,2.3827,2.3642,2.3721,2.3147,2.2815,2.2708,2.2599,2.2477,2.2251,2.1615,2.1039,2.0501,1.9826,1.9332,1.9103,1.8621,1.8394,1.8474,1.7384,1.6508,1.599,1.5607,1.5291,1.4973,1.4768,1.4372,1.4034,1.3322,1.2585,1.2083,1.1808,1.1307,1.0656,1.0762,1.1145,1.1052,1.0663,1.0052,0.9406,0.8955,0.8714,0.867,0.8214,0.808,0.828,0.8135,0.8182,0.8566,0.8513,0.7996,0.7095,0.6032,0.5378,0.5113,0.4897,0.4598,0.4491,0.4491,0.4491,0.4491,0.4491,0.4491,0.4491,0.4491,0.4491,0.4491,0.4491,0.4491,0.4491,0.4473,0.3971,3.186,3.2281,3.2727,3.3087,3.3375,3.3408,3.3532,3.3807,3.3807,3.3495,3.3054,3.2981,3.2592,3.1918,3.137,3.0542,2.9646,2.9329,2.9249,2.9503,2.9561,2.9729,2.9977,3.0082,3.0265,3.0468,3.0564,3.0292,2.9791,2.9124,2.8626,2.8247,2.7616,2.702,2.6444,2.5578,2.4937,2.4691,2.4384,2.4199,2.4199,2.4199,2.4199,2.417,2.3976,2.3876,2.3865,2.3649,2.3311,2.2917,2.2772,2.259,2.2248,2.16,2.1134,2.0943,2.0311,1.9821,1.9675,1.935,1.9299,1.9606,1.8588,1.7614,1.7186,1.673,1.6319,1.6016,1.5756,1.5677,1.5519,1.4923,1.4039,1.3258,1.3012,1.238,1.1004,1.1412,1.1722,1.1547,1.1245,1.0848,1.0371,0.9715,0.9408,0.9435,0.8876,0.8662,0.8758,0.8778,0.8778,0.8778,0.8778,0.854,0.7963,0.709,0.595,0.5546,0.5058,0.4736,0.4519,0.4519,0.4519,0.4519,0.4491,0.4491,0.4491,0.4491,0.4491,0.4491,0.4491,0.4491,0.4494,0.4473,0.383,3.2745,3.3169,3.3606,3.3753,3.3734,3.3753,3.3775,3.3807,3.3807,3.376,3.369,3.3773,3.3451,3.3085,3.2814,3.22,3.1111,3.015,2.9692,2.9724,2.9877,2.9977,3.0061,3.026,3.04,3.0509,3.0578,3.0594,3.0492,3.0292,2.9877,2.9209,2.8798,2.8164,2.7475,2.6347,2.5688,2.5412,2.4726,2.4273,2.4199,2.4199,2.4199,2.4199,2.417,2.4141,2.4151,2.4151,2.3788,2.3189,2.2885,2.259,2.229,2.1809,2.1431,2.1039,2.0565,2.0122,1.978,1.9657,1.9636,1.9639,1.9159,1.8679,1.8277,1.8079,1.7907,1.7736,1.7411,1.7193,1.7044,1.6608,1.5689,1.4409,1.4087,1.3435,1.2318,1.219,1.2318,1.1927,1.1792,1.1438,1.0952,1.0414,1.0027,0.9623,0.9103,0.8758,0.8791,0.8778,0.8778,0.8778,0.8778,0.8672,0.8454,0.8103,0.6956,0.5977,0.5359,0.4873,0.468,0.4601,0.4653,0.4653,0.4491,0.4491,0.4491,0.4491,0.4491,0.4491,0.4491,0.4491,0.4494,0.4359,0.3658,3.306,3.3243,3.362,3.3807,3.3807,3.3807,3.3807,3.3807,3.3807,3.3902,3.4037,3.4062,3.4093,3.402,3.3565,3.3148,3.2843,3.1994,3.1008,3.0114,3.0015,3.0135,3.028,3.0361,3.0457,3.0597,3.0745,3.0728,3.0603,3.0578,3.035,2.9927,2.9187,2.8615,2.8165,2.7088,2.6247,2.553,2.5194,2.4787,2.4273,2.4199,2.4199,2.4199,2.4199,2.4122,2.3886,2.4066,2.3746,2.2923,2.2984,2.2819,2.2315,2.1853,2.1568,2.1353,2.0699,2.0124,1.9782,1.9726,1.9744,1.969,1.9515,1.9041,1.8432,1.8536,1.8577,1.8447,1.8075,1.7747,1.736,1.7167,1.646,1.5274,1.511,1.4761,1.385,1.386,1.3773,1.3423,1.3194,1.2886,1.2259,1.1482,1.0582,1.0332,0.953,0.8877,0.8804,0.8778,0.8778,0.8778,0.8778,0.8778,0.8619,0.8348,0.7557,0.6686,0.6036,0.55,0.5199,0.4846,0.4901,0.4708,0.4543,0.4491,0.4491,0.4491,0.4491,0.4491,0.4491,0.4491,0.4494,0.4159,0.363,3.374,3.3869,3.3822,3.3807,3.3807,3.3807,3.3868,3.3935,3.3967,3.4117,3.4345,3.4379,3.4553,3.469,3.4273,3.4008,3.3899,3.3405,3.2429,3.1171,3.0731,3.0733,3.0806,3.0563,3.0525,3.0645,3.0813,3.0806,3.0611,3.06,3.0529,3.0254,2.9539,2.9079,2.8837,2.782,2.6849,2.6295,2.5705,2.5164,2.4695,2.4365,2.4199,2.4199,2.4199,2.4026,2.3735,2.3847,2.3573,2.2903,2.2827,2.266,2.2307,2.2017,2.1794,2.1521,2.1086,2.0483,1.9871,2.0048,1.9997,1.9818,1.9821,1.9582,1.895,1.9055,1.912,1.9008,1.863,1.8269,1.7933,1.7483,1.6954,1.6327,1.6034,1.5654,1.5129,1.5208,1.5071,1.4597,1.4086,1.3695,1.3147,1.2144,1.1233,1.1015,1.0236,0.9185,0.9035,0.8778,0.8778,0.8778,0.8778,0.8778,0.8752,0.8454,0.8049,0.745,0.688,0.6453,0.61,0.555,0.5304,0.4763,0.4491,0.4491,0.4491,0.4491,0.4491,0.4491,0.4491,0.4491,0.4494,0.4477,0.3944,3.4687,3.488,3.4192,3.3889,3.386,3.3842,3.3999,3.4218,3.4223,3.4412,3.4674,3.4714,3.4879,3.5079,3.4988,3.4749,3.4364,3.4294,3.3871,3.2994,3.2295,3.1863,3.1532,3.1021,3.0795,3.071,3.0817,3.0806,3.0611,3.0603,3.0529,3.0346,2.9893,2.9676,2.9362,2.8435,2.7791,2.7412,2.6237,2.5521,2.5301,2.4593,2.4199,2.4199,2.419,2.4036,2.3735,2.3544,2.323,2.2733,2.251,2.2429,2.2324,2.2313,2.2077,2.1735,2.1612,2.1039,2.0328,2.0497,2.0581,1.9945,2.007,2.0124,1.9678,1.9566,1.9599,1.9545,1.9169,1.8893,1.865,1.7993,1.7381,1.7167,1.6633,1.6092,1.5548,1.5993,1.5952,1.5369,1.4534,1.3852,1.3788,1.2609,1.187,1.1582,1.104,1.0141,0.9439,0.9113,0.8857,0.8778,0.8778,0.8778,0.8778,0.8699,0.8348,0.8103,0.7584,0.7262,0.6615,0.5959,0.555,0.5007,0.4491,0.4491,0.4491,0.4491,0.4491,0.4491,0.4491,0.4491,0.4494,0.4473,0.4286,3.5469,3.4986,3.4784,3.4455,3.413,3.4086,3.4277,3.4551,3.4561,3.4734,3.4954,3.499,3.513,3.5376,3.5383,3.5304,3.5128,3.5122,3.5096,3.4719,3.3986,3.2884,3.2,3.1615,3.1247,3.0854,3.0857,3.0786,3.0614,3.0606,3.0525,3.0379,2.9962,2.9713,2.9559,2.9,2.8378,2.7769,2.6851,2.5962,2.5374,2.4658,2.4218,2.4199,2.4199,2.4026,2.3682,2.3177,2.2873,2.2733,2.2634,2.2517,2.2338,2.2313,2.224,2.2077,2.1794,2.1673,2.1539,2.1182,2.0812,2.0429,2.0347,2.0124,1.9762,1.9708,1.9708,1.969,1.953,1.9299,1.8912,1.8288,1.7626,1.6837,1.6616,1.6402,1.6247,1.6346,1.6405,1.6113,1.513,1.4537,1.4086,1.3034,1.1922,1.1749,1.1341,1.0821,1.0303,0.9647,0.9446,0.8936,0.8778,0.8778,0.8778,0.8778,0.8699,0.8619,0.8295,0.7969,0.7047,0.5991,0.5691,0.534,0.468,0.4491,0.4491,0.4491,0.4491,0.4491,0.4491,0.4491,0.4491,0.4498,0.4484,3.6505,3.5987,3.5445,3.5038,3.4721,3.4514,3.4574,3.4822,3.4879,3.5008,3.5223,3.5273,3.5342,3.5493,3.55,3.55,3.55,3.55,3.5509,3.5486,3.5054,3.3969,3.2733,3.2179,3.1712,3.1356,3.1035,3.0785,3.0647,3.0606,3.0517,3.0358,3.003,2.9807,2.9678,2.9365,2.8898,2.8268,2.7512,2.6704,2.5925,2.5107,2.452,2.4328,2.419,2.4036,2.3692,2.3323,2.3009,2.2776,2.2599,2.2463,2.2321,2.2313,2.2313,2.2282,2.2032,2.2032,2.2092,2.1584,2.1134,2.0926,2.0715,2.0302,1.9911,1.9834,1.9927,1.9726,1.9708,1.9548,1.9244,1.876,1.8086,1.7394,1.6774,1.6543,1.65,1.6479,1.6513,1.6228,1.55,1.4709,1.4686,1.3236,1.2496,1.2212,1.2089,1.1841,1.1592,1.0812,0.9932,0.9342,0.8857,0.8778,0.8778,0.8778,0.8778,0.8752,0.848,0.8268,0.7429,0.6241,0.5973,0.5645,0.4987,0.4519,0.4491,0.4491,0.4491,0.4491,0.4491,0.4491,0.4491,0.4494,0.4477,3.7566,3.7393,3.6226,3.5714,3.5612,3.5224,3.523,3.5266,3.5348,3.5388,3.5458,3.5493,3.5467,3.55,3.55,3.55,3.55,3.55,3.5558,3.5606,3.548,3.4878,3.3797,3.2931,3.2484,3.2207,3.1445,3.1055,3.0874,3.0742,3.0521,3.0356,3.0103,2.9893,2.9696,2.9474,2.9238,2.8823,2.8062,2.7383,2.6686,2.5933,2.5217,2.4548,2.4226,2.4084,2.3855,2.3631,2.338,2.2784,2.249,2.2374,2.2338,2.2313,2.2313,2.2313,2.2268,2.2268,2.2223,2.1825,2.1445,2.1306,2.1102,2.0653,2.0045,1.9999,1.9982,1.9726,1.9723,1.9636,1.9424,1.9114,1.8593,1.7953,1.7167,1.674,1.6514,1.6518,1.6513,1.6457,1.5478,1.4926,1.4433,1.3789,1.2968,1.2608,1.251,1.2437,1.2387,1.2042,1.0846,0.9562,0.9159,0.8778,0.8778,0.8778,0.8778,0.8752,0.8401,0.8076,0.7622,0.6788,0.6413,0.595,0.5175,0.468,0.4491,0.4491,0.4491,0.4491,0.4491,0.4491,0.4491,0.4491,0.4498,3.808,3.7504,3.7421,3.7137,3.6828,3.6919,3.6719,3.6358,3.6339,3.6053,3.5608,3.5519,3.55,3.55,3.55,3.55,3.5488,3.5515,3.5562,3.5694,3.5797,3.5755,3.5188,3.4398,3.3698,3.3125,3.2324,3.1816,3.152,3.0963,3.0548,3.0383,3.0157,2.9901,2.9705,2.9523,2.9267,2.8915,2.8227,2.7769,2.742,2.6741,2.5933,2.5136,2.4492,2.4179,2.4064,2.3837,2.3493,2.3117,2.2776,2.2477,2.2335,2.2313,2.2313,2.2313,2.2313,2.2313,2.2268,2.2137,2.1886,2.143,2.115,2.0749,2.0235,1.9939,1.9839,1.9723,1.9705,1.9548,1.9244,1.9006,1.8727,1.8302,1.7953,1.743,1.6749,1.6528,1.6509,1.6337,1.5842,1.5231,1.4766,1.4154,1.3515,1.3089,1.2915,1.2915,1.2915,1.2915,1.1701,1.0149,0.9211,0.8831,0.8778,0.8778,0.8778,0.8778,0.8454,0.8235,0.7756,0.73,0.6896,0.6159,0.5285,0.4901,0.4515,0.4491,0.4491,0.4491,0.4491,0.4491,0.4491,0.4491,0.4491,3.8753,3.8478,3.8362,3.8175,3.7906,3.7827,3.759,3.7339,3.7315,3.6853,3.6192,3.6058,3.5865,3.5519,3.55,3.55,3.5515,3.5585,3.563,3.5723,3.5839,3.5953,3.5937,3.5504,3.4824,3.3984,3.3164,3.2539,3.1895,3.1433,3.096,3.0427,3.0228,3.0003,2.9729,2.9589,2.9363,2.903,2.8601,2.8209,2.775,2.7402,2.6502,2.5454,2.4513,2.3947,2.3935,2.3459,2.3247,2.3099,2.2781,2.2463,2.2335,2.2313,2.2313,2.2313,2.2313,2.2313,2.2313,2.2268,2.2017,2.146,2.1182,2.0764,2.0416,2.0089,1.9892,1.9762,1.969,1.9581,1.9299,1.9281,1.9095,1.8949,1.8836,1.8364,1.745,1.6826,1.6513,1.6392,1.593,1.5521,1.505,1.4526,1.398,1.3515,1.2929,1.2915,1.2915,1.2783,1.2082,1.0779,0.9517,0.8883,0.8804,0.8778,0.8778,0.8752,0.8619,0.8507,0.8321,0.783,0.7369,0.6394,0.5359,0.4818,0.4491,0.4491,0.4491,0.4491,0.4491,0.4491,0.4491,0.4491,0.4491,3.9339,3.9566,3.9163,3.8995,3.8927,3.8599,3.8346,3.82,3.818,3.7719,3.7026,3.6911,3.65,3.5846,3.575,3.568,3.5565,3.563,3.57,3.5772,3.5905,3.5976,3.5976,3.584,3.5566,3.4844,3.4004,3.3184,3.2596,3.1984,3.1406,3.0725,3.0423,3.0174,2.9848,2.9696,2.9494,2.913,2.8948,2.8656,2.8191,2.797,2.7265,2.6096,2.4793,2.4171,2.3963,2.3448,2.2979,2.3081,2.2634,2.2388,2.231,2.2313,2.2313,2.2313,2.2313,2.2313,2.2313,2.2282,2.2077,2.1538,2.1166,2.0862,2.0533,2.0227,1.9962,1.9818,1.9705,1.9705,1.969,1.9636,1.9654,1.9636,1.9672,1.9188,1.821,1.7146,1.6607,1.6457,1.6173,1.5854,1.5511,1.505,1.448,1.3909,1.3334,1.2915,1.2915,1.2808,1.2215,1.1267,0.9976,0.8982,0.8804,0.8778,0.8778,0.8752,0.8699,0.8672,0.8666,0.8368,0.7717,0.6416,0.5464,0.4924,0.4543,0.4491,0.4491,0.4491,0.4491,0.4491,0.4491,0.4491,0.4491,3.9552,3.9634,3.9791,3.9881,3.9891,4.0016,3.9631,3.9142,3.9092,3.8584,3.7853,3.7777,3.7308,3.6673,3.6481,3.6177,3.5709,3.5647,3.5738,3.5828,3.5957,3.6016,3.6016,3.6016,3.5879,3.5625,3.4922,3.4258,3.3624,3.2707,3.1932,3.1391,3.0808,3.0317,2.9977,2.978,2.957,2.9228,2.9089,2.884,2.873,2.8539,2.8209,2.7071,2.5748,2.4954,2.453,2.3918,2.3323,2.2848,2.2682,2.2527,2.236,2.2324,2.2313,2.2313,2.2313,2.2313,2.2313,2.2296,2.2254,2.2005,2.1447,2.1023,2.0698,2.0243,1.9871,1.9782,1.9726,1.9726,1.9723,1.9723,1.9723,1.9723,1.9636,1.9244,1.821,1.7229,1.6543,1.6479,1.6315,1.6173,1.5854,1.5488,1.496,1.4329,1.3671,1.3162,1.2915,1.2915,1.2735,1.1626,1.0387,0.9472,0.8778,0.8778,0.8778,0.8778,0.8752,0.8752,0.8752,0.8778,0.807,0.7063,0.5928,0.5085,0.4787,0.4653,0.4625,0.4736,0.4625,0.4491,0.4491,0.4491,0.4491,3.9934,4.0072,4.025,4.0313,4.033,4.0449,4.0285,3.9958,3.9919,3.9457,3.8873,3.8642,3.818,3.743,3.6827,3.6293,3.579,3.5659,3.5766,3.5884,3.5957,3.6016,3.6016,3.6016,3.6016,3.5879,3.5508,3.4988,3.4474,3.367,3.2648,3.1744,3.1231,3.0688,3.0014,2.9748,2.9514,2.9249,2.9067,2.8987,2.8932,2.8686,2.8154,2.7581,2.6549,2.5546,2.4881,2.4407,2.3714,2.3096,2.2797,2.2665,2.25,2.236,2.2313,2.2313,2.2313,2.2313,2.2313,2.2299,2.2166,2.1779,2.1307,2.091,2.0582,2.012,1.978,1.9747,1.9929,1.9927,1.9744,1.9723,1.9723,1.9723,1.9705,1.9169,1.8204,1.7146,1.6701,1.6513,1.6436,1.6337,1.6238,1.5842,1.5377,1.4766,1.4037,1.3501,1.3002,1.2915,1.2891,1.1934,1.0685,0.9673,0.8956,0.8778,0.8778,0.8778,0.8778,0.8778,0.8778,0.8778,0.8699,0.815,0.6956,0.5792,0.5273,0.5246,0.5109,0.4924,0.4708,0.4543,0.4515,0.4491,0.4491,4.0313,4.0496,4.0496,4.0496,4.0496,4.0496,4.0496,4.0496,4.0477,4.0131,3.9611,3.9496,3.9073,3.8234,3.7416,3.6618,3.5926,3.5985,3.6048,3.5917,3.5976,3.6016,3.6016,3.5996,3.5976,3.5957,3.5811,3.5476,3.4889,3.4313,3.3439,3.2531,3.202,3.1171,3.0308,2.9819,2.9461,2.9214,2.9017,2.8987,2.8822,2.8411,2.8044,2.7941,2.6989,2.6148,2.5617,2.4824,2.4159,2.348,2.2987,2.2673,2.2599,2.2412,2.231,2.2313,2.2313,2.2313,2.2313,2.2313,2.2137,2.1794,2.1465,2.1071,2.0682,2.0414,1.9997,1.9927,2.0052,2.0089,1.9782,1.9723,1.9636,1.9548,1.953,1.9291,1.8206,1.7289,1.665,1.6513,1.6513,1.6457,1.6358,1.593,1.5421,1.4869,1.4177,1.3586,1.3138,1.2929,1.2725,1.1999,1.0981,0.9873,0.9159,0.8804,0.8778,0.8778,0.8778,0.8778,0.8778,0.8778,0.8672,0.8586,0.8235,0.7176,0.6519,0.5565,0.5081,0.4759,0.4653,0.457,0.4519,0.4491,0.4491,4.0473,4.0496,4.0496,4.0496,4.0496,4.0496,4.0496,4.0496,4.0496,4.0458,4.0265,4.0265,3.9842,3.9044,3.8343,3.7574,3.7028,3.6796,3.6516,3.6052,3.5996,3.6016,3.6016,3.6016,3.5957,3.5918,3.5805,3.5704,3.5321,3.4709,3.4226,3.3539,3.2318,3.1215,3.085,3.0113,2.9423,2.9328,2.9112,2.8987,2.8968,2.8858,2.8785,2.8572,2.8043,2.7319,2.671,2.5738,2.4784,2.4046,2.3193,2.2655,2.2402,2.2335,2.2296,2.2313,2.2313,2.2313,2.2313,2.2313,2.2299,2.2099,2.2073,2.1858,2.1309,2.091,2.0565,2.0261,2.0297,2.0106,1.98,1.9708,1.946,1.9336,1.9332,1.8998,1.8184,1.7199,1.6586,1.6513,1.6513,1.6513,1.6457,1.5942,1.5432,1.4869,1.4329,1.3742,1.3248,1.3027,1.2387,1.1592,1.1133,1.0097,0.9185,0.8857,0.8804,0.8804,0.8804,0.8778,0.8778,0.8778,0.8778,0.8672,0.8487,0.7969,0.6843,0.5842,0.5003,0.4924,0.5226,0.4952,0.4519,0.4519,0.4625,4.0496,4.0496,4.0496,4.0496,4.0496,4.0496,4.0496,4.0496,4.0496,4.0496,4.0496,4.0496,4.0054,3.9367,3.896,3.8161,3.7276,3.7227,3.6764,3.6172,3.6055,3.6035,3.6016,3.5996,3.5957,3.5859,3.5783,3.5671,3.5469,3.522,3.4777,3.4116,3.333,3.2241,3.1447,3.063,2.9893,2.9402,2.9062,2.8987,2.8987,2.8987,2.8987,2.8987,2.862,2.8166,2.7531,2.7059,2.6077,2.5258,2.4249,2.3558,2.3141,2.2733,2.2313,2.2313,2.2313,2.2313,2.2313,2.2313,2.2313,2.2307,2.227,2.1957,2.1435,2.1134,2.0845,2.0364,2.0297,2.0106,1.98,1.9708,1.9599,1.9439,1.9169,1.8611,1.8016,1.717,1.6513,1.6513,1.6513,1.6513,1.6513,1.6272,1.5656,1.4858,1.4363,1.3836,1.3334,1.2978,1.2132,1.1074,1.072,1.0295,0.9413,0.8778,0.8857,0.8857,0.8811,0.8811,0.8778,0.8778,0.8778,0.8778,0.8672,0.799,0.7009,0.6578,0.6172,0.6068,0.5987,0.5578,0.5171,0.503,0.5027,4.0496,4.0496,4.0496,4.0496,4.0496,4.0496,4.0496,4.0496,4.0496,4.0496,4.0496,4.0477,4.0173,3.9778,3.9663,3.9075,3.78,3.7812,3.7178,3.6641,3.6289,3.623,3.6074,3.5976,3.5923,3.5843,3.5739,3.5639,3.5577,3.5432,3.5097,3.4507,3.4028,3.3169,3.1991,3.1242,3.0611,2.9508,2.9145,2.9005,2.8987,2.8987,2.8987,2.8987,2.8932,2.8693,2.8191,2.7776,2.7166,2.6387,2.4973,2.4123,2.3775,2.289,2.2375,2.2313,2.2313,2.2313,2.2313,2.2313,2.2313,2.2307,2.2288,2.2073,2.1604,2.1307,2.1039,2.06,2.0533,2.0244,1.9854,1.9723,1.953,1.9314,1.902,1.8403,1.774,1.6997,1.6522,1.6513,1.6513,1.6513,1.6513,1.6513,1.5932,1.4937,1.434,1.386,1.3406,1.2954,1.2446,1.1509,1.1116,1.0796,0.9961,0.9309,0.9211,0.8903,0.8857,0.8811,0.8804,0.8778,0.8778,0.8778,0.8778,0.8507,0.7824,0.7637,0.7396,0.6777,0.629,0.6177,0.5955,0.5733,0.5269,4.0496,4.0496,4.0516,4.0516,4.0496,4.0496,4.0496,4.0496,4.0496,4.0504,4.0527,4.0508,4.0538,4.0523,4.0446,4.0117,3.9427,3.9642,3.8555,3.7617,3.7148,3.6699,3.6348,3.6045,3.5853,3.5723,3.5671,3.5605,3.5515,3.5521,3.5442,3.532,3.4551,3.3767,3.2779,3.1814,3.0982,2.995,2.9354,2.9005,2.8987,2.8987,2.8987,2.8987,2.8987,2.8932,2.8858,2.8282,2.78,2.7212,2.5689,2.4696,2.4365,2.3171,2.2592,2.2499,2.233,2.233,2.2313,2.2313,2.2313,2.2313,2.2288,2.225,2.2022,2.2094,2.1751,2.0927,2.0698,2.0347,1.9945,1.9672,1.953,1.9369,1.9066,1.8513,1.7799,1.6938,1.6539,1.6522,1.6513,1.6513,1.638,1.6337,1.5844,1.4892,1.3823,1.332,1.3248,1.2915,1.2915,1.2412,1.1898,1.1391,1.0686,1.0141,0.951,0.9106,0.8929,0.8857,0.8778,0.8778,0.8778,0.8778,0.8778,0.8725,0.8619,0.8129,0.7589,0.6945,0.6642,0.6826,0.6556,0.6172,0.5492,4.1797,4.1316,4.1296,4.0997,4.0496,4.0496,4.0496,4.0496,4.0496,4.0552,4.063,4.0632,4.0683,4.0775,4.0818,4.0462,3.9809,3.984,3.9082,3.8262,3.7578,3.7129,3.668,3.6244,3.5871,3.5726,3.5671,3.5605,3.5489,3.5488,3.55,3.528,3.4942,3.419,3.3282,3.2058,3.0954,3.0261,2.9494,2.9023,2.8987,2.8987,2.8987,2.8987,2.8987,2.8987,2.8932,2.873,2.8507,2.7936,2.6629,2.5906,2.5252,2.3873,2.3098,2.2902,2.2649,2.2364,2.2313,2.2313,2.2313,2.2313,2.2313,2.2313,2.2254,2.1871,2.1446,2.0943,2.0532,2.0087,1.9854,1.9708,1.9621,1.9497,1.9185,1.8682,1.8057,1.7253,1.6548,1.6552,1.6522,1.6513,1.6337,1.6151,1.5522,1.4801,1.3729,1.2915,1.2915,1.2915,1.2915,1.2832,1.2344,1.1625,1.0897,1.0295,0.971,0.938,0.908,0.8877,0.8778,0.8778,0.8778,0.8778,0.8778,0.8752,0.8619,0.8295,0.7943,0.767,0.767,0.7803,0.7343,0.6691,0.6046,4.2758,4.2212,4.22,4.1527,4.0573,4.0496,4.0496,4.0496,4.0496,4.0561,4.0703,4.0791,4.0856,4.0906,4.0933,4.0792,4.0356,4.0254,3.9726,3.9101,3.8496,3.7793,3.7246,3.6714,3.6215,3.5846,3.5675,3.5611,3.5494,3.5488,3.55,3.55,3.5435,3.4771,3.3938,3.223,3.1076,3.0556,2.986,2.9189,2.9097,2.8987,2.8987,2.8987,2.8987,2.8987,2.8987,2.8895,2.8913,2.8439,2.7643,2.6872,2.6065,2.512,2.3954,2.3477,2.3105,2.2598,2.2364,2.2313,2.2313,2.2313,2.2313,2.2313,2.2109,2.16,2.1291,2.0991,2.0362,1.9836,1.978,1.9708,1.9708,1.9584,1.9584,1.917,1.8641,1.7932,1.7133,1.6595,1.6565,1.6491,1.6185,1.5898,1.513,1.4456,1.3621,1.2954,1.2915,1.2915,1.2915,1.2798,1.2559,1.1792,1.1007,1.0601,1.021,0.9891,0.951,0.8929,0.8778,0.8778,0.8778,0.8778,0.8778,0.8778,0.8679,0.85,0.8573,0.8672,0.8573,0.838,0.8103,0.7482,0.7063,4.3143,4.3066,4.3066,4.2124,4.0746,4.0516,4.0535,4.0496,4.05,4.057,4.074,4.0992,4.1085,4.1015,4.1025,4.0962,4.0976,4.0976,4.0625,3.9941,3.9473,3.8691,3.7871,3.7178,3.6584,3.5889,3.5674,3.5581,3.55,3.55,3.55,3.55,3.5474,3.5369,3.521,3.3611,3.2434,3.17,3.0706,2.9774,2.928,2.9097,2.8987,2.8987,2.8987,2.8987,2.8987,2.8987,2.8987,2.8765,2.7797,2.713,2.6759,2.5463,2.4615,2.4438,2.378,2.3105,2.2448,2.2364,2.2398,2.233,2.2313,2.2268,2.218,2.1794,2.1275,2.0862,2.0398,2.0035,1.9856,1.9723,1.9723,1.9708,1.969,1.9584,1.9047,1.8357,1.7524,1.668,1.6543,1.6436,1.6064,1.5611,1.4755,1.4037,1.3334,1.3027,1.2929,1.2915,1.2915,1.2856,1.2691,1.2246,1.1559,1.1124,1.0737,1.0389,0.9891,0.9263,0.8857,0.8778,0.8778,0.8778,0.8805,0.8825,0.8851,0.8825,0.8965,0.9078,0.8884,0.8711,0.8513,0.8323,0.7878,4.4412,4.3912,4.3893,4.3258,4.22,4.1585,4.1046,4.0558,4.0512,4.0587,4.08,4.1085,4.1171,4.114,4.1133,4.1152,4.1191,4.1191,4.0859,4.0742,4.0234,3.9687,3.8828,3.7871,3.707,3.6517,3.6083,3.5649,3.55,3.5481,3.55,3.55,3.5474,3.5373,3.4829,3.3705,3.2656,3.23,3.1166,3.0026,2.9769,2.9317,2.9023,2.9023,2.8987,2.8987,2.8987,2.8987,2.8987,2.8952,2.8005,2.771,2.7386,2.6202,2.5546,2.521,2.4558,2.3814,2.3308,2.3122,2.2936,2.2649,2.2313,2.218,2.1869,2.143,2.1007,2.06,2.0225,1.9892,1.9744,1.9708,1.9723,1.9723,1.9708,1.9708,1.9299,1.8516,1.772,1.6921,1.6513,1.6534,1.6293,1.581,1.5005,1.4283,1.3658,1.3113,1.2929,1.2905,1.2915,1.2915,1.2798,1.2535,1.2138,1.16,1.099,1.0491,1.0012,0.9458,0.9133,0.8929,0.8778,0.8778,0.8825,0.8871,0.9072,0.9239,0.9352,0.9385,0.9245,0.9098,0.8968,0.8878,0.8722,4.5267,4.4778,4.4759,4.4259,4.3451,4.2604,4.1758,4.0993,4.0647,4.0616,4.0828,4.1081,4.1202,4.1191,4.1191,4.1191,4.1191,4.1191,4.1191,4.1133,4.0684,4.0156,3.9512,3.875,3.7891,3.7196,3.6505,3.6021,3.5559,3.5515,3.5488,3.55,3.55,3.5424,3.4958,3.4248,3.3449,3.2991,3.1872,3.0911,3.0324,2.9721,2.9299,2.9097,2.8987,2.8987,2.8987,2.8987,2.8987,2.8893,2.8633,2.8316,2.7838,2.7334,2.6588,2.6126,2.5622,2.4793,2.4135,2.4137,2.3866,2.3308,2.2685,2.208,2.1643,2.1275,2.083,2.0382,1.996,1.9782,1.9708,1.9723,1.9768,1.9783,1.9723,1.9723,1.9563,1.8798,1.8086,1.7284,1.6744,1.6701,1.6479,1.5964,1.5365,1.4698,1.4025,1.3467,1.2944,1.2905,1.2915,1.2915,1.2915,1.2725,1.2403,1.1981,1.1325,1.0618,1.0154,0.978,0.9439,0.9211,0.9008,0.8831,0.9025,0.9225,0.9492,0.9682,0.9653,0.9659,0.9633,0.9519,0.9426,0.9352,0.9313,4.5594,4.5594,4.5594,4.5094,4.4297,4.347,4.2624,4.1712,4.0862,4.061,4.0817,4.1081,4.1174,4.1191,4.1191,4.1191,4.1191,4.1191,4.1191,4.1191,4.1016,4.0586,4.0215,3.9687,3.8769,3.7757,3.6985,3.6421,3.5741,3.5522,3.5481,3.55,3.55,3.5453,3.5273,3.4993,3.4345,3.3677,3.2839,3.1855,3.1038,3.0252,2.9751,2.939,2.9115,2.9023,2.8987,2.8987,2.8987,2.8875,2.8658,2.8471,2.8272,2.8075,2.7707,2.7236,2.6721,2.5758,2.488,2.4949,2.4712,2.4036,2.319,2.2367,2.179,2.1455,2.0988,2.0488,2.0066,1.9863,1.9723,1.9798,1.9869,1.9809,1.9753,1.9738,1.9723,1.9184,1.8496,1.7847,1.7333,1.7013,1.6552,1.6051,1.584,1.5231,1.4537,1.3742,1.3238,1.2905,1.2915,1.2915,1.2915,1.2915,1.2637,1.2354,1.2029,1.1447,1.0721,1.0268,0.9884,0.9517,0.9343,0.9272,0.9352,0.9526,0.9753,0.984,0.9826,0.986,0.9973,0.9866,0.976,0.9806,0.9738,4.5594,4.5594,4.5594,4.546,4.5114,4.4316,4.3162,4.1769,4.0877,4.0623,4.0797,4.0937,4.1072,4.1191,4.1191,4.1191,4.1191,4.1191,4.1191,4.1191,4.1191,4.1035,4.0703,4.0195,3.9512,3.8747,3.7871,3.7031,3.644,3.5958,3.5494,3.55,3.55,3.55,3.5479,3.5444,3.4985,3.445,3.364,3.2773,3.1832,3.0978,3.0373,2.9824,2.9335,2.9189,2.9023,2.9005,2.8987,2.894,2.8887,2.8731,2.8363,2.8061,2.7666,2.6971,2.664,2.6251,2.5524,2.5406,2.5287,2.4829,2.4118,2.3383,2.2663,2.2005,2.1418,2.0862,2.0491,2.0362,2.0262,2.0243,2.0348,2.0378,2.0273,2.0172,2.0157,1.9975,1.9291,1.8717,1.8201,1.7375,1.6847,1.6604,1.6379,1.5784,1.5141,1.4384,1.3563,1.3224,1.3076,1.3096,1.3086,1.3145,1.3115,1.292,1.2663,1.2284,1.1589,1.0809,1.0173,0.9854,0.9717,0.9726,0.9873,0.9927,0.9987,1.0047,1.0144,1.0285,1.0385,1.0251,1.012,1.0171,1.0028,4.5594,4.5594,4.5594,4.5594,4.5498,4.5028,4.4008,4.2673,4.1168,4.0752,4.1248,4.1031,4.1016,4.1172,4.1191,4.1191,4.1191,4.1191,4.1191,4.1191,4.1191,4.1172,4.0918,4.0644,4.0176,3.9501,3.8761,3.7883,3.7035,3.6096,3.554,3.55,3.55,3.55,3.5493,3.546,3.5405,3.4953,3.4377,3.3636,3.2743,3.1832,3.1186,3.0289,2.9763,2.9482,2.906,2.9023,2.8987,2.8987,2.8987,2.8917,2.854,2.8201,2.784,2.7225,2.6824,2.6572,2.6116,2.6048,2.5778,2.5506,2.5303,2.4854,2.3916,2.3128,2.2249,2.1501,2.1245,2.1021,2.0902,2.0827,2.0976,2.1111,2.0917,2.0722,2.0741,2.0741,2.0254,1.9669,1.8893,1.8004,1.7501,1.7273,1.711,1.6892,1.6496,1.5833,1.4653,1.3586,1.3506,1.3519,1.3486,1.3467,1.3437,1.3437,1.3298,1.3038,1.2609,1.1789,1.0826,1.015,0.9971,1.0154,1.0479,1.0425,1.0254,1.0405,1.0499,1.0586,1.0586,1.0466,1.0378,1.0419,1.0177,4.5594,4.5594,4.5594,4.5594,4.5594,4.5537,4.5086,4.4171,4.2016,4.1351,4.1974,4.1381,4.1186,4.1426,4.1308,4.1211,4.1191,4.1191,4.1191,4.1191,4.1191,4.1191,4.1191,4.1133,4.0684,4.0156,3.9462,3.852,3.7249,3.6358,3.5834,3.5533,3.55,3.55,3.55,3.55,3.546,3.5326,3.4991,3.4461,3.3558,3.2874,3.2242,3.088,3.0411,3.0155,2.939,2.9078,2.8987,2.8987,2.9005,2.8994,2.8663,2.8281,2.7936,2.7545,2.7003,2.674,2.6556,2.6505,2.6556,2.6522,2.6657,2.61,2.5146,2.4115,2.3193,2.2572,2.2321,2.1923,2.1736,2.1827,2.1951,2.1873,2.165,2.1729,2.1909,2.1578,2.0808,2.0126,1.9218,1.8382,1.7936,1.7702,1.7629,1.7789,1.7487,1.6863,1.6173,1.4709,1.4173,1.4189,1.4133,1.4092,1.3789,1.3809,1.3906,1.3685,1.3377,1.3119,1.2426,1.1349,1.0198,1.0567,1.0958,1.0681,1.0539,1.0586,1.0586,1.0586,1.0586,1.0586,1.0586,1.0579,1.0485,4.5594,4.5594,4.5594,4.5594,4.5594,4.5594,4.5498,4.5188,4.4085,4.3327,4.2959,4.2272,4.1886,4.1953,4.1406,4.1191,4.1191,4.1191,4.1191,4.1191,4.1191,4.1191,4.1191,4.1191,4.0996,4.0742,4.0056,3.8983,3.7581,3.6792,3.617,3.5597,3.5519,3.55,3.55,3.55,3.55,3.5493,3.5352,3.5119,3.4527,3.35,3.2597,3.1913,3.1565,3.0619,2.9849,2.9262,2.9115,2.8987,2.8987,2.8821,2.8522,2.8129,2.7765,2.7441,2.7035,2.6825,2.6708,2.6708,2.6708,2.6708,2.6674,2.659,2.6068,2.511,2.4356,2.3851,2.3351,2.2911,2.2651,2.2781,2.2827,2.2586,2.2418,2.2733,2.3017,2.2243,2.1377,2.0478,1.953,1.8976,1.8516,1.8279,1.8204,1.8006,1.7733,1.7416,1.7432,1.6527,1.5382,1.5219,1.5036,1.4883,1.4424,1.4238,1.4375,1.4348,1.411,1.3973,1.3902,1.2911,1.1834,1.1409,1.1382,1.0912,1.0604,1.0586,1.0586,1.0586,1.0586,1.0586,1.0586,1.0586,1.0586,4.5594,4.5594,4.5594,4.5594,4.5594,4.5594,4.5627,4.5615,4.5233,4.4904,4.4341,4.3052,4.2266,4.2266,4.1562,4.1211,4.1211,4.1191,4.1191,4.1191,4.1191,4.1191,4.1191,4.1191,4.1172,4.0976,4.0254,3.9186,3.8072,3.7125,3.6518,3.6022,3.5795,3.5519,3.55,3.55,3.55,3.55,3.55,3.5398,3.5211,3.4405,3.346,3.2918,3.2354,3.1397,3.0155,2.9464,2.9115,2.8987,2.8987,2.894,2.867,2.8373,2.7978,2.7619,2.7239,2.689,2.6775,2.6708,2.6708,2.6708,2.6708,2.6623,2.6623,2.5747,2.5525,2.4998,2.4173,2.3685,2.3476,2.3539,2.3354,2.3119,2.3077,2.3206,2.3304,2.2986,2.2114,2.1172,2.0475,2.0088,1.9599,1.912,1.907,1.9045,1.8632,1.8494,1.8455,1.8014,1.6962,1.5932,1.557,1.5215,1.4687,1.4668,1.4883,1.483,1.4734,1.4733,1.4605,1.4129,1.3524,1.2451,1.1516,1.0815,1.0577,1.0579,1.0586,1.0586,1.0586,1.0586,1.0586,1.0586,1.0586,4.5594,4.5594,4.5594,4.5594,4.5594,4.5594,4.5673,4.5783,4.579,4.5891,4.5687,4.3656,4.2764,4.2285,4.1738,4.1426,4.123,4.1211,4.1191,4.1191,4.1191,4.1191,4.1191,4.1191,4.1191,4.1016,4.0508,3.998,3.9276,3.8291,3.7429,3.6775,3.6149,3.5615,3.5538,3.55,3.55,3.55,3.55,3.55,3.5383,3.5239,3.4377,3.384,3.3401,3.2592,3.0999,2.9891,2.945,2.9097,2.9115,2.8964,2.8827,2.854,2.8277,2.789,2.7454,2.7083,2.6808,2.6708,2.6708,2.6708,2.6708,2.6691,2.6691,2.6556,2.6334,2.5898,2.508,2.4669,2.4458,2.4153,2.3951,2.3642,2.3621,2.3535,2.3543,2.353,2.2721,2.1801,2.1319,2.0908,2.0442,1.9965,1.9761,1.9786,1.9798,1.9798,1.9545,1.8804,1.7912,1.6533,1.5524,1.5156,1.4902,1.498,1.5186,1.5138,1.5052,1.5264,1.5294,1.4785,1.3936,1.2618,1.1711,1.084,1.0577,1.0586,1.0586,1.0586,1.0586,1.0586,1.0586,1.0586,1.0586,4.5594,4.5594,4.5594,4.5594,4.5594,4.5594,4.568,4.579,4.5861,4.5967,4.5813,4.5129,4.418,4.3418,4.2558,4.1953,4.1406,4.1289,4.1191,4.1191,4.1191,4.1191,4.1191,4.1191,4.1191,4.1074,4.0859,4.0488,3.9933,3.9276,3.8302,3.7069,3.6715,3.6142,3.5558,3.5519,3.55,3.55,3.55,3.55,3.5432,3.5289,3.5094,3.4572,3.409,3.3369,3.2415,3.147,3.0686,3.0014,2.9409,2.9152,2.8887,2.8682,2.842,2.8166,2.7733,2.7192,2.6906,2.6808,2.6791,2.6708,2.6708,2.6708,2.6691,2.6691,2.6539,2.6539,2.5965,2.5766,2.5512,2.5019,2.4681,2.4148,2.3912,2.3694,2.3573,2.3508,2.315,2.2294,2.1558,2.1148,2.072,2.0232,1.9786,1.9798,1.9798,1.9798,1.9798,1.9281,1.8741,1.7363,1.5882,1.541,1.5293,1.5215,1.5322,1.5322,1.5322,1.5381,1.542,1.542,1.4471,1.2954,1.1695,1.0703,1.0604,1.0586,1.0586,1.0586,1.0586,1.0586,1.0586,1.0586,1.0586]}]]